[[{"header":{"parameterUnit":"m.s-1","parameterCategory":1,"la1":31.0,"la2":29.5877,"lo1":-88.7671,"lo2":-86.6584,"dy":0.0162,"dx":0.0185,"nx":115,"ny":88,"refTime":"2023-09-16T06:00:00:Z","depth":0,"parameterNumber":2,"parameterNumberName":"U-component_of_WINDS"},"data":[0.0,0.0,0.0,0.0,0.0,0.0,0.0,0.0,0.0,0.0,0.0,0.0,0.0,0.0,0.0,0.0,0.0,0.0,0.0,0.0,0.0,0.0,0.0,0.0,0.0,0.0,0.0,0.0,0.0,0.0,0.0,0.0,0.0,0.0,0.0,0.0,0.0,0.0,0.0,0.0,0.0,0.0,0.0,0.0,0.0,0.0,0.0,0.0,0.0,0.0,0.0,0.0,0.0,0.0,0.0,0.0,0.0,0.0,0.0,0.0,0.0,0.0,0.0,0.0,0.0,0.0,0.0,0.0,0.0,0.0,0.0,0.0,0.0,0.0,0.0,0.0,0.0,0.0,0.0,0.0,0.0,0.0,0.0,0.0,0.0,0.0,0.0,0.0,0.0,0.0,0.0,0.0,0.0,0.0,0.0,0.0,0.0,0.0,0.0,0.0,0.0,0.0,0.0,0.0,0.0,0.0,0.0,0.0,0.0,0.0,0.0,0.0,0.0,0.0,0.0,0.0,0.0,0.0,0.0,0.0,0.0,0.0,0.0,0.0,0.0,0.0,0.0,0.0,0.0,0.0,0.0,0.0,0.0,0.0,0.0,0.0,0.0,0.0,0.0,0.0,0.0,0.0,0.0,0.0,0.0,0.0,0.0,0.0,0.0,0.0,0.0,0.0,0.0,0.0,0.0,0.0,0.0,0.0,0.0,0.0,0.0,0.0,0.0,0.0,0.0,0.0,0.0,0.0,0.0,0.0,0.0,0.0,0.0,0.0,0.0,0.0,0.0,0.0,0.0,0.0,0.0,0.0,0.0,0.0,0.0,0.0,0.0,0.0,0.0,0.0,0.0,0.0,0.0,0.0,0.0,0.0,0.0,0.0,0.0,0.0,0.0,0.0,0.0,0.0,0.0,0.0,0.0,0.0,0.0,0.0,0.0,0.0,0.0,0.0,0.0,0.0,0.0,0.0,0.0,0.0,0.0,0.0,0.0,0.0,0.0,0.0,0.0,0.0,0.0,0.0,0.0,0.0,0.0,0.0,0.0,0.0,0.0,0.0,0.0,0.0,0.0,0.0,0.0,0.0,0.0,0.0,0.0,0.0,0.0,0.0,0.0,0.0,0.0,0.0,0.0,0.0,0.0,0.0,0.0,0.0,0.0,0.0,0.0,0.0,0.0,0.0,0.0,0.0,0.0,0.0,0.0,0.0,0.0,0.0,0.0,0.0,0.0,0.0,0.0,0.0,0.0,0.0,0.0,0.0,0.0,0.0,0.0,0.0,0.0,0.0,0.0,0.0,0.0,0.0,0.0,0.0,0.0,0.0,0.0,0.0,0.0,0.0,0.0,0.0,0.0,0.0,0.0,0.0,0.0,0.0,0.0,0.0,0.0,0.0,0.0,0.0,0.0,0.0,0.0,0.0,0.0,0.0,0.0,0.0,0.0,0.0,0.0,0.0,0.0,0.0,0.0,0.0,0.0,0.0,0.0,0.0,0.0,0.0,0.0,0.0,0.0,0.0,0.0,0.0,0.0,0.0,0.0,0.0,0.0,0.0,0.0,0.0,0.0,0.0,0.0,0.0,0.0,0.0,0.0,0.0,0.0,0.0,0.0,0.0,0.0,0.0,0.0,0.0,0.0,0.0,0.0,0.0,0.0,0.0,0.0,0.0,0.0,0.0,0.0,0.0,0.0,0.0,0.0,0.0,0.0,0.0,0.0,0.0,0.0,0.0,0.0,0.0,0.0,0.0,0.0,0.0,0.0,0.0,0.0,0.0,0.0,0.0,0.0,0.0,0.0,0.0,0.0,0.0,0.0,0.0,0.0,0.0,0.0,0.0,0.0,0.0,0.0,0.0,0.0,0.0,0.0,0.0,0.0,0.0,0.0,0.0,0.0,0.0,0.0,0.0,0.0,0.0,0.0,0.0,0.0,0.0,0.0,0.0,0.0,0.0,0.0,0.0,0.0,0.0,0.0,0.0,0.0,0.0,0.0,0.0,0.0,0.0,0.0,0.0,0.0,0.0,0.0,0.0,0.0,0.0,0.0,0.0,0.0,0.0,0.0,0.0,0.0,0.0,0.0,0.0,0.0,0.0,0.0,0.0,0.0,0.0,0.0,0.0,0.0,0.0,0.0,0.0,0.0,0.0,0.0,0.0,0.0,0.0,0.0,0.0,0.0,0.0,0.0,0.0,0.0,0.0,0.0,0.0,0.0,0.0,0.0,0.0,0.0,0.0,0.0,0.0,0.0,0.0,0.0,0.0,0.0,0.0,0.0,0.0,0.0,0.0,0.0,0.0,0.0,0.0,0.0,0.0,0.0,0.0,0.0,0.0,0.0,0.0,0.0,0.0,0.0,0.0,0.0,0.0,0.0,0.0,0.0,0.0,0.0,0.0,0.0,0.0,0.0,0.0,0.0,0.0,0.0,0.0,0.0,0.0,0.0,0.0,0.0,0.0,0.0,0.0,0.0,0.0,0.0,0.0,0.0,0.0,0.0,0.0,0.0,0.0,0.0,0.0,0.0,0.0,0.0,0.0,0.0,0.0,0.0,0.0,0.0,0.0,0.0,0.0,0.0,0.0,0.0,0.0,0.0,0.0,0.0,0.0,0.0,0.0,0.0,0.0,0.0,0.0,0.0,0.0,0.0,0.0,0.0,0.0,0.0,0.0,0.0,0.0,0.0,0.0,0.0,0.0,0.0,0.0,0.0,0.0,0.0,0.0,0.0,0.0,0.0,0.0,0.0,0.0,0.0,0.0,0.0,0.0,0.0,0.0,0.0,0.0,0.0,0.0,0.0,0.0,0.0,0.0,0.0,0.0,0.0,0.0,0.0,0.0,0.0,0.0,0.0,0.0,0.0,0.0,0.0,0.0,0.0,0.0,0.0,0.0,0.0,0.0,0.0,0.0,0.0,0.0,0.0,0.0,0.0,0.0,0.0,0.0,0.0,0.0,0.0,0.0,0.0,0.0,0.0,0.0,0.0,0.0,0.0,0.0,0.0,0.0,0.0,0.0,0.0,0.0,0.0,0.0,0.0,0.0,0.0,0.0,0.0,0.0,0.0,0.0,0.0,0.0,0.0,0.0,0.0,0.0,0.0,0.0,0.0,0.0,0.0,0.0,0.0,0.0,0.0,0.0,0.0,0.0,0.0,0.0,0.0,0.0,0.0,0.0,0.0,0.0,0.0,0.0,0.0,0.0,0.0,0.0,0.0,0.0,0.0,0.0,0.0,0.0,0.0,0.0,0.0,0.0,0.0,0.0,0.0,0.0,0.0,0.0,0.0,0.0,0.0,0.0,0.0,0.0,0.0,0.0,0.0,0.0,0.0,0.0,0.0,0.0,0.0,0.0,0.0,0.0,0.0,0.0,0.0,0.0,0.0,0.0,0.0,0.0,0.0,0.0,0.0,0.0,0.0,0.0,0.0,0.0,0.0,0.0,0.0,0.0,0.0,0.0,0.0,0.0,0.0,0.0,0.0,0.0,0.0,0.0,0.0,0.0,0.0,0.0,0.0,0.0,0.0,0.0,0.0,0.0,0.0,0.0,0.0,0.0,0.0,0.0,0.0,0.0,0.0,0.0,0.0,0.0,0.0,0.0,0.0,0.0,0.0,0.0,0.0,0.0,0.0,0.0,0.0,0.0,0.0,0.0,0.0,0.0,0.0,0.0,0.0,0.0,0.0,0.0,0.0,0.0,0.0,0.0,0.0,0.0,0.0,0.0,0.0,0.0,0.0,0.0,0.0,0.0,0.0,0.0,0.0,0.0,0.0,0.0,0.0,0.0,0.0,0.0,0.0,0.0,0.0,0.0,0.0,0.0,0.0,0.0,0.0,0.0,0.0,0.0,0.0,0.0,0.0,0.0,0.0,0.0,0.0,0.0,0.0,0.0,0.0,0.0,0.0,0.0,0.0,0.0,0.0,0.0,0.0,0.0,0.0,0.0,0.0,0.0,0.0,0.0,0.0,0.0,0.0,0.0,0.0,0.0,0.0,0.0,0.0,0.0,0.0,0.0,0.0,0.0,0.0,0.0,0.0,0.0,0.0,0.0,0.0,0.0,0.0,0.0,0.0,0.0,0.0,0.0,0.0,0.0,0.0,0.0,0.0,0.0,0.0,0.0,0.0,0.0,0.0,0.0,0.0,0.0,0.0,0.0,0.0,0.0,0.0,0.0,0.0,0.0,0.0,0.0,0.0,0.0,0.0,0.0,0.0,0.0,0.0,0.0,0.0,0.0,0.0,0.0,0.0,0.0,0.0,0.0,0.0,0.0,0.0,0.0,1.7635,0.0,0.0,0.0,0.0,0.0,0.0,0.0,0.0,0.0,0.0,0.0,0.0,0.0,0.0,0.0,0.0,0.0,0.0,0.0,0.0,0.0,0.0,0.0,0.0,0.0,0.0,0.0,0.0,0.0,0.0,0.0,0.0,0.0,0.0,0.0,0.0,0.0,0.0,0.0,0.0,0.0,0.0,0.0,0.0,0.0,0.0,0.0,0.0,0.0,0.0,0.0,0.0,0.0,0.0,0.0,0.0,0.0,0.0,0.0,0.0,0.0,0.0,0.0,0.0,0.0,0.0,0.0,0.0,0.0,0.0,0.0,0.0,0.0,0.0,0.0,0.0,0.0,0.0,0.0,0.0,0.0,0.0,0.0,0.0,0.0,0.0,0.0,0.0,0.0,0.0,0.0,0.0,0.0,0.0,0.0,0.0,0.0,0.0,0.0,0.0,0.0,0.0,0.0,0.0,0.0,0.0,0.0,0.0,0.0,0.0,1.8007,1.8006,1.8004,1.8002,1.7999,0.0,0.0,0.0,0.0,0.0,0.0,0.0,0.0,0.0,0.0,0.0,0.0,0.0,0.0,0.0,0.0,0.0,0.0,0.0,0.0,0.0,0.0,0.0,0.0,0.0,0.0,0.0,0.0,0.0,0.0,0.0,0.0,0.0,0.0,0.0,0.0,0.0,0.0,0.0,0.0,0.0,0.0,0.0,0.0,0.0,0.0,0.0,0.0,0.0,0.0,0.0,0.0,0.0,0.0,0.0,0.0,0.0,0.0,0.0,0.0,0.0,0.0,0.0,0.0,0.0,0.0,0.0,0.0,0.0,0.0,0.0,0.0,0.0,0.0,0.0,0.0,0.0,0.0,0.0,0.0,0.0,0.0,0.0,0.0,0.0,0.0,0.0,0.0,0.0,0.0,0.0,0.0,0.0,0.0,0.0,0.0,0.0,0.0,0.0,0.0,0.0,0.0,0.0,0.0,0.0,0.0,0.0,0.0,0.0,0.0,0.0,0.0,1.8582,1.8578,1.8576,0.0,0.0,0.0,0.0,0.0,0.0,0.0,0.0,0.0,0.0,0.0,0.0,0.0,0.0,0.0,0.0,0.0,0.0,0.0,0.0,0.0,0.0,0.0,0.0,0.0,0.0,0.0,0.0,0.0,0.0,0.0,0.0,0.0,0.0,0.0,0.0,0.0,0.0,0.0,0.0,0.0,0.0,0.0,0.0,0.0,0.0,0.0,0.0,0.0,0.0,0.0,0.0,0.0,0.0,0.0,0.0,0.0,0.0,0.0,0.0,0.0,0.0,0.0,0.0,0.0,0.0,0.0,0.0,0.0,0.0,0.0,0.0,0.0,0.0,0.0,0.0,0.0,0.0,0.0,0.0,0.0,0.0,0.0,0.0,0.0,0.0,0.0,0.0,0.0,0.0,0.0,0.0,0.0,0.0,0.0,0.0,0.0,0.0,0.0,0.0,0.0,0.0,0.0,0.0,0.0,0.0,0.0,0.0,0.0,0.0,2.036,2.036,2.0352,0.0,2.0246,0.0,0.0,0.0,0.0,0.0,0.0,0.0,0.0,0.0,0.0,0.0,0.0,0.0,0.0,0.0,0.0,0.0,0.0,0.0,0.0,0.0,0.0,0.0,0.0,0.0,0.0,0.0,0.0,0.0,0.0,0.0,0.0,0.0,0.0,0.0,0.0,0.0,0.0,0.0,0.0,0.0,0.0,0.0,0.0,0.0,0.0,0.0,0.0,0.0,0.0,0.0,0.0,0.0,0.0,0.0,0.0,0.0,0.0,0.0,0.0,0.0,0.0,0.0,0.0,0.0,0.0,0.0,0.0,0.0,0.0,0.0,0.0,0.0,0.0,0.0,0.0,0.0,0.0,0.0,0.0,0.0,0.0,0.0,0.0,0.0,0.0,0.0,0.0,0.0,0.0,0.0,0.0,0.0,0.0,0.0,0.0,0.0,0.0,0.0,0.0,0.0,0.0,0.0,0.0,0.0,0.0,0.0,0.0,0.0,0.0,2.0545,2.0545,2.054,2.0536,0.0,0.0,0.0,0.0,0.0,0.0,0.0,0.0,0.0,0.0,0.0,0.0,0.0,0.0,0.0,0.0,0.0,0.0,0.0,0.0,0.0,0.0,0.0,0.0,0.0,0.0,0.0,0.0,0.0,0.0,0.0,0.0,0.0,0.0,0.0,0.0,0.0,0.0,0.0,0.0,0.0,0.0,0.0,0.0,0.0,0.0,0.0,0.0,0.0,0.0,0.0,0.0,0.0,0.0,0.0,0.0,0.0,0.0,0.0,0.0,0.0,0.0,0.0,0.0,0.0,0.0,0.0,0.0,0.0,0.0,0.0,0.0,0.0,0.0,0.0,0.0,0.0,0.0,0.0,0.0,0.0,0.0,0.0,0.0,0.0,0.0,0.0,0.0,0.0,0.0,0.0,0.0,0.0,0.0,0.0,0.0,0.0,0.0,0.0,0.0,0.0,0.0,0.0,0.0,0.0,0.0,0.0,0.0,0.0,0.0,2.0516,2.0514,2.0511,2.0509,2.0506,2.0513,0.0,0.0,0.0,0.0,0.0,0.0,0.0,0.0,0.0,0.0,0.0,0.0,0.0,0.0,0.0,0.0,0.0,0.0,0.0,0.0,0.0,0.0,0.0,0.0,0.0,0.0,0.0,0.0,0.0,0.0,0.0,0.0,0.0,0.0,0.0,0.0,0.0,0.0,0.0,0.0,0.0,0.0,0.0,0.0,0.0,0.0,0.0,0.0,0.0,0.0,0.0,0.0,0.0,0.0,0.0,0.0,0.0,0.0,0.0,0.0,0.0,0.0,0.0,0.0,0.0,0.0,0.0,0.0,0.0,0.0,0.0,0.0,0.0,0.0,0.0,0.0,0.0,0.0,0.0,0.0,0.0,0.0,0.0,0.0,0.0,0.0,0.0,0.0,0.0,0.0,0.0,0.0,0.0,0.0,0.0,0.0,0.0,0.0,0.0,0.0,0.0,0.0,0.0,0.0,0.0,0.0,0.0,0.0,2.0516,2.0509,2.05,2.0506,2.0506,2.0499,0.0,0.0,0.0,0.0,0.0,0.0,0.0,0.0,0.0,0.0,0.0,0.0,0.0,0.0,0.0,0.0,0.0,0.0,0.0,0.0,0.0,0.0,0.0,0.0,0.0,0.0,0.0,0.0,0.0,0.0,0.0,0.0,0.0,0.0,0.0,0.0,0.0,0.0,0.0,0.0,0.0,0.0,0.0,0.0,0.0,0.0,0.0,0.0,0.0,0.0,0.0,0.0,0.0,0.0,0.0,0.0,0.0,0.0,0.0,0.0,0.0,0.0,0.0,0.0,0.0,0.0,0.0,0.0,0.0,0.0,0.0,0.0,0.0,0.0,0.0,0.0,0.0,0.0,0.0,0.0,0.0,0.0,0.0,0.0,0.0,0.0,0.0,0.0,0.0,0.0,0.0,0.0,0.0,0.0,0.0,0.0,0.0,0.0,0.0,0.0,0.0,0.0,0.0,0.0,0.0,0.0,0.0,0.0,0.0,2.0506,2.0499,2.0508,2.0504,2.05,2.0472,0.0,0.0,0.0,0.0,0.0,0.0,0.0,0.0,0.0,0.0,0.0,0.0,0.0,0.0,0.0,0.0,0.0,0.0,0.0,0.0,0.0,0.0,0.0,0.0,0.0,0.0,0.0,0.0,0.0,0.0,0.0,0.0,0.0,0.0,0.0,0.0,0.0,0.0,0.0,0.0,0.0,0.0,0.0,0.0,0.0,0.0,0.0,0.0,0.0,0.0,0.0,0.0,0.0,0.0,0.0,0.0,0.0,0.0,0.0,0.0,0.0,0.0,0.0,0.0,0.0,0.0,0.0,0.0,0.0,0.0,0.0,0.0,0.0,0.0,0.0,0.0,0.0,0.0,0.0,0.0,0.0,0.0,0.0,0.0,0.0,0.0,0.0,0.0,0.0,0.0,0.0,0.0,0.0,0.0,0.0,0.0,0.0,0.0,0.0,0.0,0.0,0.0,0.0,0.0,0.0,0.0,0.0,0.0,0.0,2.088,0.0,2.09,2.0891,2.0905,2.072,0.0,0.0,0.0,0.0,0.0,0.0,0.0,0.0,0.0,0.0,0.0,0.0,0.0,0.0,0.0,0.0,0.0,0.0,0.0,0.0,0.0,0.0,0.0,0.0,0.0,0.0,0.0,0.0,0.0,0.0,0.0,0.0,0.0,0.0,0.0,0.0,0.0,0.0,0.0,0.0,0.0,0.0,0.0,0.0,0.0,0.0,0.0,0.0,0.0,0.0,0.0,0.0,0.0,0.0,0.0,0.0,0.0,0.0,0.0,0.0,0.0,0.0,0.0,0.0,0.0,0.0,0.0,0.0,0.0,0.0,0.0,0.0,0.0,0.0,0.0,0.0,0.0,0.0,0.0,0.0,0.0,0.0,0.0,0.0,0.0,0.0,0.0,0.0,0.0,0.0,0.0,0.0,0.0,0.0,0.0,0.0,0.0,0.0,0.0,0.0,0.0,0.0,0.0,0.0,0.0,0.0,0.0,0.0,2.0939,2.1696,2.1729,2.1731,2.174,2.174,2.1307,0.0,0.0,0.0,0.0,0.0,0.0,0.0,0.0,0.0,0.0,0.0,0.0,0.0,0.0,0.0,0.0,0.0,0.0,0.0,0.0,0.0,0.0,0.0,0.0,0.0,0.0,0.0,0.0,0.0,0.0,0.0,0.0,0.0,0.0,0.0,0.0,0.0,0.0,0.0,0.0,0.0,0.0,0.0,0.0,0.0,0.0,0.0,0.0,0.0,0.0,0.0,0.0,0.0,0.0,0.0,0.0,0.0,0.0,0.0,0.0,0.0,0.0,0.0,0.0,0.0,0.0,0.0,0.0,0.0,0.0,0.0,0.0,0.0,0.0,0.0,0.0,0.0,0.0,0.0,0.0,0.0,0.0,0.0,0.0,0.0,0.0,0.0,0.0,0.0,0.0,0.0,0.0,0.0,0.0,0.0,0.0,0.0,0.0,0.0,0.0,0.0,0.0,0.0,0.0,0.0,0.0,0.0,0.0,0.0,2.3399,2.2829,2.2796,2.3303,2.2805,2.2122,0.0,0.0,0.0,0.0,0.0,0.0,0.0,0.0,0.0,0.0,0.0,0.0,0.0,0.0,0.0,0.0,0.0,0.0,0.0,0.0,0.0,0.0,0.0,0.0,0.0,0.0,0.0,0.0,0.0,0.0,0.0,0.0,0.0,0.0,0.0,0.0,0.0,0.0,0.0,0.0,0.0,0.0,0.0,0.0,0.0,0.0,0.0,0.0,0.0,0.0,0.0,0.0,0.0,0.0,0.0,0.0,0.0,0.0,0.0,0.0,0.0,0.0,0.0,0.0,0.0,0.0,0.0,0.0,0.0,0.0,0.0,0.0,0.0,0.0,0.0,0.0,0.0,0.0,0.0,0.0,0.0,0.0,0.0,0.0,0.0,0.0,0.0,0.0,0.0,0.0,0.0,0.0,0.0,0.0,0.0,0.0,0.0,0.0,0.0,0.0,0.0,0.0,0.0,0.0,0.0,0.0,0.0,0.0,0.0,2.7363,2.6022,2.5483,2.5976,2.5186,2.4041,2.2568,0.0,0.0,0.0,0.0,0.0,0.0,0.0,0.0,0.0,0.0,0.0,0.0,0.0,0.0,0.0,0.0,0.0,0.0,0.0,0.0,0.0,0.0,0.0,0.0,0.0,0.0,0.0,0.0,0.0,0.0,0.0,0.0,0.0,0.0,0.0,0.0,0.0,0.0,0.0,0.0,0.0,0.0,0.0,0.0,0.0,0.0,0.0,0.0,0.0,0.0,0.0,0.0,0.0,0.0,0.0,0.0,0.0,0.0,0.0,0.0,0.0,0.0,0.0,0.0,0.0,0.0,0.0,0.0,0.0,0.0,0.0,0.0,0.0,0.0,0.0,0.0,0.0,0.0,0.0,0.0,0.0,0.0,0.0,0.0,0.0,0.0,0.0,0.0,0.0,0.0,0.0,0.0,0.0,0.0,0.0,0.0,0.0,0.0,0.0,0.0,0.0,0.0,0.0,0.0,0.0,0.0,0.0,0.0,3.3205,3.1025,2.9753,2.9539,2.8593,2.6879,0.0,0.0,0.0,0.0,0.0,0.0,0.0,0.0,0.0,0.0,0.0,0.0,0.0,0.0,0.0,0.0,0.0,0.0,0.0,0.0,0.0,0.0,0.0,0.0,0.0,0.0,0.0,0.0,0.0,0.0,0.0,0.0,0.0,0.0,0.0,0.0,0.0,0.0,0.0,0.0,0.0,0.0,0.0,0.0,0.0,0.0,0.0,0.0,0.0,0.0,0.0,0.0,0.0,0.0,0.0,0.0,0.0,0.0,0.0,0.0,0.0,0.0,0.0,0.0,0.0,0.0,0.0,0.0,0.0,0.0,0.0,0.0,0.0,0.0,0.0,0.0,0.0,0.0,0.0,0.0,0.0,0.0,0.0,0.0,0.0,0.0,0.0,0.0,0.0,0.0,0.0,0.0,0.0,0.0,0.0,0.0,0.0,0.0,0.0,0.0,0.0,0.0,0.0,0.0,0.0,0.0,0.0,0.0,0.0,3.6464,3.7164,3.6296,3.3851,3.1731,2.9421,0.0,0.0,0.0,0.0,0.0,0.0,0.0,0.0,0.0,0.0,0.0,0.0,0.0,0.0,0.0,0.0,0.0,0.0,0.0,0.0,0.0,0.0,0.0,0.0,0.0,0.0,0.0,0.0,0.0,0.0,0.0,0.0,0.0,0.0,0.0,0.0,0.0,0.0,0.0,0.0,0.0,0.0,0.0,0.0,0.0,0.0,0.0,0.0,0.0,0.0,0.0,0.0,0.0,0.0,0.0,0.0,0.0,0.0,0.0,0.0,0.0,0.0,0.0,0.0,0.0,0.0,0.0,0.0,0.0,0.0,0.0,0.0,0.0,0.0,0.0,0.0,0.0,0.0,0.0,0.0,0.0,0.0,0.0,0.0,0.0,0.0,0.0,0.0,0.0,0.0,0.0,0.0,0.0,0.0,0.0,0.0,0.0,0.0,0.0,0.0,0.0,0.0,0.0,0.0,0.0,0.0,0.0,0.0,3.5541,3.8914,4.1278,4.1585,3.9648,3.5772,3.2325,0.0,0.0,0.0,0.0,0.0,0.0,0.0,0.0,0.0,0.0,0.0,0.0,0.0,0.0,0.0,0.0,0.0,0.0,0.0,0.0,0.0,0.0,0.0,0.0,0.0,0.0,0.0,0.0,0.0,0.0,0.0,0.0,0.0,0.0,0.0,0.0,0.0,0.0,0.0,0.0,0.0,0.0,0.0,0.0,0.0,0.0,0.0,0.0,0.0,0.0,0.0,0.0,0.0,0.0,0.0,0.0,0.0,0.0,0.0,0.0,0.0,0.0,0.0,0.0,0.0,0.0,0.0,0.0,0.0,0.0,0.0,0.0,0.0,0.0,0.0,0.0,0.0,0.0,0.0,0.0,0.0,0.0,0.0,0.0,0.0,0.0,0.0,0.0,0.0,0.0,0.0,0.0,0.0,0.0,0.0,0.0,0.0,0.0,0.0,0.0,0.0,0.0,0.0,0.0,0.0,0.0,0.0,0.0,3.7389,4.0877,4.402,4.5706,4.5609,4.0058,3.5369,0.0,0.0,0.0,0.0,0.0,0.0,0.0,0.0,0.0,0.0,0.0,0.0,0.0,0.0,0.0,0.0,0.0,0.0,0.0,0.0,0.0,0.0,0.0,0.0,0.0,0.0,0.0,0.0,0.0,0.0,0.0,0.0,0.0,0.0,0.0,0.0,0.0,0.0,0.0,0.0,0.0,0.0,0.0,0.0,0.0,0.0,0.0,0.0,0.0,0.0,0.0,0.0,0.0,0.0,0.0,0.0,0.0,0.0,0.0,0.0,0.0,0.0,0.0,0.0,0.0,0.0,0.0,0.0,0.0,0.0,0.0,0.0,0.0,0.0,0.0,0.0,0.0,0.0,0.0,0.0,0.0,0.0,0.0,0.0,0.0,0.0,0.0,0.0,0.0,0.0,0.0,0.0,0.0,0.0,0.0,0.0,0.0,0.0,0.0,0.0,0.0,0.0,0.0,0.0,0.0,0.0,0.0,0.0,4.0192,4.4154,4.6237,4.7611,4.8261,4.2585,3.7917,0.0,0.0,0.0,0.0,0.0,0.0,0.0,0.0,0.0,0.0,0.0,0.0,0.0,0.0,0.0,0.0,0.0,0.0,0.0,0.0,0.0,0.0,0.0,0.0,0.0,0.0,0.0,0.0,0.0,0.0,0.0,0.0,0.0,0.0,0.0,0.0,0.0,0.0,0.0,0.0,0.0,0.0,0.0,0.0,0.0,0.0,0.0,0.0,2.3348,0.0,0.0,0.0,0.0,0.0,0.0,0.0,0.0,0.0,0.0,0.0,0.0,0.0,0.0,0.0,0.0,0.0,0.0,0.0,0.0,0.0,0.0,0.0,0.0,0.0,0.0,0.0,0.0,0.0,0.0,0.0,0.0,0.0,0.0,0.0,0.0,0.0,0.0,0.0,0.0,0.0,0.0,0.0,0.0,0.0,0.0,0.0,0.0,0.0,0.0,0.0,0.0,0.0,0.0,0.0,0.0,0.0,0.0,0.0,4.1475,4.5204,4.7343,4.864,4.8907,4.4876,4.0654,0.0,0.0,0.0,0.0,0.0,0.0,0.0,0.0,0.0,0.0,0.0,0.0,0.0,0.0,0.0,0.0,0.0,0.0,0.0,0.0,0.0,0.0,0.0,0.0,0.0,0.0,0.0,0.0,0.0,0.0,0.0,0.0,0.0,0.0,0.0,0.0,0.0,0.0,0.0,0.0,0.0,0.0,0.0,0.0,0.0,0.0,0.0,0.0,0.0,0.0,0.0,0.0,0.0,0.0,0.0,0.0,0.0,0.0,0.0,0.0,0.0,0.0,0.0,0.0,0.0,0.0,0.0,0.0,0.0,0.0,0.0,0.0,0.0,0.0,0.0,0.0,0.0,0.0,0.0,0.0,0.0,0.0,0.0,0.0,0.0,0.0,0.0,0.0,0.0,0.0,0.0,0.0,0.0,0.0,0.0,0.0,0.0,0.0,0.0,0.0,0.0,0.0,0.0,0.0,0.0,0.0,0.0,3.8418,4.2183,4.5583,4.8048,4.927,4.9232,4.6625,4.2997,3.8404,0.0,0.0,0.0,0.0,0.0,0.0,0.0,0.0,0.0,0.0,0.0,0.0,0.0,0.0,0.0,0.0,0.0,0.0,0.0,0.0,0.0,0.0,0.0,0.0,0.0,0.0,0.0,0.0,0.0,0.0,0.0,0.0,0.0,0.0,0.0,0.0,0.0,0.0,2.2011,2.332,0.0,0.0,0.0,0.0,0.0,0.0,0.0,0.0,2.6096,0.0,0.0,0.0,0.0,0.0,0.0,0.0,0.0,0.0,0.0,0.0,0.0,0.0,0.0,0.0,0.0,0.0,0.0,0.0,0.0,0.0,0.0,0.0,0.0,0.0,0.0,0.0,0.0,0.0,0.0,0.0,0.0,0.0,0.0,0.0,0.0,0.0,0.0,0.0,0.0,0.0,0.0,0.0,0.0,0.0,0.0,0.0,0.0,0.0,0.0,0.0,0.0,0.0,0.0,0.0,0.0,3.605,3.9546,4.3271,4.7302,4.911,5.0021,4.9945,4.6777,4.3646,4.0642,0.0,0.0,0.0,0.0,0.0,0.0,0.0,0.0,0.0,0.0,0.0,0.0,0.0,0.0,0.0,0.0,0.0,0.0,0.0,0.0,0.0,0.0,0.0,0.0,0.0,0.0,0.0,0.0,0.0,0.0,0.0,0.0,0.0,0.0,0.0,0.0,0.0,0.0,0.0,2.5799,2.6581,0.0,0.0,0.0,0.0,0.0,0.0,0.0,0.0,2.8032,0.0,0.0,0.0,0.0,0.0,0.0,0.0,0.0,0.0,0.0,0.0,0.0,0.0,0.0,0.0,0.0,0.0,0.0,0.0,0.0,0.0,0.0,0.0,0.0,0.0,0.0,0.0,0.0,0.0,0.0,0.0,0.0,0.0,0.0,0.0,0.0,0.0,0.0,0.0,0.0,0.0,0.0,0.0,0.0,0.0,0.0,0.0,0.0,0.0,0.0,0.0,0.0,0.0,0.0,0.0,3.6993,4.0787,4.4315,4.7613,4.93,4.9948,4.9491,4.6991,4.4014,0.0,0.0,0.0,0.0,0.0,0.0,0.0,0.0,0.0,0.0,0.0,0.0,0.0,0.0,0.0,0.0,0.0,0.0,0.0,0.0,0.0,0.0,0.0,0.0,0.0,0.0,0.0,0.0,0.0,0.0,0.0,0.0,0.0,0.0,0.0,0.0,0.0,0.0,0.0,0.0,2.7065,2.7675,2.9303,0.0,0.0,0.0,0.0,0.0,0.0,2.8941,2.8679,0.0,0.0,0.0,0.0,0.0,0.0,0.0,0.0,0.0,0.0,0.0,0.0,0.0,0.0,0.0,0.0,0.0,0.0,0.0,0.0,0.0,0.0,0.0,0.0,0.0,0.0,0.0,0.0,0.0,0.0,0.0,0.0,0.0,0.0,0.0,0.0,0.0,0.0,0.0,0.0,0.0,0.0,0.0,0.0,0.0,0.0,0.0,0.0,0.0,0.0,0.0,0.0,0.0,0.0,0.0,3.8099,4.202,4.5293,4.7786,4.9302,4.9702,4.884,4.6935,4.4094,0.0,0.0,0.0,0.0,0.0,0.0,0.0,0.0,0.0,0.0,0.0,0.0,0.0,0.0,0.0,0.0,0.0,0.0,0.0,0.0,0.0,0.0,0.0,0.0,0.0,0.0,0.0,0.0,0.0,0.0,0.0,0.0,0.0,0.0,0.0,0.0,0.0,0.0,0.0,0.0,0.0,2.9025,3.0634,3.02,0.0,0.0,0.0,0.0,2.994,3.0097,0.0,0.0,0.0,0.0,0.0,0.0,0.0,0.0,0.0,0.0,0.0,0.0,0.0,0.0,0.0,0.0,0.0,0.0,0.0,0.0,0.0,0.0,0.0,0.0,0.0,0.0,0.0,0.0,0.0,0.0,0.0,0.0,0.0,0.0,0.0,0.0,0.0,0.0,0.0,0.0,0.0,0.0,0.0,0.0,0.0,0.0,0.0,0.0,0.0,0.0,0.0,0.0,0.0,0.0,0.0,0.0,3.9755,4.3197,4.6187,4.8642,4.9581,4.9599,4.8712,4.6291,4.363,0.0,0.0,0.0,0.0,0.0,0.0,0.0,0.0,0.0,0.0,0.0,0.0,0.0,0.0,0.0,0.0,0.0,0.0,0.0,0.0,0.0,0.0,0.0,0.0,0.0,0.0,0.0,0.0,0.0,0.0,0.0,0.0,0.0,0.0,0.0,0.0,0.0,0.0,0.0,0.0,0.0,3.1599,3.3318,3.281,3.2511,0.0,0.0,3.3463,3.4166,3.4813,0.0,0.0,0.0,0.0,0.0,0.0,0.0,0.0,0.0,0.0,0.0,0.0,0.0,0.0,0.0,0.0,0.0,0.0,0.0,0.0,0.0,0.0,0.0,0.0,0.0,0.0,0.0,0.0,0.0,0.0,0.0,0.0,0.0,0.0,0.0,0.0,0.0,0.0,0.0,0.0,0.0,0.0,0.0,0.0,0.0,0.0,0.0,0.0,0.0,0.0,0.0,0.0,0.0,0.0,0.0,3.6649,3.9867,4.3653,4.6613,4.8545,4.9427,4.9191,4.7878,4.5749,4.3168,0.0,0.0,0.0,0.0,0.0,0.0,0.0,0.0,0.0,0.0,0.0,0.0,0.0,0.0,0.0,0.0,0.0,0.0,0.0,0.0,0.0,0.0,0.0,0.0,0.0,0.0,0.0,0.0,0.0,0.0,0.0,0.0,0.0,0.0,0.0,0.0,0.0,0.0,0.0,0.0,0.0,0.0,3.4426,3.4356,0.0,0.0,0.0,3.5097,3.4908,0.0,0.0,0.0,0.0,0.0,0.0,0.0,0.0,0.0,0.0,0.0,0.0,0.0,0.0,0.0,0.0,0.0,0.0,0.0,0.0,0.0,0.0,0.0,0.0,0.0,0.0,0.0,0.0,0.0,0.0,0.0,0.0,0.0,0.0,0.0,0.0,0.0,0.0,0.0,0.0,0.0,0.0,0.0,0.0,0.0,0.0,0.0,0.0,0.0,0.0,0.0,0.0,0.0,0.0,0.0,0.0,0.0,4.0311,4.4252,4.7061,4.8597,4.9294,4.8907,4.741,4.566,0.0,0.0,0.0,0.0,0.0,0.0,0.0,0.0,0.0,0.0,0.0,0.0,0.0,0.0,0.0,0.0,0.0,0.0,0.0,0.0,0.0,0.0,0.0,0.0,0.0,0.0,0.0,2.267,0.0,0.0,0.0,0.0,0.0,0.0,0.0,0.0,0.0,0.0,0.0,0.0,0.0,0.0,3.411,3.5615,3.6155,3.6462,0.0,0.0,3.6915,3.6415,3.7338,3.7483,0.0,0.0,0.0,0.0,0.0,0.0,0.0,0.0,0.0,0.0,0.0,0.0,0.0,0.0,0.0,0.0,0.0,0.0,0.0,0.0,0.0,0.0,0.0,0.0,0.0,0.0,0.0,0.0,0.0,0.0,0.0,0.0,0.0,0.0,0.0,0.0,0.0,0.0,0.0,0.0,0.0,0.0,0.0,0.0,0.0,0.0,0.0,0.0,0.0,0.0,0.0,0.0,0.0,0.0,0.0,4.1958,4.5283,4.7776,4.9265,4.9377,4.8921,4.7866,4.6296,4.3845,0.0,0.0,0.0,0.0,0.0,0.0,0.0,0.0,0.0,0.0,0.0,0.0,0.0,0.0,0.0,0.0,0.0,0.0,0.0,0.0,0.0,0.0,0.0,0.0,0.0,0.0,0.0,0.0,0.0,0.0,0.0,0.0,0.0,0.0,0.0,0.0,0.0,0.0,0.0,0.0,0.0,3.6368,3.7319,3.8726,3.9939,0.0,0.0,3.9758,4.0368,4.0452,3.9639,3.7162,0.0,0.0,0.0,0.0,0.0,0.0,0.0,0.0,0.0,0.0,0.0,0.0,0.0,0.0,0.0,0.0,0.0,0.0,0.0,0.0,0.0,0.0,0.0,0.0,0.0,0.0,0.0,0.0,0.0,0.0,0.0,0.0,0.0,0.0,0.0,0.0,0.0,0.0,0.0,0.0,0.0,0.0,0.0,0.0,0.0,0.0,0.0,0.0,0.0,0.0,0.0,0.0,0.0,3.9682,4.2567,4.5354,4.7498,4.8897,4.8956,4.8531,4.7683,4.6034,4.3818,0.0,0.0,0.0,0.0,0.0,0.0,0.0,0.0,0.0,0.0,0.0,0.0,0.0,0.0,0.0,0.0,0.0,0.0,0.0,0.0,0.0,0.0,0.0,0.0,0.0,0.0,0.0,0.0,2.8081,2.8341,2.8546,0.0,0.0,0.0,0.0,0.0,0.0,0.0,0.0,0.0,0.0,3.7639,3.9499,4.0208,0.0,0.0,4.1084,4.1017,4.0708,4.1046,4.0656,3.8524,3.6562,0.0,0.0,0.0,0.0,0.0,0.0,0.0,0.0,0.0,0.0,0.0,0.0,0.0,0.0,0.0,0.0,0.0,0.0,0.0,0.0,0.0,0.0,0.0,0.0,0.0,0.0,0.0,0.0,0.0,0.0,0.0,0.0,0.0,0.0,0.0,0.0,0.0,0.0,0.0,0.0,0.0,0.0,0.0,0.0,0.0,0.0,0.0,0.0,0.0,0.0,0.0,0.0,4.0319,4.2828,4.5504,4.7411,4.8641,4.8623,4.831,4.772,4.6284,4.4354,0.0,0.0,0.0,0.0,0.0,0.0,0.0,0.0,0.0,0.0,0.0,0.0,0.0,0.0,0.0,0.0,0.0,0.0,0.0,0.0,0.0,0.0,0.0,0.0,0.0,0.0,0.0,0.0,2.9664,2.972,2.925,0.0,0.0,0.0,0.0,0.0,0.0,0.0,0.0,0.0,0.0,3.8738,4.0722,4.1116,4.1193,4.1167,4.1391,4.1351,4.0878,4.1092,4.084,3.9486,0.0,0.0,0.0,0.0,0.0,0.0,0.0,0.0,0.0,0.0,0.0,0.0,0.0,0.0,0.0,0.0,0.0,0.0,0.0,0.0,0.0,0.0,0.0,0.0,0.0,0.0,0.0,0.0,0.0,0.0,2.7502,0.0,0.0,0.0,0.0,0.0,0.0,0.0,0.0,0.0,0.0,0.0,0.0,0.0,0.0,0.0,0.0,0.0,0.0,0.0,0.0,0.0,0.0,4.1767,4.2743,4.5777,4.7739,4.8494,4.8363,4.8304,4.8172,4.7382,4.5753,4.316,0.0,0.0,0.0,0.0,0.0,0.0,0.0,0.0,0.0,0.0,0.0,0.0,0.0,0.0,0.0,0.0,0.0,0.0,0.0,0.0,0.0,0.0,0.0,0.0,0.0,0.0,2.8313,2.9696,3.0671,0.0,0.0,0.0,0.0,0.0,0.0,0.0,0.0,0.0,0.0,3.7901,3.9783,4.0685,4.1421,4.1809,4.1773,4.112,4.0784,4.1382,4.0759,4.0078,0.0,0.0,0.0,0.0,0.0,0.0,0.0,0.0,0.0,0.0,0.0,0.0,0.0,0.0,0.0,0.0,0.0,0.0,0.0,0.0,0.0,0.0,0.0,0.0,0.0,0.0,0.0,3.1467,3.1449,0.0,0.0,0.0,0.0,0.0,0.0,0.0,0.0,0.0,0.0,0.0,3.6913,3.6839,0.0,0.0,0.0,0.0,0.0,0.0,0.0,0.0,0.0,0.0,0.0,0.0,4.1848,4.3198,4.625,4.819,4.8912,4.9294,4.9252,4.8665,4.7819,4.5671,4.2175,0.0,0.0,0.0,0.0,0.0,0.0,0.0,0.0,0.0,0.0,0.0,0.0,0.0,0.0,0.0,0.0,0.0,0.0,0.0,0.0,0.0,0.0,0.0,0.0,0.0,2.9182,0.0,0.0,0.0,0.0,0.0,0.0,0.0,0.0,0.0,0.0,0.0,3.4839,3.705,3.8546,3.9911,4.1203,4.1577,4.1845,0.0,0.0,0.0,0.0,0.0,0.0,0.0,0.0,0.0,0.0,0.0,0.0,0.0,0.0,3.6562,3.3935,3.3829,3.428,3.4818,0.0,0.0,0.0,0.0,0.0,0.0,0.0,0.0,0.0,0.0,0.0,0.0,0.0,0.0,3.4529,0.0,3.4269,0.0,0.0,0.0,0.0,0.0,0.0,0.0,0.0,3.7555,3.8715,3.9778,3.9974,4.0457,0.0,4.0841,3.9819,0.0,0.0,0.0,0.0,0.0,0.0,0.0,0.0,4.2606,4.4072,4.6877,4.8707,4.9336,4.973,4.9577,4.8808,4.7587,4.5762,4.3131,4.1396,3.9258,0.0,0.0,0.0,0.0,0.0,0.0,0.0,0.0,0.0,0.0,0.0,0.0,0.0,0.0,0.0,0.0,0.0,0.0,0.0,0.0,0.0,0.0,0.0,3.0924,0.0,0.0,0.0,0.0,0.0,0.0,0.0,0.0,0.0,3.4027,3.5373,3.7012,3.8697,3.9844,4.0821,4.1516,0.0,0.0,0.0,0.0,0.0,0.0,0.0,4.2083,4.1732,4.1379,4.1389,4.2159,4.2231,4.2176,4.2176,0.0,0.0,3.7332,3.6967,3.7442,3.7893,3.7898,3.8241,3.9497,3.9942,4.0331,0.0,0.0,0.0,0.0,0.0,0.0,0.0,0.0,3.7125,3.6702,0.0,3.5988,0.0,0.0,0.0,0.0,0.0,3.7542,0.0,0.0,4.1781,4.2981,4.3036,4.3627,4.436,4.5064,4.4155,4.3667,4.345,4.0509,0.0,0.0,0.0,0.0,0.0,0.0,4.3979,4.5428,4.7777,4.9278,4.9911,4.9847,4.9387,4.856,4.6954,4.6068,4.5871,4.2882,4.1118,4.0895,3.6557,0.0,0.0,0.0,0.0,0.0,0.0,0.0,0.0,0.0,0.0,0.0,0.0,0.0,0.0,0.0,0.0,0.0,0.0,0.0,0.0,3.2956,0.0,0.0,0.0,0.0,0.0,0.0,0.0,0.0,0.0,0.0,3.5673,3.7013,3.8562,4.016,0.0,0.0,0.0,0.0,4.3162,4.1535,4.1236,4.1225,4.1126,4.1735,4.2436,4.3142,0.0,0.0,4.5291,4.5417,4.5454,4.5454,4.591,4.5192,4.1431,4.0745,4.0651,4.0548,4.0548,4.0623,4.1307,4.2248,4.2852,4.0764,0.0,0.0,0.0,0.0,3.9664,4.0485,4.1269,4.1269,4.0784,4.0064,4.0064,0.0,0.0,0.0,0.0,0.0,0.0,4.112,4.1949,4.3769,4.4859,4.5352,4.5508,4.5716,4.5854,4.5563,4.5418,4.5346,4.4323,4.2823,4.0899,0.0,0.0,0.0,0.0,4.5091,4.615,4.8856,5.0415,5.0602,5.1018,5.0564,4.9108,4.7986,4.6888,4.5748,4.4236,4.2622,4.0914,3.8974,0.0,0.0,0.0,0.0,0.0,0.0,0.0,0.0,0.0,0.0,0.0,0.0,0.0,0.0,0.0,0.0,0.0,0.0,0.0,3.2723,3.3333,3.334,0.0,0.0,0.0,0.0,0.0,0.0,0.0,0.0,0.0,3.9534,3.9618,3.9835,0.0,0.0,4.173,4.1346,4.2132,4.2772,4.2713,4.321,0.0,4.4181,4.4893,4.5443,4.5654,4.6726,4.7621,4.7844,4.8247,4.8583,4.8565,4.8658,4.8307,4.7198,4.5953,4.5272,4.5223,4.5107,4.5293,4.6034,4.64,4.6712,4.5811,4.3979,4.2151,4.1613,4.1967,4.2824,4.3644,4.4389,4.4389,4.3942,4.3226,4.3208,4.2323,4.0784,4.0784,0.0,0.0,0.0,4.3595,4.4383,4.5639,4.6595,4.7286,4.755,4.7811,4.8089,4.7978,4.7941,4.7885,4.7441,4.6466,4.4874,0.0,0.0,4.3229,4.4816,4.6266,4.7633,4.9701,5.0964,5.1221,5.1236,5.062,4.9292,4.8395,4.7305,4.6028,4.5202,4.3907,4.2167,4.0729,3.9171,0.0,0.0,0.0,0.0,0.0,0.0,0.0,0.0,0.0,0.0,0.0,3.0891,3.0943,0.0,0.0,0.0,3.4679,3.5055,3.5128,3.5329,0.0,0.0,0.0,0.0,0.0,0.0,0.0,3.8175,4.0239,4.183,4.2106,4.2469,4.2551,4.2162,4.2798,4.3244,4.312,0.0,4.4856,4.5205,4.5662,4.6061,4.6418,4.7108,4.7675,4.7922,4.8945,4.973,4.9739,5.028,5.0739,5.0757,5.0664,5.0652,5.0908,5.0091,4.9085,4.8245,4.7951,4.8086,4.855,4.9073,4.963,4.9834,4.9469,4.5234,4.3862,4.453,4.5417,4.6197,4.6884,4.6884,4.6434,4.5698,4.568,4.478,4.3293,4.3293,0.0,4.4339,4.5196,4.5927,4.6643,4.7414,4.8194,4.8899,4.9491,5.0188,5.0885,5.0824,5.0703,5.0529,4.9793,4.9346,4.901,4.6121,4.4898,4.5413,4.6086,4.7445,4.9489,5.0247,5.1003,5.1654,5.0827,4.9994,4.9195,4.832,4.7493,4.6607,4.5782,4.5011,4.416,4.2027,4.0373,3.948,0.0,0.0,0.0,0.0,0.0,0.0,0.0,0.0,0.0,0.0,0.0,0.0,0.0,0.0,0.0,3.7916,0.0,3.8884,3.828,0.0,0.0,0.0,3.8155,3.8817,3.9717,4.0543,4.1222,0.0,0.0,4.38,4.5342,4.6128,4.5528,4.5888,4.6214,4.619,4.7366,4.8339,4.8111,4.8178,4.8134,4.8029,4.8571,4.9289,4.9923,5.0706,5.1045,5.1052,5.1616,5.212,5.2156,5.2082,5.2261,5.3026,5.287,5.2266,5.0077,4.9696,4.9679,4.9857,5.0756,5.1578,5.1164,5.1106,4.9465,4.8661,4.8476,4.9416,4.9898,5.0101,5.0192,4.941,4.8088,4.8088,4.7177,4.5685,4.5685,4.5765,4.5969,4.6787,4.7203,4.7432,4.8787,4.9473,4.9528,5.0243,5.0701,5.0824,5.0684,5.0643,5.0584,5.0216,4.9689,4.9065,4.8116,4.7409,4.697,4.7553,4.8388,4.946,5.0199,5.0855,5.1538,5.1207,5.0394,4.8994,4.8717,4.7894,4.6482,4.561,4.5088,4.4829,4.3212,4.1885,4.1078,3.8831,0.0,0.0,0.0,0.0,0.0,0.0,0.0,0.0,0.0,3.3172,3.3313,0.0,3.5795,0.0,3.8683,3.9619,3.9619,3.9485,0.0,0.0,3.9656,4.0322,4.0543,4.2341,4.3387,4.2965,4.4193,4.5368,4.6155,4.7167,4.82,4.9212,4.855,4.7848,4.7801,4.8535,4.9102,4.9054,4.9409,4.9646,4.9633,5.0123,5.0832,5.1598,5.1802,5.1838,5.1814,5.2382,5.2852,5.2906,5.3202,5.3522,5.3616,5.3631,5.3371,5.2727,5.2625,5.2714,5.2731,5.2963,5.3105,5.2763,5.2409,5.2105,5.1597,5.0955,5.1056,5.108,5.1062,5.1213,5.075,4.9915,4.9969,4.9336,4.8184,4.8519,4.8481,4.8203,4.893,4.923,4.925,5.0028,5.0523,5.0796,5.1176,5.154,5.1765,5.1705,5.1603,5.1474,5.1326,5.102,5.0506,5.0308,4.9757,4.8938,4.8496,4.8626,4.9335,5.0004,5.0688,5.1367,5.1316,5.0275,4.8402,4.8232,4.7234,4.5286,4.4751,4.4318,4.4015,4.3144,4.2384,4.1622,3.9726,3.8286,0.0,0.0,0.0,0.0,0.0,0.0,0.0,0.0,0.0,0.0,0.0,3.7668,3.8982,4.0561,4.1497,4.1479,4.1497,4.146,4.1405,4.2176,4.2855,4.3204,4.4764,4.5608,4.5168,4.6526,4.7701,4.8182,4.9231,5.0296,5.1228,5.0875,5.0354,4.9971,5.0209,5.0501,5.0721,5.1035,5.122,5.1086,5.1692,5.226,5.2566,5.286,5.3035,5.2964,5.3253,5.3506,5.3524,5.3742,5.4046,5.4258,5.4296,5.429,5.4582,5.4617,5.4396,5.3868,5.3883,5.402,5.4125,5.3544,5.3622,5.332,5.2589,5.1621,5.1191,5.114,5.1277,5.132,5.1324,5.138,5.0971,5.0359,5.1046,5.0971,5.0377,5.0917,5.1176,5.1156,5.1095,5.14,5.2081,5.2128,5.2425,5.298,5.2937,5.285,5.2608,5.2563,5.2444,5.2311,5.215,5.1646,5.0814,4.9406,4.89,4.9177,4.9756,5.0431,5.1121,5.0894,4.9678,4.753,4.7307,4.6137,4.382,4.3715,4.3418,4.2771,4.2632,4.2363,4.1858,4.0403,3.9298,0.0,3.7356,0.0,0.0,0.0,0.0,0.0,0.0,0.0,0.0,3.878,3.963,4.1409,4.2837,4.3681,4.3773,4.3791,4.4085,4.4782,4.4966,4.5296,4.5993,4.6783,4.7315,4.7425,4.871,4.963,4.991,5.1158,5.1981,5.2142,5.2493,5.2455,5.204,5.1828,5.1992,5.2563,5.2654,5.2554,5.2508,5.3034,5.346,5.335,5.3691,5.41,5.3956,5.4028,5.4135,5.4135,5.4171,5.4348,5.4987,5.5001,5.5136,5.5605,5.5618,5.5195,5.4303,5.4317,5.4609,5.4179,5.4036,5.4205,5.4165,5.3968,5.3237,5.2754,5.2437,5.2632,5.243,5.1885,5.1357,5.1044,5.0953,5.1176,5.112,5.0953,5.112,5.11,5.0964,5.1587,5.1934,5.2055,5.2572,5.2895,5.2999,5.2787,5.2635,5.259,5.2444,5.234,5.2311,5.2071,5.175,5.1422,0.0,0.0,0.0,4.9586,5.0011,5.0152,4.9398,4.817,4.652,4.6368,0.0,4.382,4.362,4.3519,4.3411,4.2788,0.0,0.0,0.0,0.0,0.0,0.0,0.0,0.0,0.0,0.0,0.0,4.1661,4.1017,3.9553,4.0705,4.2252,4.3864,4.4305,4.4745,4.5388,4.5443,4.5498,4.5663,4.6269,4.6728,4.6911,4.7609,4.8343,4.904,4.9407,5.0108,5.1308,5.1842,5.2238,5.2681,5.2886,5.286,5.249,5.2399,5.2472,5.2608,5.2987,5.332,5.3279,5.374,5.4084,5.4011,5.3992,5.41,5.4135,5.451,5.483,5.4793,5.5162,5.5458,5.5578,5.5517,5.5512,5.5549,5.5584,5.5461,5.5336,5.5273,5.5279,5.4848,0.0,5.4563,5.4384,0.0,5.3788,5.3594,5.3358,5.3008,5.2724,5.2527,5.2287,5.198,5.1611,5.2135,5.2079,5.1708,5.2077,5.2164,5.214,5.2867,5.3151,5.3121,5.3847,5.4125,5.3991,5.3836,5.3697,5.3603,5.3478,5.3351,5.3253,5.3103,5.2934,5.2677,5.2537,5.1812,5.0558,5.0436,5.0559,5.0893,5.0012,4.8802,4.7331,0.0,0.0,0.0,0.0,0.0,0.0,0.0,0.0,0.0,0.0,0.0,4.2763,4.2043,4.1851,4.2501,4.2665,4.3036,4.3719,4.3996,4.352,4.2084,4.3265,4.4599,4.5773,4.5902,4.6214,4.6985,4.7095,4.7076,4.7113,4.7462,4.7847,4.8288,4.8691,4.9279,5.0068,5.0527,5.1118,5.1805,5.2279,5.2577,5.285,5.2862,5.2754,5.2627,5.2608,5.2672,5.3034,5.3621,5.396,5.3942,5.4375,5.4742,5.4706,5.4932,5.5056,5.5079,5.5253,5.5446,5.5482,5.5671,5.5746,5.5746,5.5648,5.5566,5.5507,5.5525,5.5525,5.5607,5.5566,5.5448,5.5564,5.4998,5.5016,5.4626,5.4007,5.4082,5.4047,5.3938,0.0,0.0,0.0,5.3531,5.3175,5.2459,5.3285,5.3252,5.2699,5.3226,5.3594,5.3718,5.4314,5.4514,5.4462,5.5039,5.5212,5.5007,5.4978,5.4834,5.4571,5.4589,5.4511,5.4414,5.4381,5.4295,5.4134,5.3876,5.3447,5.2722,5.161,5.1257,5.1696,5.085,4.9604,4.8085,4.7926,4.6882,4.4801,4.4663,4.4352,4.3712,4.3677,4.3776,4.4004,4.3493,4.3226,4.3331,4.278,4.2783,4.3669,4.3872,4.4357,4.5318,4.5848,4.5703,4.4892,4.5571,4.6378,4.7184,4.7296,4.7571,4.8212,4.8306,4.8379,4.8508,4.8526,4.8857,4.9646,4.9793,5.0065,5.0853,5.1495,5.1958,5.1999,5.254,5.2926,5.2779,5.2645,5.2661,5.2717,5.279,5.3005,5.3574,5.4254,5.4652,5.4593,5.5085,5.5465,5.5437,5.5801,5.6191,5.6103,5.5993,5.5861,5.5808,5.5764,5.5648,5.5666,5.5549,5.5525,5.5525,5.563,5.5701,5.5718,5.5823,5.5852,5.5865,5.5759,5.5759,5.5688,5.5547,5.4909,5.4364,5.3869,5.4169,5.4345,5.4375,5.468,5.4318,5.3609,5.4092,5.4161,5.3964,5.4209,5.4675,5.5287,5.5265,5.5231,5.5231,5.5111,5.5054,5.5007,5.4919,5.4822,5.4639,5.4575,5.4748,5.5167,5.4991,5.5056,5.5394,5.5291,5.5045,5.4734,5.27,5.1371,5.0815,4.9916,4.8675,4.7213,4.7054,4.6516,4.5459,4.5338,4.5216,4.5113,4.5096,4.52,4.5286,4.5352,4.5384,4.5551,4.5527,4.5703,4.6094,4.6234,4.6516,4.697,4.7757,4.7753,4.6585,4.657,4.701,4.7776,4.8002,4.8098,4.8226,4.832,4.8691,4.9297,4.9407,4.9719,5.0527,5.0519,5.079,5.1535,5.1615,5.1968,5.2517,5.2729,5.2789,5.2663,5.2604,5.2708,5.3129,5.3321,5.3598,5.4219,5.4871,5.5197,5.5289,5.5794,5.6116,5.609,5.6067,5.6099,5.5936,5.5822,5.5706,5.5706,5.5607,5.5566,5.5566,5.5507,5.5578,5.563,5.6017,5.642,5.6473,5.6929,5.7149,5.6899,5.6846,5.65,5.6306,5.6253,5.5588,5.5154,5.4967,5.5169,5.4953,5.4439,5.467,5.4617,5.4404,5.4619,5.4711,5.4756,5.4828,5.5074,5.5414,5.5761,5.5897,5.5877,5.6146,5.6267,5.62,5.6088,5.5938,5.58,5.5682,5.5722,5.5938,5.5628,5.5582,5.5689,5.5472,5.5277,5.5147,5.3801,5.2817,5.23,5.1037,4.9968,4.9257,4.8816,4.8135,4.7341,4.7269,4.7079,4.6682,4.6665,4.6719,4.6826,4.6968,4.7108,4.7264,4.7348,4.7518,4.77,4.8009,4.8229,4.8386,4.8892,4.9,4.8453,4.8551,4.8839,4.9268,4.9364,4.9405,4.9405,4.9446,4.9592,5.0017,5.0053,5.0383,5.1078,5.1201,5.1469,5.2199,5.2302,5.2393,5.2638,5.2662,5.2599,5.2485,5.2714,5.3109,5.3608,5.4092,5.452,5.4896,5.5558,5.5936,5.5955,5.6128,5.628,5.6209,5.606,5.5928,5.5782,5.5666,5.5607,5.5607,5.5507,5.5525,5.5543,5.5859,5.6034,5.6174,5.6726,5.7166,5.7316,5.7816,5.8059,5.7807,5.7737,5.714,5.6859,5.6806,5.617,5.5953,5.6051,5.5914,5.534,5.4616,5.4858,5.4972,5.4891,5.5088,5.5232,5.5374,5.5421,5.553,5.5814,5.635,5.6576,5.6534,5.7066,5.7397,5.7391,5.7325,5.7259,5.728,5.7191,5.6921,5.654,5.6064,5.5822,5.5648,5.5319,5.5182,5.5104,5.458,5.4094,5.3748,5.2424,5.162,5.1222,5.0604,4.989,4.9148,4.9079,4.8821,4.8286,4.8234,4.8204,4.8124,4.8199,4.8292,4.8295,4.8365,4.8521,4.8725,4.9025,4.9221,4.9221,4.9591,4.9823,4.9887,5.028,5.0434,5.0275,5.0173,5.0253,5.0259,5.0277,5.0447,5.0593,5.063,5.0976,5.1668,5.1788,5.1962,5.2581,5.2672,5.2572,5.2499,5.2435,5.2419,5.2551,5.2992,5.3575,5.4135,5.4759,5.5169,5.5562,5.608,5.6313,5.631,5.6205,5.6122,5.6099,5.587,5.5754,5.5683,5.5566,5.5507,5.5525,5.5683,5.5806,5.5841,5.6368,5.6789,5.6929,5.7499,5.8141,5.8351,5.8727,5.894,5.7825,5.7807,5.7737,5.7684,5.7579,5.6842,5.655,5.6463,5.5948,5.5653,5.5574,5.6041,5.5777,5.5258,5.5569,5.5803,5.5934,5.6049,5.6528,5.7207,5.734,5.7279,5.7279,5.727,5.7518,5.8065,5.8085,5.8286,5.8624,5.8713,5.8149,5.7038,5.6175,5.5719,5.5543,5.5312,5.5156,5.4992,5.4817,5.4408,5.3636,5.3358,5.2528,5.1149,5.1045,5.0666,4.9942,4.9907,4.9873,4.9804,4.9752,4.9459,4.8821,4.883,4.8685,4.8205,4.8277,4.8417,4.8692,4.8844,4.8997,4.8997,4.9685,5.0208,5.0423,5.1079,5.1029,5.016,4.9947,5.0127,5.0126,5.025,5.0664,5.1333,5.1362,5.1627,5.2263,5.2317,5.2297,5.2351,5.2275,5.2155,5.2271,5.2264,5.2382,5.2758,5.3405,5.3976,5.4451,5.4768,5.5104,5.5603,5.5931,5.595,5.5978,5.5936,5.591,5.5799,5.5724,5.566,5.5578,5.5553,5.556,5.5939,5.6139,5.643,5.6666,5.7122,5.7667,5.7772,5.8281,5.9063,5.9633,5.9843,5.9751,5.9159,5.9106,5.8685,5.8228,5.779,5.7438,5.7316,5.7228,5.6533,5.6258,5.6188,5.6074,5.5928,5.581,5.6063,5.6204,5.6361,5.6515,5.678,5.7239,5.7206,5.7442,5.7927,5.7964,5.8296,5.8861,5.8808,5.8862,5.8946,5.8813,5.833,5.7677,5.7222,5.6944,5.6685,5.6082,5.567,5.5546,5.4925,5.4482,5.4091,5.3615,5.3115,5.2494,5.2028,5.1425,5.0752,5.0666,5.0459,5.0062,5.0011,4.9873,4.9545,4.9625,4.9582,4.9382,4.955,4.9766,4.9996,5.0136,5.0188,5.0205,5.0592,5.0872,5.0957,5.1378,5.1337,5.0937,5.1018,5.1225,5.1254,5.1318,5.1491,5.1808,5.1834,5.1961,5.225,5.2228,5.2198,5.218,5.2054,5.2179,5.2576,5.2892,5.3103,5.3336,5.3921,5.4485,5.456,5.4891,5.5238,5.5349,5.5373,5.553,5.5769,5.5719,5.5695,5.5584,5.5437,5.5312,5.5811,5.5863,5.6003,5.6536,5.6869,5.714,5.7096,5.7726,5.8304,5.8489,5.899,5.9738,6.0036,6.0089,6.0025,6.0089,6.0001,5.951,5.8983,5.8421,5.8211,5.8141,5.8035,5.728,5.6929,5.6877,5.6469,5.6417,5.6595,5.6375,5.6328,5.6492,5.6653,5.6867,5.7205,5.7275,5.7812,5.8621,5.8694,5.9004,5.9565,5.9509,5.9468,5.9402,5.8957,5.8574,5.8315,5.8061,5.7772,5.7454,5.6795,5.6425,5.6166,5.5455,5.5029,5.4787,5.4287,5.3822,5.3408,5.2839,5.2201,5.1459,5.1218,5.0873,5.0355,5.0114,5.0011,4.9993,5.0109,5.0206,5.0246,5.0492,5.0675,5.0891,5.0998,5.1052,5.1052,5.1141,5.1193,5.1246,5.1368,5.1402,5.147,5.174,5.1902,5.2054,5.2054,5.2054,5.2084,5.2246,5.2377,5.2395,5.2471,5.2588,5.2534,5.2595,5.2559,5.3092,5.3585,5.3911,5.3914,5.4423,5.4878,5.4665,5.4986,5.5234,5.5053,5.5,5.5147,5.5572,5.5501,5.5426,5.5601,5.5506,5.5706,5.6227,5.6425,5.6484,5.7025,5.7479,5.7793,5.7845,5.8387,5.8875,5.9027,5.9488,5.9955,6.0001,6.0054,6.0089,6.0089,6.0089,6.0054,5.9966,5.9914,5.9229,5.8948,5.8895,5.8105,5.7754,5.7754,5.7649,5.7667,5.7587,5.6546,5.6103,5.6233,5.6453,5.701,5.7747,5.7998,5.8572,5.9312,5.9348,5.9709,6.0282,6.0206,6.0242,6.0594,5.981,5.931,5.9109,5.8325,5.7798,5.7629,5.7387,5.7173,5.6945,5.6646,5.6288,5.565,5.5512,5.4787,5.3667,5.3373,5.2977,5.2218,5.1511,5.1097,5.1045,5.0407,5.0045,5.0011,5.0011,5.0092,5.0359,5.0509,5.0657,5.0873,5.0891,5.0891,5.0891,5.0945,5.0998,5.1105,5.1158,5.1264,5.1454,5.1505,5.1658,5.1947,5.205,5.2064,5.2197,5.2691,5.3,5.3053,5.3367,5.3656,5.362,5.3496,5.3477,5.3583,5.4095,5.4384,5.4494,5.4893,5.5137,5.5042,5.5044,5.4974,5.4992,5.5009,5.4992,5.507,5.5235,5.5452,5.5782,5.606,5.6252,5.6836,5.7271,5.7306,5.7498,5.7955,5.8303,5.8507,5.8851,5.9282,5.9487,5.9569,5.9826,5.9873,5.999,6.0089,6.0089,6.0089,6.0089,6.0089,6.0054,5.9808,5.9703,5.9633,5.8895,5.8579,5.8474,5.8053,5.7807,5.7754,5.7349,5.7205,5.7382,5.7615,5.8003,5.8366,5.8607,5.9203,5.9942,6.0069,6.0372,6.0866,6.0898,6.079,6.0643,6.0247,5.9937,5.9714,5.9324,5.8992,5.8746,5.8216,5.7777,5.751,5.7047,5.665,5.6357,5.5891,5.5322,5.4822,5.4356,5.377,5.2994,5.2718,5.2132,5.1149,5.0856,5.0493,5.0062,5.0011,5.0109,5.0359,5.0453,5.0582,5.0819,5.0891,5.0891,5.0891,5.0891,5.0945,5.1016,5.107,5.1176,5.1264,5.142,5.1734,5.2266,5.2475,5.2577,5.2716,5.3238,5.3617,5.3618,5.3727,5.378,5.3761,5.392,5.4131,5.4243,5.4665,5.508,5.4968,5.5084,5.5104,5.4992,5.4904,5.4824,5.4787,5.4972,5.5236,5.5236,5.5381,5.5588,5.6077,5.6408,5.6604,5.7051,5.7359,5.7445,5.806,5.8594,5.8646,5.8749,5.8935,5.9366,5.9418,5.952,5.9666,5.9796,5.9861,6.0008,5.9914,5.9914,5.9914,5.9961,6.0008,6.0008,6.0025,6.0036,5.958,5.9369,5.9247,5.8773,5.8527,5.8544,5.8544,5.8589,5.8624,5.8461,5.8574,5.8904,5.9188,5.9788,6.0547,6.0693,6.0924,6.1257,6.1176,6.0956,6.0565,6.0458,6.0234,6.0008,5.9861,5.9683,5.9433,5.8866,5.8472,5.815,5.7771,5.7443,5.715,5.665,5.6081,5.5632,5.5132,5.4529,5.3787,5.3529,5.2959,5.1959,5.1407,5.0769,5.0097,5.0011,5.0109,5.0302,5.0359,5.0526,5.0747,5.0873,5.0891,5.0891,5.0891,5.0891,5.0891,5.0998,5.1052,5.1194,5.1529,5.2041,5.2625,5.3228,5.3476,5.3421,5.3886,5.4278,5.4224,5.4364,5.4378,5.4373,5.4603,5.4719,5.474,5.5174,5.5343,5.5199,5.5199,5.5035,5.4842,5.4735,5.4776,5.4839,5.5159,5.5678,5.6007,5.6314,5.6297,5.6677,5.6848,5.7038,5.7242,5.7464,5.7842,5.8548,5.8892,5.8961,5.9047,5.9115,5.915,5.9202,5.9353,5.9485,5.96,5.9796,5.9879,5.9638,5.9621,5.9603,5.9718,5.9814,5.9796,5.9943,6.0025,6.0054,5.992,5.9867,5.9966,5.9843,5.9966,5.9826,5.9966,5.9731,5.8765,5.8719,5.9448,5.9799,6.0349,6.1185,6.1203,6.1145,6.127,6.0921,6.0714,6.0441,6.0396,6.0171,5.9879,5.9796,5.9635,5.9301,5.9232,5.9114,5.8909,5.8737,5.8547,5.7995,5.7704,5.7015,5.5861,5.5568,5.5201,5.4529,5.3839,5.3425,5.3149,5.1994,5.0838,5.0235,5.0097,5.0103,5.0189,5.0359,5.0436,5.0602,5.0801,5.0891,5.0891,5.0891,5.0891,5.0891,5.0891,5.098,5.1263,5.174,5.2342,5.2963,5.4011,5.4581,5.4207,5.4581,5.5006,5.5038,5.5384,5.5631,5.5408,5.5391,5.5472,5.549,5.5431,5.5389,5.5217,5.5096,5.493,5.4814,5.4758,5.4891,5.5292,5.5713,5.6181,5.6765,5.7346,5.7242,5.7259,5.7293,5.7411,5.7769,5.8024,5.7973,5.8544,5.8614,5.8684,5.8771,5.884,5.8944,5.8978,5.9149,5.9369,5.9551,5.9748,5.9879,6.0091,5.9638,5.9621,5.9603,5.9652,5.9652,5.9718,5.9718,5.9735,5.9783,5.9879,5.9879,5.9943,6.0089,6.0089,6.0089,6.0036,5.9643,5.9761,6.0184,6.0385,6.0731,6.1099,6.1152,6.1075,6.0938,6.0775,6.0547,6.0396,6.0252,6.0025,5.9796,5.9683,5.952,5.9319,5.9166,5.903,5.8909,5.884,5.8633,5.8307,5.7741,5.7227,5.673,5.5939,5.5317,5.5077,5.45,5.3942,5.3442,5.2959,5.2114,5.1045,5.0769,5.0569,5.0258,5.0302,5.0436,5.0602,5.0801,5.0891,5.0891,5.0891,5.0891,5.0891,5.0926,5.1154,5.1595,5.2056,5.2605,5.379,5.4467,5.479,5.4723,5.5344,5.5659,5.549,5.5507,5.5531,5.5525,5.5525,5.5525,5.5466,5.5424,5.5244,5.5113,5.4948,5.4842,5.4724,5.5024,5.5241,5.5455,5.6061,5.6696,5.7174,5.7528,5.7593,5.7576,5.7593,5.761,5.7984,5.8188,5.8188,5.826,5.8402,5.8419,5.849,5.8631,5.8736,5.8806,5.903,5.9234,5.9502,5.97,5.9831,6.0513,5.9854,5.9837,5.9646,5.9488,5.947,5.9537,5.9621,5.9621,5.9652,5.97,5.97,5.9766,5.9896,5.9961,6.0008,6.0008,6.0089,6.0234,6.0503,6.0653,6.0836,6.0956,6.1016,6.0896,6.0696,6.0609,6.0441,6.0315,6.0089,5.9896,5.97,5.9586,5.9386,5.9234,5.9081,5.8944,5.8857,5.8788,5.8701,5.8458,5.8012,5.7619,5.7243,5.6491,5.5907,5.5458,5.4991,5.4517,5.3908,5.3563,5.2787,5.1666,5.1511,5.1363,5.1008,5.0818,5.0815,5.0893,5.0867,5.0819,5.0891,5.0891,5.1049,5.1207,5.1312,5.1645,5.2295,5.279,5.3429,5.4367,5.4952,5.5154,5.5228,5.5674,5.5879,5.5666,5.5566,5.5525,5.5525,5.5525,5.5525,5.5466,5.5304,5.5122,5.5009,5.4886,5.4925,5.4954,5.5322,5.5589,5.6007,5.6713,5.7157,5.7494,5.7725,5.787,5.787,5.7819,5.7785,5.792,5.8027,5.8027,5.8027,5.8116,5.8171,5.8188,5.849,5.8684,5.8771,5.8909,5.9166,5.9436,5.9586,5.9735,6.0927,6.0289,6.0254,5.9961,5.9475,5.944,5.9473,5.9537,5.9537,5.9537,5.9603,5.9603,5.9603,5.9669,5.9766,5.9866,5.9949,6.0118,6.0452,6.0695,6.0883,6.1087,6.1227,6.1227,6.1201,6.0963,6.0758,6.0561,6.0493,6.0206,5.9836,5.9743,5.9522,5.9234,5.9081,5.9012,5.8892,5.8788,5.8718,5.8631,5.8419,5.8368,5.8078,5.7413,5.7174,5.6679,5.5806,5.5458,5.5042,5.4529,5.3839,5.3201,5.2477,5.2287,5.2252,5.2028,5.1654,5.1494,5.1442,5.128,5.1062,5.1259,5.1294,5.1277,5.1961,5.2102,5.24,5.3155,5.3734,5.4284,5.4715,5.523,5.5601,5.5689,5.5671,5.5666,5.5507,5.5525,5.5525,5.5525,5.5525,5.5507,5.5448,5.5287,5.5148,5.5009,5.4842,5.4931,5.5421,5.5723,5.6312,5.6848,5.7312,5.753,5.7831,5.7755,5.7881,5.7881,5.7881,5.7881,5.7881,5.7881,5.7881,5.7954,5.7954,5.7954,5.8027,5.8331,5.849,5.8631,5.884,5.9183,5.9386,5.9537,5.9718,6.172,6.103,6.1013,6.0565,6.0013,5.9961,5.9616,5.9218,5.9183,5.9286,5.9386,5.9386,5.9488,5.9621,5.9638,6.0014,6.0565,6.0753,6.1253,6.187,6.2181,6.2372,6.2577,6.2542,6.2336,6.2082,6.1929,6.2023,6.1739,6.0981,6.0538,6.0386,5.9646,5.9183,5.9012,5.8892,5.8771,5.8561,5.8419,5.826,5.8099,5.8116,5.7942,5.7738,5.7372,5.7,5.6542,5.584,5.5128,5.4598,5.4356,5.3873,5.3166,5.308,5.2873,5.2373,5.2218,5.2223,5.2364,5.2271,5.2354,5.2576,5.2418,5.2664,5.2822,5.2874,5.326,5.3857,5.4244,5.4577,5.5127,5.5443,5.5549,5.5549,5.5566,5.5566,5.5507,5.5525,5.5525,5.5525,5.5525,5.5431,5.5294,5.5166,5.5,5.4859,5.4821,5.4937,5.5598,5.624,5.6828,5.7278,5.7704,5.7868,5.8014,5.7903,5.7881,5.7881,5.7881,5.7881,5.7881,5.7881,5.7881,5.7881,5.7881,5.7881,5.8027,5.826,5.8331,5.849,5.8909,5.9251,5.952,5.9652,5.9831,6.2496,6.1789,6.1806,6.1358,6.0703,6.0651,6.022,5.9599,5.9513,5.9374,5.9235,5.9149,5.9424,5.9804,5.9974,6.0526,6.1288,6.1407,6.1835,6.2402,6.2999,6.3176,6.319,6.3055,6.2882,6.2687,6.2639,6.2455,6.2168,6.1666,6.1133,6.0529,5.9994,5.9426,5.9012,5.884,5.8718,5.849,5.826,5.8116,5.7881,5.7881,5.7881,5.7831,5.7586,5.7386,5.7121,5.6354,5.5455,5.4724,5.4477,5.4305,5.3942,5.3873,5.3632,5.3184,5.303,5.2961,5.307,5.2979,5.2944,5.3116,5.3173,5.3366,5.3559,5.3664,5.398,5.4682,5.4788,5.5051,5.5367,5.5525,5.5525,5.5525,5.5525,5.5525,5.5525,5.5525,5.5525,5.5507,5.5431,5.5354,5.5199,5.5026,5.4938,5.4884,5.5,5.5438,5.6046,5.6705,5.7276,5.7758,5.7924,5.8001,5.7993,5.7937,5.7881,5.7881,5.7881,5.7881,5.7881,5.7881,5.7881,5.7881,5.7881,5.7954,5.8099,5.826,5.849,5.8701,5.9047,5.9336,5.9537,5.9766,5.9879,6.3203,6.2599,6.2599,6.2151,6.1496,6.141,6.0996,6.0392,6.0306,5.9944,5.9495,5.9306,5.9789,6.0306,6.0549,6.1068,6.1987,6.2125,6.2501,6.2951,6.3502,6.3789,6.3559,6.3412,6.3198,6.3097,6.2736,6.2691,6.254,6.2282,6.1571,6.0895,6.0497,5.9823,5.9271,5.8926,5.8701,5.849,5.826,5.8044,5.7954,5.7881,5.7881,5.7865,5.7848,5.7607,5.7293,5.6764,5.6074,5.4839,5.4684,5.4598,5.4546,5.4477,5.4443,5.4305,5.3804,5.3618,5.3835,5.3443,5.3177,5.3554,5.3594,5.3682,5.4279,5.4454,5.47,5.5279,5.5507,5.5455,5.549,5.5525,5.5525,5.5525,5.5525,5.5525,5.5525,5.5525,5.5507,5.5431,5.5277,5.5199,5.5096,5.493,5.4832,5.515,5.5317,5.5822,5.6446,5.712,5.7724,5.8236,5.8229,5.8048,5.8027,5.7881,5.7881,5.7881,5.7881,5.7881,5.7881,5.7881,5.7881,5.7881,5.7881,5.7954,5.8116,5.8331,5.8561,5.884,5.9183,5.9371,5.9606,5.9783,5.9943,6.3513,6.3358,6.3341,6.2927,6.2289,6.222,6.1789,6.1065,6.1065,6.0944,6.0806,6.0771,6.0875,6.1065,6.1187,6.1691,6.2701,6.2858,6.3309,6.4436,6.4406,6.4594,6.4517,6.438,6.4365,6.4195,6.4179,6.4025,6.3764,6.3049,6.2596,6.2073,6.0894,6.0116,5.9822,5.908,5.8561,5.8402,5.8188,5.7954,5.7954,5.7881,5.7881,5.7881,5.7881,5.7725,5.7413,5.7158,5.6849,5.6343,5.5736,5.5253,5.4736,5.4581,5.4563,5.4477,5.4391,5.4361,5.4635,5.4487,5.459,5.4782,5.4805,5.5069,5.5191,5.5209,5.5297,5.5507,5.5525,5.5525,5.5525,5.5525,5.5525,5.5525,5.5525,5.5525,5.5525,5.5525,5.5431,5.5277,5.5199,5.5139,5.4948,5.4842,5.4942,5.53,5.5753,5.6288,5.6911,5.7517,5.8015,5.8473,5.826,5.8116,5.7954,5.7881,5.7881,5.7881,5.7881,5.7881,5.7881,5.7881,5.7881,5.7881,5.7881,5.8027,5.8188,5.8419,5.8648,5.8909,5.9251,5.9488,5.9704,5.9896,6.0008,6.36,6.36,6.36,6.3358,6.3031,6.2979,6.2565,6.1961,6.1858,6.1634,6.1358,6.1306,6.1513,6.1841,6.1892,6.2487,6.3414,6.3747,6.4147,6.4704,6.4706,6.4775,6.4843,6.4861,6.4792,6.4724,6.4602,6.4481,6.4148,6.3745,6.315,6.2606,6.1671,6.0892,6.0201,5.9404,5.8832,5.8453,5.8099,5.7881,5.7881,5.7881,5.7881,5.7881,5.7881,5.7878,5.7856,5.7875,5.7672,5.7275,5.6891,5.615,5.5236,5.5012,5.4891,5.4563,5.4512,5.47,5.493,5.5035,5.5079,5.5431,5.5525,5.5525,5.5525,5.5525,5.5525,5.5525,5.5525,5.5525,5.5525,5.5525,5.5525,5.5525,5.5525,5.5525,5.5507,5.5431,5.5336,5.5199,5.5079,5.4992,5.4859,5.4769,5.5063,5.545,5.6167,5.6719,5.7359,5.7912,5.8117,5.8351,5.8171,5.8027,5.7954,5.7881,5.7881,5.7881,5.7881,5.7881,5.7881,5.7881,5.7881,5.7881,5.7954,5.8188,5.8348,5.849,5.8771,5.9115,5.9386,5.9603,5.9801,5.9896,6.0025,6.3703,6.36,6.36,6.36,6.36,6.3565,6.322,6.2703,6.2651,6.2324,6.1772,6.1651,6.2186,6.2548,6.2634,6.3266,6.3989,6.4463,6.4671,6.4706,6.4724,6.4706,6.4706,6.4706,6.4706,6.4637,6.4481,6.4358,6.418,6.3947,6.3439,6.281,6.2479,6.1789,6.0664,5.9833,5.9276,5.8689,5.8201,5.7881,5.7881,5.7881,5.7881,5.7881,5.7881,5.8099,5.83,5.8353,5.8288,5.8048,5.8081,5.7288,5.6357,5.577,5.546,5.4787,5.477,5.481,5.4921,5.4992,5.5113,5.5431,5.5507,5.5525,5.5525,5.5525,5.5525,5.5525,5.5525,5.5525,5.5525,5.5525,5.5525,5.5525,5.5525,5.5507,5.5431,5.5277,5.5199,5.5139,5.4992,5.4842,5.4821,5.4845,5.5191,5.5657,5.6457,5.7202,5.7842,5.8204,5.8374,5.8351,5.8171,5.8027,5.7881,5.7881,5.7881,5.7881,5.7881,5.7881,5.7881,5.7881,5.7881,5.7954,5.8044,5.826,5.8473,5.8614,5.8892,5.9251,5.9502,5.9718,5.9849,5.9961,6.0025,6.4152,6.36,6.36,6.36,6.36,6.36,6.3513,6.3427,6.3358,6.3341,6.3169,6.3203,6.3169,6.3358,6.341,6.3733,6.418,6.4516,6.4706,6.4706,6.4706,6.4706,6.4706,6.4637,6.4637,6.4463,6.4393,6.4287,6.418,6.3965,6.3626,6.3345,6.2824,6.2165,6.1504,6.0515,5.9596,5.9043,5.84,5.8,5.7881,5.7881,5.7881,5.7881,5.7881,5.8116,5.8419,5.849,5.8632,5.8789,5.884,5.8305,5.7564,5.6926,5.6288,5.5632,5.5443,5.5334,5.5189,5.5069,5.5088,5.5217,5.5501,5.556,5.556,5.5525,5.5525,5.5525,5.5525,5.5525,5.5525,5.5525,5.5525,5.5525,5.5448,5.5431,5.5294,5.5156,5.5053,5.5053,5.4886,5.4821,5.4931,5.5196,5.5697,5.6314,5.7044,5.7754,5.841,5.8479,5.8458,5.8331,5.8188,5.8027,5.7881,5.7881,5.7881,5.7881,5.7881,5.7881,5.7881,5.7881,5.7954,5.8027,5.8116,5.8277,5.8561,5.8771,5.9098,5.9453,5.9635,5.9814,5.9961,6.0107,6.0107,6.4496,6.4152,6.3755,6.36,6.36,6.36,6.36,6.36,6.36,6.36,6.36,6.36,6.36,6.36,6.36,6.382,6.418,6.4516,6.4706,6.4706,6.4706,6.4706,6.4706,6.4637,6.4481,6.434,6.4217,6.4091,6.4054,6.3837,6.3673,6.3513,6.3186,6.282,6.2186,6.1297,6.0262,5.9497,5.8733,5.8254,5.7932,5.7898,5.7881,5.7881,5.7954,5.8116,5.8419,5.849,5.8684,5.8927,5.8995,5.8806,5.8461,5.8064,5.7409,5.6495,5.6236,5.6163,5.601,5.605,5.629,5.6388,5.6212,5.6087,5.5964,5.5806,5.5578,5.5525,5.5525,5.5525,5.5525,5.5525,5.5525,5.5507,5.5466,5.5312,5.5234,5.5009,5.5052,5.5043,5.4821,5.4966,5.5248,5.5598,5.6267,5.694,5.7581,5.8254,5.8944,5.8754,5.8561,5.8348,5.8188,5.7954,5.7881,5.7881,5.7881,5.7881,5.7881,5.7881,5.7954,5.7954,5.8027,5.8099,5.826,5.8627,5.8682,5.8978,5.9303,5.9603,5.9766,5.9896,6.0025,6.0171,6.0304,6.4841,6.4634,6.391,6.36,6.36,6.36,6.36,6.36,6.3526,6.3526,6.36,6.3526,6.3526,6.36,6.3747,6.3965,6.4251,6.4568,6.4706,6.4706,6.4706,6.4706,6.4637,6.4498,6.4411,6.4287,6.4109,6.391,6.391,6.3747,6.36,6.3582,6.3565,6.3193,6.2438,6.193,6.0887,6.0102,5.9309,5.8829,5.8287,5.7966,5.7881,5.7881,5.7881,5.8116,5.849,5.849,5.8701,5.8875,5.9012,5.8995,5.8995,5.8995,5.8443,5.746,5.7133,5.7009,5.6932,5.7057,5.7108,5.7182,5.7018,5.6912,5.6666,5.628,5.5736,5.5578,5.5525,5.5525,5.5525,5.5525,5.5448,5.5483,5.5434,5.5418,5.5436,5.5452,5.5525,5.541,5.5041,5.5115,5.5529,5.634,5.6978,5.7372,5.7995,5.8392,5.8909,5.8823,5.8561,5.8348,5.8205,5.7954,5.7881,5.7881,5.7881,5.7881,5.7881,5.7971,5.8044,5.8116,5.8256,5.8587,5.892,5.9251,5.9236,5.9236,5.947,5.97,5.9831,6.0025,6.0188,6.0491,6.0794,6.5341,6.4652,6.391,6.36,6.36,6.36,6.36,6.3526,6.3377,6.3452,6.36,6.3452,6.3452,6.3673,6.3965,6.4163,6.4428,6.4568,6.4706,6.4706,6.4706,6.4706,6.4637,6.4463,6.4287,6.4163,6.3982,6.391,6.3837,6.3673,6.36,6.36,6.36,6.3365,6.2785,6.2282,6.1596,6.0969,6.0283,5.9573,5.8863,5.8254,5.8,5.7881,5.7954,5.8116,5.8402,5.849,5.8701,5.8944,5.9012,5.9012,5.9012,5.9012,5.8978,5.8599,5.815,5.7512,5.7147,5.7391,5.7602,5.773,5.7569,5.7623,5.7333,5.6789,5.6122,5.5543,5.5525,5.5613,5.563,5.556,5.5466,5.5644,5.5951,5.5976,5.5991,5.6021,5.6136,5.6297,5.6046,5.5874,5.5977,5.6909,5.7754,5.8047,5.834,5.8719,5.8892,5.8736,5.8544,5.8331,5.8205,5.8027,5.7881,5.7881,5.7954,5.7954,5.801,5.8078,5.8354,5.8617,5.9037,5.935,5.9699,5.9909,5.9961,5.9904,5.9822,6.0071,6.0546,6.0533,6.035,6.0758,6.1379,6.5439,6.5272,6.41,6.3526,6.3452,6.3469,6.3377,6.3302,6.3134,6.3227,6.3377,6.3302,6.3452,6.3747,6.4054,6.4234,6.4411,6.4637,6.4724,6.4706,6.4706,6.4637,6.4498,6.4358,6.418,6.4089,6.3837,6.3747,6.3691,6.3708,6.36,6.36,6.36,6.3377,6.3,6.2692,6.2055,6.1316,6.0486,5.9759,5.9116,5.8693,5.8321,5.7915,5.7898,5.8116,5.8419,5.849,5.8684,5.8944,5.9012,5.9012,5.9012,5.9012,5.8995,5.8978,5.8737,5.8392,5.82,5.838,5.8442,5.8502,5.8514,5.8281,5.7807,5.714,5.6578,5.6174,5.5718,5.5736,5.6069,5.6122,5.6282,5.6519,5.6675,5.6628,5.6628,5.6673,5.6733,5.6926,5.7116,5.6943,5.684,5.7374,5.8116,5.8478,5.8633,5.8823,5.8927,5.8823,5.8544,5.8243,5.8188,5.8044,5.7954,5.7881,5.8099,5.8082,5.8174,5.8345,5.891,5.9293,5.9781,6.0303,6.086,6.0947,6.0804,6.0918,6.1082,6.1225,6.1383,6.1411,6.1538,6.1964,6.2462,6.5121,6.531,6.3985,6.3377,6.3244,6.3227,6.3169,6.3,6.2923,6.3076,6.3302,6.3394,6.3691,6.3982,6.418,6.4375,6.4463,6.4637,6.4724,6.4706,6.4706,6.4568,6.4516,6.4356,6.4439,6.4204,6.4473,6.4416,6.4238,6.4014,6.3858,6.3543,6.3526,6.3302,6.3,6.2838,6.237,6.1714,6.0892,6.025,5.9725,5.9184,5.8727,5.8304,5.809,5.8099,5.8419,5.849,5.8684,5.8944,5.9012,5.9012,5.9012,5.9012,5.9012,5.9012,5.8892,5.8892,5.8891,5.9111,5.9537,5.9495,5.9412,5.8966,5.8246,5.7491,5.7017,5.6947,5.6561,5.6561,5.6754,5.6912,5.6965,5.7227,5.7439,5.7352,5.7361,5.7472,5.7581,5.784,5.803,5.8081,5.8012,5.8081,5.8443,5.8857,5.9012,5.9012,5.8961,5.8909,5.8701,5.8402,5.8311,5.8273,5.8179,5.8145,5.8239,5.8396,5.8504,5.8988,5.9744,6.0193,6.0647,6.1275,6.1953,6.2212,6.2138,6.2287,6.238,6.2293,6.2263,6.2609,6.2896,6.3253,6.3582,6.4161,6.417,6.3401,6.3059,6.3017,6.2983,6.3,6.2923,6.277,6.2941,6.3319,6.3691,6.391,6.418,6.4287,6.4498,6.4637,6.4724,6.4724,6.4706,6.4724,6.462,6.462,6.4861,6.5044,6.4996,6.5141,6.541,6.5479,6.4731,6.414,6.3405,6.3446,6.311,6.2864,6.2693,6.2581,6.2026,6.1501,6.1163,6.0571,5.986,5.9015,5.8778,5.8271,5.8116,5.849,5.849,5.8631,5.8944,5.9012,5.9012,5.9012,5.9012,5.9012,5.9012,5.9012,5.9012,5.9081,5.9234,5.9386,5.9635,5.9691,5.9615,5.8983,5.8878,5.8457,5.7772,5.7386,5.7474,5.7632,5.7754,5.7719,5.7915,5.8206,5.8168,5.8161,5.8373,5.8547,5.8788,5.8806,5.8668,5.865,5.8599,5.8581,5.8961,5.9012,5.9012,5.8961,5.8909,5.884,5.8648,5.8522,5.8464,5.8456,5.8506,5.877,5.9098,5.9344,5.9967,6.0745,6.1235,6.1532,6.2387,6.3066,6.3273,6.3527,6.345,6.3365,6.3087,6.318,6.3669,6.3822,6.3966,6.4545,6.3736,6.3651,6.2921,6.2693,6.277,6.277,6.277,6.2632,6.2537,6.2787,6.3152,6.3691,6.3982,6.418,6.434,6.4481,6.4706,6.4706,6.4706,6.4637,6.4568,6.4708,6.4844,6.5117,6.5244,6.5544,6.5866,6.5876,6.5755,6.5472,6.4675,6.4033,6.3536,6.3051,6.2787,6.2632,6.2476,6.2425,6.2076,6.1806,6.1112,6.0317,5.9471,5.8981,5.8287,5.8078,5.826,5.8402,5.8614,5.8823,5.8944,5.9012,5.9012,5.9012,5.9012,5.9012,5.9012,5.9012,5.9012,5.9166,5.9453,5.9683,5.9926,5.9949,5.9563,5.9299,5.8966,5.8509,5.8158,5.8123,5.8509,5.8562,5.8577,5.8788,5.8838,5.8863,5.8819,5.8943,5.8961,5.8944,5.8961,5.8926,5.8926,5.8961,5.8961,5.9012,5.9012,5.9012,5.8961,5.8961,5.8892,5.8926,5.8872,5.88,5.8795,5.9013,5.9353,5.9767,6.0237,6.1002,6.1752,6.2016,6.2472,6.3363,6.4042,6.428,6.4411,6.4438,6.4303,6.4024,6.4347,6.4892,6.4902,6.4652,6.5143,6.3176,6.3125,6.2601,6.2476,6.2632,6.2632,6.2537,6.2398,6.2398,6.2615,6.3076,6.3673,6.4054,6.4251,6.4428,6.4568,6.4655,6.4706,6.4637,6.4673,6.4813,6.4933,6.5204,6.563,6.6069,6.6263,6.6497,6.6635,6.6687,6.6092,6.5353,6.459,6.3811,6.3222,6.2615,6.2459,6.2398,6.2398,6.2347,6.2212,6.1569,6.0892,6.0351,5.9658,5.8879,5.8428,5.8511,5.8607,5.8561,5.8754,5.8875,5.9012,5.9012,5.9012,5.9012,5.9012,5.9012,5.9012,5.9012,5.9234,5.9386,5.9569,5.9861,5.9943,5.9867,5.9534,5.9405,5.9317,5.8843,5.8702,5.9317,5.9334,5.9324,5.9429,5.9338,5.9262,5.9128,5.9132,5.9064,5.8995,5.9012,5.9012,5.9012,5.9012,5.9012,5.9012,5.9012,5.9012,5.9012,5.8944,5.8944,5.9082,5.9185,5.9114,5.913,5.9741,6.0386,6.0994,6.1466,6.2044,6.2586,6.2905,6.3327,6.3991,6.4599,6.5078,6.5189,6.5107,6.4995,6.4881,6.524,6.5536,6.5518,6.5286,6.5475,6.2448,6.2415,6.2415,6.2398,6.2398,6.2398,6.2398,6.2398,6.2476,6.2693,6.3076,6.382,6.4198,6.4251,6.4516,6.4637,6.4655,6.4655,6.4568,6.4586,6.4986,6.5172,6.5686,6.6156,6.6806,6.7144,6.7376,6.7652,6.7825,6.7003,6.6097,6.5033,6.4006,6.322,6.251,6.2398,6.2398,6.2398,6.2398,6.233,6.211,6.1501,6.1061,6.0639,5.9658,5.9089,5.8914,5.8791,5.8766,5.8718,5.8892,5.9012,5.9012,5.9012,5.9012,5.9012,5.9012,5.9012,5.9012,5.9166,5.9319,5.9453,5.9683,5.9814,5.9861,5.9856,5.9931,5.9773,5.9738,5.9808,6.0001,6.0001,5.9873,5.9826,5.97,5.9603,5.9386,5.9166,5.9098,5.9012,5.9012,5.9012,5.9012,5.9012,5.9012,5.9012,5.9012,5.9012,5.903,5.9237,5.9323,5.9478,5.9702,5.9943,6.0095,6.081,6.1422,6.2123,6.2613,6.3073,6.3462,6.3921,6.4306,6.4724,6.4997,6.5313,6.5528,6.5622,6.5526,6.5447,6.559,6.5796,6.585,6.5913,6.5958,6.2398,6.2398,6.2398,6.2398,6.2398,6.2398,6.2398,6.2476,6.2693,6.2847,6.3134,6.382,6.4198,6.434,6.4533,6.4724,6.4655,6.455,6.4393,6.4498,6.5,6.5443,6.5937,6.6547,6.7316,6.7652,6.8032,6.8083,6.8014,6.7422,6.6456,6.5323,6.3798,6.2781,6.2448,6.2398,6.2398,6.2398,6.2398,6.2381,6.2296,6.1738,6.1332,6.1298,6.0283,5.9573,5.9282,5.9077,5.8968,5.8717,5.8823,5.9012,5.9012,5.9012,5.9012,5.9012,5.9012,5.9012,5.9012,5.9098,5.9149,5.9301,5.952,5.9683,5.9796,5.9861,5.9943,6.0089,6.0089,6.0089,6.0072,6.0054,5.999,5.999,5.9914,5.9718,5.952,5.9319,5.9166,5.9081,5.9012,5.9064,5.9099,5.9202,5.9219,5.9219,5.9237,5.9168,5.915,5.9651,5.9909,6.0117,6.0393,6.0721,6.1151,6.1731,6.2161,6.2617,6.3194,6.3736,6.4251,6.4603,6.4861,6.5114,6.5313,6.551,6.5722,6.585,6.6012,6.6012,6.5994,6.6039,6.6083,6.6146,6.6146,6.2398,6.2398,6.2398,6.2398,6.2398,6.2398,6.2476,6.2554,6.2847,6.3076,6.3227,6.3892,6.4198,6.4322,6.4516,6.4637,6.4568,6.4481,6.427,6.4321,6.4801,6.5382,6.5994,6.6712,6.742,6.7894,6.8101,6.8101,6.7925,6.7638,6.6541,6.4983,6.3334,6.2679,6.2398,6.2398,6.2398,6.2398,6.2398,6.2398,6.2279,6.1992,6.1721,6.1518,6.0926,6.0199,5.9648,5.9395,5.9293,5.8888,5.8754,5.9012,5.9012,5.9012,5.9012,5.9012,5.9012,5.9012,5.9012,5.9012,5.9081,5.9166,5.9386,5.9502,5.9683,5.9731,5.9879,5.9943,6.0025,6.0089,6.0089,6.0089,6.0089,6.0025,5.9961,5.9766,5.9635,5.9502,5.9319,5.9166,5.9081,5.915,5.9392,5.9461,5.9564,5.9495,5.9478,5.9461,5.9478,5.9995,6.053,6.079,6.1189,6.1551,6.2018,6.2571,6.2917,6.3217,6.3707,6.425,6.4498,6.4843,6.5114,6.5445,6.564,6.5768,6.5913,6.6057,6.6199,6.6261,6.6243,6.6269,6.6312,6.6312,6.633,6.2398,6.2398,6.2398,6.2398,6.2398,6.2398,6.2554,6.2727,6.2923,6.3152,6.3302,6.3892,6.4198,6.4269,6.4516,6.4568,6.4411,6.4323,6.4145,6.4173,6.4689,6.5285,6.597,6.6635,6.7376,6.7859,6.8021,6.7959,6.7765,6.7112,6.6038,6.4742,6.3204,6.2567,6.2398,6.2398,6.2398,6.2398,6.2398,6.2398,6.2313,6.233,6.2195,6.1992,6.1586,6.0926,6.0325,5.9888,5.9375,5.8954,5.8875,5.8961,5.9012,5.9012,5.9012,5.9012,5.9012,5.9012,5.9012,5.9012,5.9012,5.9081,5.9166,5.9234,5.9369,5.9551,5.9748,5.9879,5.9943,6.0025,6.0089,6.0089,6.0089,6.0008,5.9943,5.9796,5.9731,5.9617,5.9453,5.9286,5.9304,5.9478,6.0064,6.0185,6.022,6.0255,6.0271,6.0497,6.0531,6.0547,6.1065,6.1461,6.1914,6.2453,6.2957,6.3323,6.3605,6.3851,6.4113,6.462,6.4861,6.5096,6.5344,6.5604,6.5877,6.6021,6.6164,6.6287,6.6348,6.6409,6.6488,6.647,6.6512,6.6512,6.653,6.2398,6.2398,6.2398,6.2398,6.2398,6.2537,6.2632,6.2693,6.2923,6.3152,6.3319,6.391,6.4126,6.4054,6.4358,6.4358,6.4234,6.4109,6.4037,6.417,6.4438,6.5175,6.5859,6.6566,6.7359,6.7763,6.7925,6.7862,6.7427,6.6673,6.56,6.4508,6.3091,6.255,6.2398,6.2398,6.2398,6.2398,6.2398,6.2398,6.2398,6.2398,6.2398,6.2262,6.2161,6.1535,6.0952,6.0357,5.9831,5.9378,5.8975,5.8927,5.9012,5.9012,5.9012,5.9012,5.9012,5.9012,5.9012,5.9012,5.903,5.903,5.9081,5.9166,5.9301,5.9418,5.9551,5.9748,5.9879,5.9943,6.0089,6.0089,6.0089,6.0008,6.0008,5.9943,5.9861,5.9748,5.9603,5.9783,5.9717,6.0393,6.0945,6.1043,6.1114,6.1082,6.1153,6.1379,6.157,6.1551,6.1828,6.2243,6.264,6.3234,6.3518,6.3832,6.4148,6.4463,6.4688,6.4911,6.5163,6.5409,6.5633,6.5841,6.6066,6.6269,6.6391,6.647,6.647,6.6626,6.6704,6.6668,6.665,6.6686,6.6686,6.2398,6.2398,6.2398,6.2398,6.2476,6.2632,6.271,6.2847,6.3,6.3227,6.3452,6.391,6.3982,6.3982,6.418,6.4251,6.4037,6.3965,6.391,6.3868,6.4139,6.4669,6.5428,6.6204,6.6816,6.7323,6.7725,6.7719,6.7129,6.5799,6.4627,6.4038,6.2888,6.255,6.2398,6.2398,6.2398,6.2398,6.2398,6.2398,6.2398,6.2398,6.2398,6.2398,6.2398,6.1975,6.1332,6.0689,6.0166,5.9652,5.9059,5.8857,5.9047,5.9254,5.9478,5.9582,5.9909,5.9789,5.9668,5.953,5.9323,5.9099,5.903,5.9081,5.9166,5.9301,5.9502,5.9635,5.9748,5.9861,6.0008,6.0089,6.0089,6.0089,6.0072,6.0008,5.9943,5.9879,5.9962,6.0195,6.0703,6.1485,6.1828,6.1907,6.201,6.2089,6.2126,6.2213,6.2387,6.2386,6.2751,6.3219,6.3511,6.3947,6.4145,6.4288,6.4583,6.4841,6.5011,6.5247,6.5557,6.5732,6.5841,6.6048,6.6269,6.647,6.659,6.659,6.665,6.6799,6.7112,6.727,6.7179,6.689,6.6872,6.2398,6.2398,6.2398,6.2398,6.2476,6.2632,6.2847,6.3059,6.3227,6.3377,6.36,6.382,6.3927,6.391,6.4037,6.4054,6.391,6.3837,6.3747,6.3582,6.3703,6.4186,6.4876,6.5462,6.6032,6.6694,6.6964,6.6826,6.6432,6.5318,6.4021,6.348,6.277,6.2398,6.2398,6.2398,6.2398,6.2398,6.2398,6.2398,6.2398,6.2398,6.2398,6.2398,6.2313,6.2059,6.1392,6.0706,6.0149,5.9635,5.9128,5.8875,5.934,5.9685,5.9995,6.0375,6.0703,6.0634,6.0323,6.0099,5.972,5.9392,5.9064,5.903,5.9081,5.9166,5.9301,5.9586,5.9718,5.9879,6.0025,6.0089,6.0089,6.0089,6.0089,6.0072,6.0008,6.0171,6.0548,6.0971,6.1706,6.2474,6.2856,6.2991,6.3011,6.3101,6.3171,6.3206,6.3293,6.3363,6.3537,6.4025,6.4234,6.4462,6.4533,6.4755,6.4941,6.5176,6.5361,6.5575,6.5832,6.6003,6.6128,6.633,6.647,6.6608,6.6727,6.6745,6.6854,6.7143,6.7492,6.7927,6.7836,6.7601,6.7547,6.2398,6.2398,6.2398,6.2476,6.2615,6.2847,6.3076,6.3227,6.3452,6.3526,6.36,6.3747,6.3837,6.3747,6.3892,6.3837,6.3747,6.3691,6.3673,6.36,6.36,6.391,6.4473,6.4811,6.5267,6.5559,6.5699,6.5663,6.52,6.4309,6.3717,6.3429,6.277,6.2398,6.2398,6.2398,6.2398,6.2398,6.2398,6.2398,6.2398,6.2398,6.2398,6.2398,6.233,6.2009,6.1298,6.0613,6.0092,5.9562,5.89,5.9131,5.9892,6.0116,6.0496,6.0944,6.1306,6.1306,6.1065,6.0685,6.0237,5.9806,5.9461,5.915,5.9012,5.9098,5.9251,5.9488,5.9669,5.9849,6.0025,6.0025,6.0089,6.0089,6.0107,6.0107,6.0124,6.0656,6.1152,6.194,6.2728,6.3257,6.3729,6.3921,6.3991,6.4061,6.4201,6.4356,6.4441,6.4509,6.4302,6.4567,6.4638,6.4864,6.4946,6.5078,6.5326,6.5522,6.5704,6.5913,6.6101,6.6269,6.6391,6.6452,6.659,6.6799,6.6854,6.684,6.7021,6.7547,6.809,6.8597,6.888,6.8772,6.8742,6.2398,6.2398,6.2476,6.2632,6.271,6.3,6.3227,6.3302,6.3526,6.36,6.36,6.3673,6.3673,6.36,6.3747,6.3747,6.36,6.36,6.36,6.36,6.3634,6.3732,6.4019,6.4229,6.447,6.4725,6.4863,6.461,6.4089,6.3802,6.3463,6.3074,6.255,6.2398,6.2398,6.2398,6.2398,6.2398,6.2398,6.2398,6.2398,6.2398,6.2398,6.2398,6.2296,6.1941,6.1298,6.0537,5.9926,5.949,5.89,5.9269,5.996,6.053,6.1099,6.1703,6.2082,6.2168,6.1806,6.1375,6.084,6.0358,5.9944,5.9668,5.915,5.9236,5.9511,5.9713,5.9638,5.9718,5.9961,6.0089,6.0089,6.0089,6.0177,6.023,6.0704,6.1388,6.2007,6.2778,6.348,6.4092,6.4444,6.4511,6.4597,6.4753,6.4894,6.4961,6.5131,6.5349,6.5265,6.5131,6.5237,6.5255,6.5432,6.551,6.5622,6.5832,6.603,6.6235,6.6456,6.6506,6.665,6.6848,6.6957,6.7017,6.7094,6.7257,6.7746,6.838,6.8869,6.9339,6.9647,6.9991,7.0071,6.2398,6.2476,6.2632,6.271,6.2787,6.3152,6.3302,6.3377,6.3526,6.36,6.36,6.36,6.36,6.36,6.36,6.36,6.36,6.36,6.36,6.3526,6.3526,6.348,6.3611,6.3768,6.3759,6.3859,6.3962,6.3763,6.3362,6.3193,6.2956,6.2499,6.2398,6.2398,6.2398,6.2398,6.2398,6.2398,6.2398,6.2398,6.2398,6.2398,6.2398,6.2398,6.233,6.1941,6.1197,6.0503,5.9817,5.9332,5.8971,5.9614,6.0219,6.0927,6.1754,6.2393,6.2979,6.2944,6.2703,6.2341,6.1616,6.0961,6.0547,6.0133,5.9668,5.9702,5.9978,6.0078,5.9937,5.9857,6.0101,6.0159,6.0159,6.0159,6.0265,6.0475,6.1213,6.1932,6.2687,6.346,6.4142,6.4687,6.4908,6.4972,6.5123,6.5295,6.5349,6.5415,6.5462,6.5657,6.5722,6.564,6.5693,6.5757,6.5867,6.585,6.5958,6.6227,6.6467,6.6625,6.6891,6.7391,6.7577,6.742,6.7492,6.771,6.7891,6.8108,6.8651,6.9255,6.9545,7.0023,7.0611,7.0956,7.1398,6.2476,6.2615,6.271,6.2864,6.3152,6.3319,6.3394,6.3526,6.3582,6.36,6.3479,6.3565,6.36,6.3582,6.36,6.36,6.3526,6.36,6.3452,6.3377,6.3377,6.3227,6.3144,6.3196,6.2914,6.2944,6.2956,6.2736,6.2821,6.2736,6.2584,6.2415,6.2398,6.2398,6.2398,6.2398,6.2398,6.2398,6.2398,6.2398,6.2398,6.2398,6.2398,6.2398,6.2381,6.1501,6.0689,6.0233,5.9451,5.8872,5.8783,5.9648,6.0511,6.1254,6.1996,6.2893,6.3513,6.3444,6.3169,6.2841,6.2117,6.1841,6.1461,6.103,6.0771,6.0789,6.1034,6.1188,6.0993,6.0517,6.0556,6.0458,6.0388,6.0388,6.044,6.0897,6.1476,6.2209,6.2894,6.3685,6.4423,6.4823,6.5029,6.5207,6.5444,6.5551,6.574,6.5722,6.5913,6.6039,6.6164,6.6164,6.6119,6.6182,6.6243,6.6182,6.6261,6.6607,6.7053,6.7511,6.8023,6.8609,6.8688,6.8253,6.8416,6.8766,6.8947,6.902,6.9534,7.0066,7.0229,7.0653,7.1296,7.1745,7.1909]},{"header":{"parameterUnit":"m.s-1","parameterCategory":1,"la1":31.0,"la2":29.5877,"lo1":-88.7671,"lo2":-86.6584,"dy":0.0162,"dx":0.0185,"nx":115,"ny":88,"refTime":"2023-09-16T06:00:00:Z","depth":0,"parameterNumber":3,"parameterNumberName":"V-component_of_WINDS"},"data":[0.0,0.0,0.0,0.0,0.0,0.0,0.0,0.0,0.0,0.0,0.0,0.0,0.0,0.0,0.0,0.0,0.0,0.0,0.0,0.0,0.0,0.0,0.0,0.0,0.0,0.0,0.0,0.0,0.0,0.0,0.0,0.0,0.0,0.0,0.0,0.0,0.0,0.0,0.0,0.0,0.0,0.0,0.0,0.0,0.0,0.0,0.0,0.0,0.0,0.0,0.0,0.0,0.0,0.0,0.0,0.0,0.0,0.0,0.0,0.0,0.0,0.0,0.0,0.0,0.0,0.0,0.0,0.0,0.0,0.0,0.0,0.0,0.0,0.0,0.0,0.0,0.0,0.0,0.0,0.0,0.0,0.0,0.0,0.0,0.0,0.0,0.0,0.0,0.0,0.0,0.0,0.0,0.0,0.0,0.0,0.0,0.0,0.0,0.0,0.0,0.0,0.0,0.0,0.0,0.0,0.0,0.0,0.0,0.0,0.0,0.0,0.0,0.0,0.0,0.0,0.0,0.0,0.0,0.0,0.0,0.0,0.0,0.0,0.0,0.0,0.0,0.0,0.0,0.0,0.0,0.0,0.0,0.0,0.0,0.0,0.0,0.0,0.0,0.0,0.0,0.0,0.0,0.0,0.0,0.0,0.0,0.0,0.0,0.0,0.0,0.0,0.0,0.0,0.0,0.0,0.0,0.0,0.0,0.0,0.0,0.0,0.0,0.0,0.0,0.0,0.0,0.0,0.0,0.0,0.0,0.0,0.0,0.0,0.0,0.0,0.0,0.0,0.0,0.0,0.0,0.0,0.0,0.0,0.0,0.0,0.0,0.0,0.0,0.0,0.0,0.0,0.0,0.0,0.0,0.0,0.0,0.0,0.0,0.0,0.0,0.0,0.0,0.0,0.0,0.0,0.0,0.0,0.0,0.0,0.0,0.0,0.0,0.0,0.0,0.0,0.0,0.0,0.0,0.0,0.0,0.0,0.0,0.0,0.0,0.0,0.0,0.0,0.0,0.0,0.0,0.0,0.0,0.0,0.0,0.0,0.0,0.0,0.0,0.0,0.0,0.0,0.0,0.0,0.0,0.0,0.0,0.0,0.0,0.0,0.0,0.0,0.0,0.0,0.0,0.0,0.0,0.0,0.0,0.0,0.0,0.0,0.0,0.0,0.0,0.0,0.0,0.0,0.0,0.0,0.0,0.0,0.0,0.0,0.0,0.0,0.0,0.0,0.0,0.0,0.0,0.0,0.0,0.0,0.0,0.0,0.0,0.0,0.0,0.0,0.0,0.0,0.0,0.0,0.0,0.0,0.0,0.0,0.0,0.0,0.0,0.0,0.0,0.0,0.0,0.0,0.0,0.0,0.0,0.0,0.0,0.0,0.0,0.0,0.0,0.0,0.0,0.0,0.0,0.0,0.0,0.0,0.0,0.0,0.0,0.0,0.0,0.0,0.0,0.0,0.0,0.0,0.0,0.0,0.0,0.0,0.0,0.0,0.0,0.0,0.0,0.0,0.0,0.0,0.0,0.0,0.0,0.0,0.0,0.0,0.0,0.0,0.0,0.0,0.0,0.0,0.0,0.0,0.0,0.0,0.0,0.0,0.0,0.0,0.0,0.0,0.0,0.0,0.0,0.0,0.0,0.0,0.0,0.0,0.0,0.0,0.0,0.0,0.0,0.0,0.0,0.0,0.0,0.0,0.0,0.0,0.0,0.0,0.0,0.0,0.0,0.0,0.0,0.0,0.0,0.0,0.0,0.0,0.0,0.0,0.0,0.0,0.0,0.0,0.0,0.0,0.0,0.0,0.0,0.0,0.0,0.0,0.0,0.0,0.0,0.0,0.0,0.0,0.0,0.0,0.0,0.0,0.0,0.0,0.0,0.0,0.0,0.0,0.0,0.0,0.0,0.0,0.0,0.0,0.0,0.0,0.0,0.0,0.0,0.0,0.0,0.0,0.0,0.0,0.0,0.0,0.0,0.0,0.0,0.0,0.0,0.0,0.0,0.0,0.0,0.0,0.0,0.0,0.0,0.0,0.0,0.0,0.0,0.0,0.0,0.0,0.0,0.0,0.0,0.0,0.0,0.0,0.0,0.0,0.0,0.0,0.0,0.0,0.0,0.0,0.0,0.0,0.0,0.0,0.0,0.0,0.0,0.0,0.0,0.0,0.0,0.0,0.0,0.0,0.0,0.0,0.0,0.0,0.0,0.0,0.0,0.0,0.0,0.0,0.0,0.0,0.0,0.0,0.0,0.0,0.0,0.0,0.0,0.0,0.0,0.0,0.0,0.0,0.0,0.0,0.0,0.0,0.0,0.0,0.0,0.0,0.0,0.0,0.0,0.0,0.0,0.0,0.0,0.0,0.0,0.0,0.0,0.0,0.0,0.0,0.0,0.0,0.0,0.0,0.0,0.0,0.0,0.0,0.0,0.0,0.0,0.0,0.0,0.0,0.0,0.0,0.0,0.0,0.0,0.0,0.0,0.0,0.0,0.0,0.0,0.0,0.0,0.0,0.0,0.0,0.0,0.0,0.0,0.0,0.0,0.0,0.0,0.0,0.0,0.0,0.0,0.0,0.0,0.0,0.0,0.0,0.0,0.0,0.0,0.0,0.0,0.0,0.0,0.0,0.0,0.0,0.0,0.0,0.0,0.0,0.0,0.0,0.0,0.0,0.0,0.0,0.0,0.0,0.0,0.0,0.0,0.0,0.0,0.0,0.0,0.0,0.0,0.0,0.0,0.0,0.0,0.0,0.0,0.0,0.0,0.0,0.0,0.0,0.0,0.0,0.0,0.0,0.0,0.0,0.0,0.0,0.0,0.0,0.0,0.0,0.0,0.0,0.0,0.0,0.0,0.0,0.0,0.0,0.0,0.0,0.0,0.0,0.0,0.0,0.0,0.0,0.0,0.0,0.0,0.0,0.0,0.0,0.0,0.0,0.0,0.0,0.0,0.0,0.0,0.0,0.0,0.0,0.0,0.0,0.0,0.0,0.0,0.0,0.0,0.0,0.0,0.0,0.0,0.0,0.0,0.0,0.0,0.0,0.0,0.0,0.0,0.0,0.0,0.0,0.0,0.0,0.0,0.0,0.0,0.0,0.0,0.0,0.0,0.0,0.0,0.0,0.0,0.0,0.0,0.0,0.0,0.0,0.0,0.0,0.0,0.0,0.0,0.0,0.0,0.0,0.0,0.0,0.0,0.0,0.0,0.0,0.0,0.0,0.0,0.0,0.0,0.0,0.0,0.0,0.0,0.0,0.0,0.0,0.0,0.0,0.0,0.0,0.0,0.0,0.0,0.0,0.0,0.0,0.0,0.0,0.0,0.0,0.0,0.0,0.0,0.0,0.0,0.0,0.0,0.0,0.0,0.0,0.0,0.0,0.0,0.0,0.0,0.0,0.0,0.0,0.0,0.0,0.0,0.0,0.0,0.0,0.0,0.0,0.0,0.0,0.0,0.0,0.0,0.0,0.0,0.0,0.0,0.0,0.0,0.0,0.0,0.0,0.0,0.0,0.0,0.0,0.0,0.0,0.0,0.0,0.0,0.0,0.0,0.0,0.0,0.0,0.0,0.0,0.0,0.0,0.0,0.0,0.0,0.0,0.0,0.0,0.0,0.0,0.0,0.0,0.0,0.0,0.0,0.0,0.0,0.0,0.0,0.0,0.0,0.0,0.0,0.0,0.0,0.0,0.0,0.0,0.0,0.0,0.0,0.0,0.0,0.0,0.0,0.0,0.0,0.0,0.0,0.0,0.0,0.0,0.0,0.0,0.0,0.0,0.0,0.0,0.0,0.0,0.0,0.0,0.0,0.0,0.0,0.0,0.0,0.0,0.0,0.0,0.0,0.0,0.0,0.0,0.0,0.0,0.0,0.0,0.0,0.0,0.0,0.0,0.0,0.0,0.0,0.0,0.0,0.0,0.0,0.0,0.0,0.0,0.0,0.0,0.0,0.0,0.0,0.0,0.0,0.0,0.0,0.0,0.0,0.0,0.0,0.0,0.0,0.0,0.0,0.0,0.0,0.0,0.0,0.0,0.0,0.0,0.0,0.0,0.0,0.0,0.0,0.0,0.0,0.0,0.0,0.0,0.0,0.0,0.0,0.0,0.0,0.0,0.0,0.0,0.0,0.0,0.0,0.0,0.0,0.0,0.0,0.0,0.0,0.0,0.0,0.0,0.0,0.0,0.0,0.0,0.0,0.0,0.0,0.0,0.0,0.0,0.0,0.0,0.0,0.0,0.0,0.0,0.0,0.0,0.0,0.0,0.0,0.0,0.0,0.0269,0.0,0.0,0.0,0.0,0.0,0.0,0.0,0.0,0.0,0.0,0.0,0.0,0.0,0.0,0.0,0.0,0.0,0.0,0.0,0.0,0.0,0.0,0.0,0.0,0.0,0.0,0.0,0.0,0.0,0.0,0.0,0.0,0.0,0.0,0.0,0.0,0.0,0.0,0.0,0.0,0.0,0.0,0.0,0.0,0.0,0.0,0.0,0.0,0.0,0.0,0.0,0.0,0.0,0.0,0.0,0.0,0.0,0.0,0.0,0.0,0.0,0.0,0.0,0.0,0.0,0.0,0.0,0.0,0.0,0.0,0.0,0.0,0.0,0.0,0.0,0.0,0.0,0.0,0.0,0.0,0.0,0.0,0.0,0.0,0.0,0.0,0.0,0.0,0.0,0.0,0.0,0.0,0.0,0.0,0.0,0.0,0.0,0.0,0.0,0.0,0.0,0.0,0.0,0.0,0.0,0.0,0.0,0.0,0.0,0.0,0.0118,0.0275,0.0354,0.0471,0.055,0.0,0.0,0.0,0.0,0.0,0.0,0.0,0.0,0.0,0.0,0.0,0.0,0.0,0.0,0.0,0.0,0.0,0.0,0.0,0.0,0.0,0.0,0.0,0.0,0.0,0.0,0.0,0.0,0.0,0.0,0.0,0.0,0.0,0.0,0.0,0.0,0.0,0.0,0.0,0.0,0.0,0.0,0.0,0.0,0.0,0.0,0.0,0.0,0.0,0.0,0.0,0.0,0.0,0.0,0.0,0.0,0.0,0.0,0.0,0.0,0.0,0.0,0.0,0.0,0.0,0.0,0.0,0.0,0.0,0.0,0.0,0.0,0.0,0.0,0.0,0.0,0.0,0.0,0.0,0.0,0.0,0.0,0.0,0.0,0.0,0.0,0.0,0.0,0.0,0.0,0.0,0.0,0.0,0.0,0.0,0.0,0.0,0.0,0.0,0.0,0.0,0.0,0.0,0.0,0.0,0.0,0.0,0.0,0.0,0.0,0.0,0.0,0.0649,0.0771,0.0811,0.0,0.0,0.0,0.0,0.0,0.0,0.0,0.0,0.0,0.0,0.0,0.0,0.0,0.0,0.0,0.0,0.0,0.0,0.0,0.0,0.0,0.0,0.0,0.0,0.0,0.0,0.0,0.0,0.0,0.0,0.0,0.0,0.0,0.0,0.0,0.0,0.0,0.0,0.0,0.0,0.0,0.0,0.0,0.0,0.0,0.0,0.0,0.0,0.0,0.0,0.0,0.0,0.0,0.0,0.0,0.0,0.0,0.0,0.0,0.0,0.0,0.0,0.0,0.0,0.0,0.0,0.0,0.0,0.0,0.0,0.0,0.0,0.0,0.0,0.0,0.0,0.0,0.0,0.0,0.0,0.0,0.0,0.0,0.0,0.0,0.0,0.0,0.0,0.0,0.0,0.0,0.0,0.0,0.0,0.0,0.0,0.0,0.0,0.0,0.0,0.0,0.0,0.0,0.0,0.0,0.0,0.0,0.0,0.0,0.0,0.0667,0.0667,0.0889,0.0,0.1061,0.0,0.0,0.0,0.0,0.0,0.0,0.0,0.0,0.0,0.0,0.0,0.0,0.0,0.0,0.0,0.0,0.0,0.0,0.0,0.0,0.0,0.0,0.0,0.0,0.0,0.0,0.0,0.0,0.0,0.0,0.0,0.0,0.0,0.0,0.0,0.0,0.0,0.0,0.0,0.0,0.0,0.0,0.0,0.0,0.0,0.0,0.0,0.0,0.0,0.0,0.0,0.0,0.0,0.0,0.0,0.0,0.0,0.0,0.0,0.0,0.0,0.0,0.0,0.0,0.0,0.0,0.0,0.0,0.0,0.0,0.0,0.0,0.0,0.0,0.0,0.0,0.0,0.0,0.0,0.0,0.0,0.0,0.0,0.0,0.0,0.0,0.0,0.0,0.0,0.0,0.0,0.0,0.0,0.0,0.0,0.0,0.0,0.0,0.0,0.0,0.0,0.0,0.0,0.0,0.0,0.0,0.0,0.0,0.0,0.0,0.0942,0.0942,0.1032,0.1121,0.0,0.0,0.0,0.0,0.0,0.0,0.0,0.0,0.0,0.0,0.0,0.0,0.0,0.0,0.0,0.0,0.0,0.0,0.0,0.0,0.0,0.0,0.0,0.0,0.0,0.0,0.0,0.0,0.0,0.0,0.0,0.0,0.0,0.0,0.0,0.0,0.0,0.0,0.0,0.0,0.0,0.0,0.0,0.0,0.0,0.0,0.0,0.0,0.0,0.0,0.0,0.0,0.0,0.0,0.0,0.0,0.0,0.0,0.0,0.0,0.0,0.0,0.0,0.0,0.0,0.0,0.0,0.0,0.0,0.0,0.0,0.0,0.0,0.0,0.0,0.0,0.0,0.0,0.0,0.0,0.0,0.0,0.0,0.0,0.0,0.0,0.0,0.0,0.0,0.0,0.0,0.0,0.0,0.0,0.0,0.0,0.0,0.0,0.0,0.0,0.0,0.0,0.0,0.0,0.0,0.0,0.0,0.0,0.0,0.0,0.112,0.1165,0.121,0.1254,0.1299,0.1479,0.0,0.0,0.0,0.0,0.0,0.0,0.0,0.0,0.0,0.0,0.0,0.0,0.0,0.0,0.0,0.0,0.0,0.0,0.0,0.0,0.0,0.0,0.0,0.0,0.0,0.0,0.0,0.0,0.0,0.0,0.0,0.0,0.0,0.0,0.0,0.0,0.0,0.0,0.0,0.0,0.0,0.0,0.0,0.0,0.0,0.0,0.0,0.0,0.0,0.0,0.0,0.0,0.0,0.0,0.0,0.0,0.0,0.0,0.0,0.0,0.0,0.0,0.0,0.0,0.0,0.0,0.0,0.0,0.0,0.0,0.0,0.0,0.0,0.0,0.0,0.0,0.0,0.0,0.0,0.0,0.0,0.0,0.0,0.0,0.0,0.0,0.0,0.0,0.0,0.0,0.0,0.0,0.0,0.0,0.0,0.0,0.0,0.0,0.0,0.0,0.0,0.0,0.0,0.0,0.0,0.0,0.0,0.0,0.112,0.1254,0.1389,0.1569,0.1569,0.1658,0.0,0.0,0.0,0.0,0.0,0.0,0.0,0.0,0.0,0.0,0.0,0.0,0.0,0.0,0.0,0.0,0.0,0.0,0.0,0.0,0.0,0.0,0.0,0.0,0.0,0.0,0.0,0.0,0.0,0.0,0.0,0.0,0.0,0.0,0.0,0.0,0.0,0.0,0.0,0.0,0.0,0.0,0.0,0.0,0.0,0.0,0.0,0.0,0.0,0.0,0.0,0.0,0.0,0.0,0.0,0.0,0.0,0.0,0.0,0.0,0.0,0.0,0.0,0.0,0.0,0.0,0.0,0.0,0.0,0.0,0.0,0.0,0.0,0.0,0.0,0.0,0.0,0.0,0.0,0.0,0.0,0.0,0.0,0.0,0.0,0.0,0.0,0.0,0.0,0.0,0.0,0.0,0.0,0.0,0.0,0.0,0.0,0.0,0.0,0.0,0.0,0.0,0.0,0.0,0.0,0.0,0.0,0.0,0.0,0.1569,0.1658,0.1794,0.1839,0.1884,0.1971,0.0,0.0,0.0,0.0,0.0,0.0,0.0,0.0,0.0,0.0,0.0,0.0,0.0,0.0,0.0,0.0,0.0,0.0,0.0,0.0,0.0,0.0,0.0,0.0,0.0,0.0,0.0,0.0,0.0,0.0,0.0,0.0,0.0,0.0,0.0,0.0,0.0,0.0,0.0,0.0,0.0,0.0,0.0,0.0,0.0,0.0,0.0,0.0,0.0,0.0,0.0,0.0,0.0,0.0,0.0,0.0,0.0,0.0,0.0,0.0,0.0,0.0,0.0,0.0,0.0,0.0,0.0,0.0,0.0,0.0,0.0,0.0,0.0,0.0,0.0,0.0,0.0,0.0,0.0,0.0,0.0,0.0,0.0,0.0,0.0,0.0,0.0,0.0,0.0,0.0,0.0,0.0,0.0,0.0,0.0,0.0,0.0,0.0,0.0,0.0,0.0,0.0,0.0,0.0,0.0,0.0,0.0,0.0,0.0,0.2011,0.0,0.2197,0.2288,0.2336,0.2407,0.0,0.0,0.0,0.0,0.0,0.0,0.0,0.0,0.0,0.0,0.0,0.0,0.0,0.0,0.0,0.0,0.0,0.0,0.0,0.0,0.0,0.0,0.0,0.0,0.0,0.0,0.0,0.0,0.0,0.0,0.0,0.0,0.0,0.0,0.0,0.0,0.0,0.0,0.0,0.0,0.0,0.0,0.0,0.0,0.0,0.0,0.0,0.0,0.0,0.0,0.0,0.0,0.0,0.0,0.0,0.0,0.0,0.0,0.0,0.0,0.0,0.0,0.0,0.0,0.0,0.0,0.0,0.0,0.0,0.0,0.0,0.0,0.0,0.0,0.0,0.0,0.0,0.0,0.0,0.0,0.0,0.0,0.0,0.0,0.0,0.0,0.0,0.0,0.0,0.0,0.0,0.0,0.0,0.0,0.0,0.0,0.0,0.0,0.0,0.0,0.0,0.0,0.0,0.0,0.0,0.0,0.0,0.0,0.2201,0.2472,0.2524,0.2668,0.291,0.291,0.29,0.0,0.0,0.0,0.0,0.0,0.0,0.0,0.0,0.0,0.0,0.0,0.0,0.0,0.0,0.0,0.0,0.0,0.0,0.0,0.0,0.0,0.0,0.0,0.0,0.0,0.0,0.0,0.0,0.0,0.0,0.0,0.0,0.0,0.0,0.0,0.0,0.0,0.0,0.0,0.0,0.0,0.0,0.0,0.0,0.0,0.0,0.0,0.0,0.0,0.0,0.0,0.0,0.0,0.0,0.0,0.0,0.0,0.0,0.0,0.0,0.0,0.0,0.0,0.0,0.0,0.0,0.0,0.0,0.0,0.0,0.0,0.0,0.0,0.0,0.0,0.0,0.0,0.0,0.0,0.0,0.0,0.0,0.0,0.0,0.0,0.0,0.0,0.0,0.0,0.0,0.0,0.0,0.0,0.0,0.0,0.0,0.0,0.0,0.0,0.0,0.0,0.0,0.0,0.0,0.0,0.0,0.0,0.0,0.0,0.3029,0.3158,0.3255,0.3431,0.3459,0.3405,0.0,0.0,0.0,0.0,0.0,0.0,0.0,0.0,0.0,0.0,0.0,0.0,0.0,0.0,0.0,0.0,0.0,0.0,0.0,0.0,0.0,0.0,0.0,0.0,0.0,0.0,0.0,0.0,0.0,0.0,0.0,0.0,0.0,0.0,0.0,0.0,0.0,0.0,0.0,0.0,0.0,0.0,0.0,0.0,0.0,0.0,0.0,0.0,0.0,0.0,0.0,0.0,0.0,0.0,0.0,0.0,0.0,0.0,0.0,0.0,0.0,0.0,0.0,0.0,0.0,0.0,0.0,0.0,0.0,0.0,0.0,0.0,0.0,0.0,0.0,0.0,0.0,0.0,0.0,0.0,0.0,0.0,0.0,0.0,0.0,0.0,0.0,0.0,0.0,0.0,0.0,0.0,0.0,0.0,0.0,0.0,0.0,0.0,0.0,0.0,0.0,0.0,0.0,0.0,0.0,0.0,0.0,0.0,0.0,0.415,0.4005,0.4036,0.4172,0.4158,0.4023,0.3827,0.0,0.0,0.0,0.0,0.0,0.0,0.0,0.0,0.0,0.0,0.0,0.0,0.0,0.0,0.0,0.0,0.0,0.0,0.0,0.0,0.0,0.0,0.0,0.0,0.0,0.0,0.0,0.0,0.0,0.0,0.0,0.0,0.0,0.0,0.0,0.0,0.0,0.0,0.0,0.0,0.0,0.0,0.0,0.0,0.0,0.0,0.0,0.0,0.0,0.0,0.0,0.0,0.0,0.0,0.0,0.0,0.0,0.0,0.0,0.0,0.0,0.0,0.0,0.0,0.0,0.0,0.0,0.0,0.0,0.0,0.0,0.0,0.0,0.0,0.0,0.0,0.0,0.0,0.0,0.0,0.0,0.0,0.0,0.0,0.0,0.0,0.0,0.0,0.0,0.0,0.0,0.0,0.0,0.0,0.0,0.0,0.0,0.0,0.0,0.0,0.0,0.0,0.0,0.0,0.0,0.0,0.0,0.0,0.5706,0.5122,0.4912,0.5009,0.4977,0.48,0.0,0.0,0.0,0.0,0.0,0.0,0.0,0.0,0.0,0.0,0.0,0.0,0.0,0.0,0.0,0.0,0.0,0.0,0.0,0.0,0.0,0.0,0.0,0.0,0.0,0.0,0.0,0.0,0.0,0.0,0.0,0.0,0.0,0.0,0.0,0.0,0.0,0.0,0.0,0.0,0.0,0.0,0.0,0.0,0.0,0.0,0.0,0.0,0.0,0.0,0.0,0.0,0.0,0.0,0.0,0.0,0.0,0.0,0.0,0.0,0.0,0.0,0.0,0.0,0.0,0.0,0.0,0.0,0.0,0.0,0.0,0.0,0.0,0.0,0.0,0.0,0.0,0.0,0.0,0.0,0.0,0.0,0.0,0.0,0.0,0.0,0.0,0.0,0.0,0.0,0.0,0.0,0.0,0.0,0.0,0.0,0.0,0.0,0.0,0.0,0.0,0.0,0.0,0.0,0.0,0.0,0.0,0.0,0.0,0.6676,0.6972,0.6727,0.6198,0.5738,0.5453,0.0,0.0,0.0,0.0,0.0,0.0,0.0,0.0,0.0,0.0,0.0,0.0,0.0,0.0,0.0,0.0,0.0,0.0,0.0,0.0,0.0,0.0,0.0,0.0,0.0,0.0,0.0,0.0,0.0,0.0,0.0,0.0,0.0,0.0,0.0,0.0,0.0,0.0,0.0,0.0,0.0,0.0,0.0,0.0,0.0,0.0,0.0,0.0,0.0,0.0,0.0,0.0,0.0,0.0,0.0,0.0,0.0,0.0,0.0,0.0,0.0,0.0,0.0,0.0,0.0,0.0,0.0,0.0,0.0,0.0,0.0,0.0,0.0,0.0,0.0,0.0,0.0,0.0,0.0,0.0,0.0,0.0,0.0,0.0,0.0,0.0,0.0,0.0,0.0,0.0,0.0,0.0,0.0,0.0,0.0,0.0,0.0,0.0,0.0,0.0,0.0,0.0,0.0,0.0,0.0,0.0,0.0,0.0,0.6828,0.7388,0.8024,0.8083,0.7707,0.6872,0.6283,0.0,0.0,0.0,0.0,0.0,0.0,0.0,0.0,0.0,0.0,0.0,0.0,0.0,0.0,0.0,0.0,0.0,0.0,0.0,0.0,0.0,0.0,0.0,0.0,0.0,0.0,0.0,0.0,0.0,0.0,0.0,0.0,0.0,0.0,0.0,0.0,0.0,0.0,0.0,0.0,0.0,0.0,0.0,0.0,0.0,0.0,0.0,0.0,0.0,0.0,0.0,0.0,0.0,0.0,0.0,0.0,0.0,0.0,0.0,0.0,0.0,0.0,0.0,0.0,0.0,0.0,0.0,0.0,0.0,0.0,0.0,0.0,0.0,0.0,0.0,0.0,0.0,0.0,0.0,0.0,0.0,0.0,0.0,0.0,0.0,0.0,0.0,0.0,0.0,0.0,0.0,0.0,0.0,0.0,0.0,0.0,0.0,0.0,0.0,0.0,0.0,0.0,0.0,0.0,0.0,0.0,0.0,0.0,0.7352,0.8038,0.8656,0.9091,0.9279,0.815,0.7196,0.0,0.0,0.0,0.0,0.0,0.0,0.0,0.0,0.0,0.0,0.0,0.0,0.0,0.0,0.0,0.0,0.0,0.0,0.0,0.0,0.0,0.0,0.0,0.0,0.0,0.0,0.0,0.0,0.0,0.0,0.0,0.0,0.0,0.0,0.0,0.0,0.0,0.0,0.0,0.0,0.0,0.0,0.0,0.0,0.0,0.0,0.0,0.0,0.0,0.0,0.0,0.0,0.0,0.0,0.0,0.0,0.0,0.0,0.0,0.0,0.0,0.0,0.0,0.0,0.0,0.0,0.0,0.0,0.0,0.0,0.0,0.0,0.0,0.0,0.0,0.0,0.0,0.0,0.0,0.0,0.0,0.0,0.0,0.0,0.0,0.0,0.0,0.0,0.0,0.0,0.0,0.0,0.0,0.0,0.0,0.0,0.0,0.0,0.0,0.0,0.0,0.0,0.0,0.0,0.0,0.0,0.0,0.0,0.8177,0.8983,0.9617,1.0012,1.0148,0.8761,0.78,0.0,0.0,0.0,0.0,0.0,0.0,0.0,0.0,0.0,0.0,0.0,0.0,0.0,0.0,0.0,0.0,0.0,0.0,0.0,0.0,0.0,0.0,0.0,0.0,0.0,0.0,0.0,0.0,0.0,0.0,0.0,0.0,0.0,0.0,0.0,0.0,0.0,0.0,0.0,0.0,0.0,0.0,0.0,0.0,0.0,0.0,0.0,0.0,0.5821,0.0,0.0,0.0,0.0,0.0,0.0,0.0,0.0,0.0,0.0,0.0,0.0,0.0,0.0,0.0,0.0,0.0,0.0,0.0,0.0,0.0,0.0,0.0,0.0,0.0,0.0,0.0,0.0,0.0,0.0,0.0,0.0,0.0,0.0,0.0,0.0,0.0,0.0,0.0,0.0,0.0,0.0,0.0,0.0,0.0,0.0,0.0,0.0,0.0,0.0,0.0,0.0,0.0,0.0,0.0,0.0,0.0,0.0,0.0,0.8627,0.9402,0.9955,1.0339,1.0396,0.9539,0.8734,0.0,0.0,0.0,0.0,0.0,0.0,0.0,0.0,0.0,0.0,0.0,0.0,0.0,0.0,0.0,0.0,0.0,0.0,0.0,0.0,0.0,0.0,0.0,0.0,0.0,0.0,0.0,0.0,0.0,0.0,0.0,0.0,0.0,0.0,0.0,0.0,0.0,0.0,0.0,0.0,0.0,0.0,0.0,0.0,0.0,0.0,0.0,0.0,0.0,0.0,0.0,0.0,0.0,0.0,0.0,0.0,0.0,0.0,0.0,0.0,0.0,0.0,0.0,0.0,0.0,0.0,0.0,0.0,0.0,0.0,0.0,0.0,0.0,0.0,0.0,0.0,0.0,0.0,0.0,0.0,0.0,0.0,0.0,0.0,0.0,0.0,0.0,0.0,0.0,0.0,0.0,0.0,0.0,0.0,0.0,0.0,0.0,0.0,0.0,0.0,0.0,0.0,0.0,0.0,0.0,0.0,0.0,0.8078,0.8966,0.9689,1.0213,1.0473,1.0465,1.023,0.9631,0.8602,0.0,0.0,0.0,0.0,0.0,0.0,0.0,0.0,0.0,0.0,0.0,0.0,0.0,0.0,0.0,0.0,0.0,0.0,0.0,0.0,0.0,0.0,0.0,0.0,0.0,0.0,0.0,0.0,0.0,0.0,0.0,0.0,0.0,0.0,0.0,0.0,0.0,0.0,0.5284,0.5437,0.0,0.0,0.0,0.0,0.0,0.0,0.0,0.0,0.6506,0.0,0.0,0.0,0.0,0.0,0.0,0.0,0.0,0.0,0.0,0.0,0.0,0.0,0.0,0.0,0.0,0.0,0.0,0.0,0.0,0.0,0.0,0.0,0.0,0.0,0.0,0.0,0.0,0.0,0.0,0.0,0.0,0.0,0.0,0.0,0.0,0.0,0.0,0.0,0.0,0.0,0.0,0.0,0.0,0.0,0.0,0.0,0.0,0.0,0.0,0.0,0.0,0.0,0.0,0.0,0.0,0.7663,0.8406,0.9198,1.0054,1.0663,1.0975,1.0958,1.0799,1.0378,0.9757,0.0,0.0,0.0,0.0,0.0,0.0,0.0,0.0,0.0,0.0,0.0,0.0,0.0,0.0,0.0,0.0,0.0,0.0,0.0,0.0,0.0,0.0,0.0,0.0,0.0,0.0,0.0,0.0,0.0,0.0,0.0,0.0,0.0,0.0,0.0,0.0,0.0,0.0,0.0,0.572,0.5893,0.0,0.0,0.0,0.0,0.0,0.0,0.0,0.0,0.7054,0.0,0.0,0.0,0.0,0.0,0.0,0.0,0.0,0.0,0.0,0.0,0.0,0.0,0.0,0.0,0.0,0.0,0.0,0.0,0.0,0.0,0.0,0.0,0.0,0.0,0.0,0.0,0.0,0.0,0.0,0.0,0.0,0.0,0.0,0.0,0.0,0.0,0.0,0.0,0.0,0.0,0.0,0.0,0.0,0.0,0.0,0.0,0.0,0.0,0.0,0.0,0.0,0.0,0.0,0.0,0.8286,0.9042,0.9824,1.0556,1.1156,1.1302,1.1199,1.1173,1.077,0.0,0.0,0.0,0.0,0.0,0.0,0.0,0.0,0.0,0.0,0.0,0.0,0.0,0.0,0.0,0.0,0.0,0.0,0.0,0.0,0.0,0.0,0.0,0.0,0.0,0.0,0.0,0.0,0.0,0.0,0.0,0.0,0.0,0.0,0.0,0.0,0.0,0.0,0.0,0.0,0.5876,0.6009,0.6429,0.0,0.0,0.0,0.0,0.0,0.0,0.7283,0.7284,0.0,0.0,0.0,0.0,0.0,0.0,0.0,0.0,0.0,0.0,0.0,0.0,0.0,0.0,0.0,0.0,0.0,0.0,0.0,0.0,0.0,0.0,0.0,0.0,0.0,0.0,0.0,0.0,0.0,0.0,0.0,0.0,0.0,0.0,0.0,0.0,0.0,0.0,0.0,0.0,0.0,0.0,0.0,0.0,0.0,0.0,0.0,0.0,0.0,0.0,0.0,0.0,0.0,0.0,0.0,0.8796,0.9701,1.0457,1.1032,1.1496,1.1589,1.15,1.1485,1.1096,0.0,0.0,0.0,0.0,0.0,0.0,0.0,0.0,0.0,0.0,0.0,0.0,0.0,0.0,0.0,0.0,0.0,0.0,0.0,0.0,0.0,0.0,0.0,0.0,0.0,0.0,0.0,0.0,0.0,0.0,0.0,0.0,0.0,0.0,0.0,0.0,0.0,0.0,0.0,0.0,0.0,0.6236,0.6651,0.6626,0.0,0.0,0.0,0.0,0.7396,0.7574,0.0,0.0,0.0,0.0,0.0,0.0,0.0,0.0,0.0,0.0,0.0,0.0,0.0,0.0,0.0,0.0,0.0,0.0,0.0,0.0,0.0,0.0,0.0,0.0,0.0,0.0,0.0,0.0,0.0,0.0,0.0,0.0,0.0,0.0,0.0,0.0,0.0,0.0,0.0,0.0,0.0,0.0,0.0,0.0,0.0,0.0,0.0,0.0,0.0,0.0,0.0,0.0,0.0,0.0,0.0,0.0,0.9178,1.0072,1.0663,1.123,1.1675,1.2022,1.2032,1.1649,1.1487,0.0,0.0,0.0,0.0,0.0,0.0,0.0,0.0,0.0,0.0,0.0,0.0,0.0,0.0,0.0,0.0,0.0,0.0,0.0,0.0,0.0,0.0,0.0,0.0,0.0,0.0,0.0,0.0,0.0,0.0,0.0,0.0,0.0,0.0,0.0,0.0,0.0,0.0,0.0,0.0,0.0,0.6717,0.7082,0.7124,0.7208,0.0,0.0,0.8034,0.8202,0.8761,0.0,0.0,0.0,0.0,0.0,0.0,0.0,0.0,0.0,0.0,0.0,0.0,0.0,0.0,0.0,0.0,0.0,0.0,0.0,0.0,0.0,0.0,0.0,0.0,0.0,0.0,0.0,0.0,0.0,0.0,0.0,0.0,0.0,0.0,0.0,0.0,0.0,0.0,0.0,0.0,0.0,0.0,0.0,0.0,0.0,0.0,0.0,0.0,0.0,0.0,0.0,0.0,0.0,0.0,0.0,0.9308,1.0125,1.1086,1.173,1.2216,1.2553,1.2607,1.2382,1.2258,1.2073,0.0,0.0,0.0,0.0,0.0,0.0,0.0,0.0,0.0,0.0,0.0,0.0,0.0,0.0,0.0,0.0,0.0,0.0,0.0,0.0,0.0,0.0,0.0,0.0,0.0,0.0,0.0,0.0,0.0,0.0,0.0,0.0,0.0,0.0,0.0,0.0,0.0,0.0,0.0,0.0,0.0,0.0,0.7317,0.7459,0.0,0.0,0.0,0.8588,0.8784,0.0,0.0,0.0,0.0,0.0,0.0,0.0,0.0,0.0,0.0,0.0,0.0,0.0,0.0,0.0,0.0,0.0,0.0,0.0,0.0,0.0,0.0,0.0,0.0,0.0,0.0,0.0,0.0,0.0,0.0,0.0,0.0,0.0,0.0,0.0,0.0,0.0,0.0,0.0,0.0,0.0,0.0,0.0,0.0,0.0,0.0,0.0,0.0,0.0,0.0,0.0,0.0,0.0,0.0,0.0,0.0,0.0,1.0896,1.1961,1.272,1.3249,1.3439,1.3448,1.3148,1.3093,0.0,0.0,0.0,0.0,0.0,0.0,0.0,0.0,0.0,0.0,0.0,0.0,0.0,0.0,0.0,0.0,0.0,0.0,0.0,0.0,0.0,0.0,0.0,0.0,0.0,0.0,0.0,0.6394,0.0,0.0,0.0,0.0,0.0,0.0,0.0,0.0,0.0,0.0,0.0,0.0,0.0,0.0,0.7484,0.7733,0.8098,0.8334,0.0,0.0,0.929,0.9587,0.9917,1.0131,0.0,0.0,0.0,0.0,0.0,0.0,0.0,0.0,0.0,0.0,0.0,0.0,0.0,0.0,0.0,0.0,0.0,0.0,0.0,0.0,0.0,0.0,0.0,0.0,0.0,0.0,0.0,0.0,0.0,0.0,0.0,0.0,0.0,0.0,0.0,0.0,0.0,0.0,0.0,0.0,0.0,0.0,0.0,0.0,0.0,0.0,0.0,0.0,0.0,0.0,0.0,0.0,0.0,0.0,0.0,1.1538,1.2558,1.3362,1.4126,1.4159,1.4259,1.452,1.4044,1.3509,0.0,0.0,0.0,0.0,0.0,0.0,0.0,0.0,0.0,0.0,0.0,0.0,0.0,0.0,0.0,0.0,0.0,0.0,0.0,0.0,0.0,0.0,0.0,0.0,0.0,0.0,0.0,0.0,0.0,0.0,0.0,0.0,0.0,0.0,0.0,0.0,0.0,0.0,0.0,0.0,0.0,0.8396,0.8616,0.9119,0.9589,0.0,0.0,1.0467,1.0911,1.1123,1.1273,1.1184,0.0,0.0,0.0,0.0,0.0,0.0,0.0,0.0,0.0,0.0,0.0,0.0,0.0,0.0,0.0,0.0,0.0,0.0,0.0,0.0,0.0,0.0,0.0,0.0,0.0,0.0,0.0,0.0,0.0,0.0,0.0,0.0,0.0,0.0,0.0,0.0,0.0,0.0,0.0,0.0,0.0,0.0,0.0,0.0,0.0,0.0,0.0,0.0,0.0,0.0,0.0,0.0,0.0,1.1754,1.2811,1.365,1.4521,1.5417,1.5553,1.5535,1.5493,1.5068,1.4555,0.0,0.0,0.0,0.0,0.0,0.0,0.0,0.0,0.0,0.0,0.0,0.0,0.0,0.0,0.0,0.0,0.0,0.0,0.0,0.0,0.0,0.0,0.0,0.0,0.0,0.0,0.0,0.0,0.7787,0.7727,0.7716,0.0,0.0,0.0,0.0,0.0,0.0,0.0,0.0,0.0,0.0,0.921,0.9665,1.0211,0.0,0.0,1.1105,1.1568,1.1865,1.1964,1.2043,1.2331,1.2234,0.0,0.0,0.0,0.0,0.0,0.0,0.0,0.0,0.0,0.0,0.0,0.0,0.0,0.0,0.0,0.0,0.0,0.0,0.0,0.0,0.0,0.0,0.0,0.0,0.0,0.0,0.0,0.0,0.0,0.0,0.0,0.0,0.0,0.0,0.0,0.0,0.0,0.0,0.0,0.0,0.0,0.0,0.0,0.0,0.0,0.0,0.0,0.0,0.0,0.0,0.0,0.0,1.2809,1.3812,1.4676,1.5634,1.6511,1.6624,1.6634,1.6548,1.6276,1.5816,0.0,0.0,0.0,0.0,0.0,0.0,0.0,0.0,0.0,0.0,0.0,0.0,0.0,0.0,0.0,0.0,0.0,0.0,0.0,0.0,0.0,0.0,0.0,0.0,0.0,0.0,0.0,0.0,0.8716,0.8663,0.8318,0.0,0.0,0.0,0.0,0.0,0.0,0.0,0.0,0.0,0.0,1.0199,1.0721,1.121,1.1521,1.161,1.1966,1.2445,1.2791,1.2759,1.2779,1.3404,0.0,0.0,0.0,0.0,0.0,0.0,0.0,0.0,0.0,0.0,0.0,0.0,0.0,0.0,0.0,0.0,0.0,0.0,0.0,0.0,0.0,0.0,0.0,0.0,0.0,0.0,0.0,0.0,0.0,0.0,0.6921,0.0,0.0,0.0,0.0,0.0,0.0,0.0,0.0,0.0,0.0,0.0,0.0,0.0,0.0,0.0,0.0,0.0,0.0,0.0,0.0,0.0,0.0,1.3975,1.4198,1.5651,1.6671,1.7173,1.7483,1.7701,1.7891,1.7716,1.722,1.6567,0.0,0.0,0.0,0.0,0.0,0.0,0.0,0.0,0.0,0.0,0.0,0.0,0.0,0.0,0.0,0.0,0.0,0.0,0.0,0.0,0.0,0.0,0.0,0.0,0.0,0.0,0.8927,0.915,0.9304,0.0,0.0,0.0,0.0,0.0,0.0,0.0,0.0,0.0,0.0,1.0957,1.1408,1.1666,1.2073,1.2484,1.2672,1.267,1.2957,1.3646,1.3539,1.3605,0.0,0.0,0.0,0.0,0.0,0.0,0.0,0.0,0.0,0.0,0.0,0.0,0.0,0.0,0.0,0.0,0.0,0.0,0.0,0.0,0.0,0.0,0.0,0.0,0.0,0.0,0.0,0.8358,0.8353,0.0,0.0,0.0,0.0,0.0,0.0,0.0,0.0,0.0,0.0,0.0,1.1197,1.1439,0.0,0.0,0.0,0.0,0.0,0.0,0.0,0.0,0.0,0.0,0.0,0.0,1.4819,1.551,1.6834,1.7898,1.8531,1.917,1.9277,1.917,1.9078,1.8452,1.7147,0.0,0.0,0.0,0.0,0.0,0.0,0.0,0.0,0.0,0.0,0.0,0.0,0.0,0.0,0.0,0.0,0.0,0.0,0.0,0.0,0.0,0.0,0.0,0.0,0.0,0.9482,0.0,0.0,0.0,0.0,0.0,0.0,0.0,0.0,0.0,0.0,0.0,1.0568,1.1151,1.1601,1.2012,1.2597,1.291,1.3294,0.0,0.0,0.0,0.0,0.0,0.0,0.0,0.0,0.0,0.0,0.0,0.0,0.0,0.0,1.4402,1.2857,1.3241,1.385,1.3715,0.0,0.0,0.0,0.0,0.0,0.0,0.0,0.0,0.0,0.0,0.0,0.0,0.0,0.0,0.982,0.0,0.9665,0.0,0.0,0.0,0.0,0.0,0.0,0.0,0.0,1.1571,1.2114,1.2447,1.2796,1.3145,0.0,1.3665,1.3517,0.0,0.0,0.0,0.0,0.0,0.0,0.0,0.0,1.5824,1.6807,1.8112,1.9063,1.9808,2.0345,2.0409,1.9968,1.9955,1.9307,1.8308,1.7892,1.7274,0.0,0.0,0.0,0.0,0.0,0.0,0.0,0.0,0.0,0.0,0.0,0.0,0.0,0.0,0.0,0.0,0.0,0.0,0.0,0.0,0.0,0.0,0.0,1.0123,0.0,0.0,0.0,0.0,0.0,0.0,0.0,0.0,0.0,1.081,1.1153,1.167,1.2108,1.2563,1.2969,1.3489,0.0,0.0,0.0,0.0,0.0,0.0,0.0,1.4799,1.5707,1.6823,1.7462,1.6926,1.6955,1.704,1.704,0.0,0.0,1.4144,1.4655,1.5509,1.5696,1.5989,1.643,1.6969,1.7367,1.7746,0.0,0.0,0.0,0.0,0.0,0.0,0.0,0.0,1.1439,1.1221,0.0,1.0746,0.0,0.0,0.0,0.0,0.0,1.121,0.0,0.0,1.3173,1.3655,1.3673,1.4386,1.4843,1.5078,1.5204,1.5356,1.5386,1.4445,0.0,0.0,0.0,0.0,0.0,0.0,1.7103,1.8009,1.9182,2.016,2.0674,2.103,2.0964,2.0613,2.0295,2.0031,1.9945,1.898,1.8522,1.8637,1.6757,0.0,0.0,0.0,0.0,0.0,0.0,0.0,0.0,0.0,0.0,0.0,0.0,0.0,0.0,0.0,0.0,0.0,0.0,0.0,0.0,1.0947,0.0,0.0,0.0,0.0,0.0,0.0,0.0,0.0,0.0,0.0,1.1936,1.2116,1.253,1.3049,0.0,0.0,0.0,0.0,1.4967,1.4708,1.4907,1.5107,1.5376,1.519,1.555,1.6777,0.0,0.0,1.8299,1.835,1.8364,1.8364,1.8899,1.8489,1.6111,1.6359,1.7151,1.7736,1.7736,1.7663,1.7854,1.848,1.9191,1.3147,0.0,0.0,0.0,0.0,1.2221,1.2474,1.2716,1.2716,1.2566,1.2249,1.2249,0.0,0.0,0.0,0.0,0.0,0.0,1.2866,1.3226,1.4011,1.4576,1.4955,1.5227,1.5407,1.5789,1.5911,1.5972,1.6058,1.6132,1.5798,1.5089,0.0,0.0,0.0,0.0,1.8218,1.8881,2.0362,2.1141,2.1349,2.1919,2.1986,2.1608,2.149,2.1121,2.0608,2.016,1.9649,1.897,1.8277,0.0,0.0,0.0,0.0,0.0,0.0,0.0,0.0,0.0,0.0,0.0,0.0,0.0,0.0,0.0,0.0,0.0,0.0,0.0,1.1508,1.1478,1.1398,0.0,0.0,0.0,0.0,0.0,0.0,0.0,0.0,0.0,1.3806,1.3256,1.2847,0.0,0.0,1.4267,1.4947,1.5127,1.5252,1.5758,1.6048,0.0,1.6849,1.6451,1.654,1.7754,1.876,1.9361,1.933,1.9738,2.0,1.9992,2.0279,2.0257,1.9671,1.9506,1.9803,2.049,2.0319,2.0047,2.0255,2.0537,2.0798,1.5551,1.4502,1.3493,1.3121,1.3232,1.3502,1.3761,1.3996,1.3996,1.3855,1.3526,1.352,1.3142,1.2566,1.2566,0.0,0.0,0.0,1.385,1.4207,1.4829,1.5365,1.5822,1.6141,1.6463,1.6794,1.7108,1.7213,1.7311,1.7502,1.7489,1.7225,0.0,0.0,1.7247,1.8221,1.9164,2.0097,2.1225,2.1896,2.2139,2.2544,2.2537,2.2204,2.2055,2.1808,2.1219,2.0958,2.0591,1.9887,1.9318,1.8683,0.0,0.0,0.0,0.0,0.0,0.0,0.0,0.0,0.0,0.0,0.0,1.2013,1.1878,0.0,0.0,0.0,1.2536,1.2586,1.2439,1.2338,0.0,0.0,0.0,0.0,0.0,0.0,0.0,1.3895,1.4447,1.4813,1.491,1.452,1.4031,1.3395,1.4216,1.5207,1.6122,0.0,1.6326,1.6902,1.7186,1.7566,1.8051,1.7613,1.7825,1.9605,2.0149,2.0345,2.0476,2.0955,2.1277,2.1284,2.1505,2.1631,2.1478,2.1651,2.1854,2.2241,2.1852,2.1409,2.1616,2.1977,2.2357,1.7892,1.7639,1.5245,1.4358,1.4576,1.4757,1.501,1.5234,1.5234,1.4975,1.4518,1.4512,1.4119,1.3443,1.3443,0.0,1.4087,1.4359,1.4701,1.5155,1.5749,1.6125,1.648,1.7283,1.7773,1.8144,1.8373,1.8705,1.8892,1.8741,1.8819,1.9306,1.8168,1.7913,1.8464,1.9089,2.0139,2.1518,2.1979,2.2442,2.2998,2.3029,2.2784,2.2419,2.2404,2.2146,2.1733,2.147,2.1228,2.1063,2.0046,1.9474,1.9256,0.0,0.0,0.0,0.0,0.0,0.0,0.0,0.0,0.0,0.0,0.0,0.0,0.0,0.0,0.0,1.352,0.0,1.377,1.3368,0.0,0.0,0.0,1.3605,1.4128,1.4456,1.4756,1.5003,0.0,0.0,1.551,1.5834,1.5771,1.4793,1.5689,1.6706,1.75,1.7592,1.7833,1.8108,1.8373,1.8597,1.8919,1.8766,1.9291,2.1449,2.1654,2.1405,2.1539,2.191,2.2124,2.2139,2.2511,2.2588,2.2236,2.2852,2.3544,2.3351,2.2779,2.2249,2.2328,2.2997,2.3642,1.9257,1.8854,1.7882,1.7112,1.6573,1.6535,1.6696,1.6642,1.6429,1.6054,1.5509,1.5509,1.5215,1.4624,1.4624,1.476,1.4825,1.5089,1.5451,1.5756,1.6324,1.6794,1.7296,1.7792,1.8079,1.8373,1.8698,1.8809,1.8913,1.9276,1.9448,1.9327,1.944,1.9517,1.9456,2.0185,2.0914,2.1634,2.2088,2.2775,2.3352,2.3607,2.3365,2.2716,2.2847,2.2716,2.2046,2.1877,2.1748,2.1744,2.096,2.0429,2.0035,1.8939,0.0,0.0,0.0,0.0,0.0,0.0,0.0,0.0,0.0,1.315,1.2788,0.0,1.3294,0.0,1.3984,1.4322,1.4322,1.4177,0.0,0.0,1.4336,1.4676,1.4756,1.5411,1.5792,1.5638,1.5976,1.6289,1.6231,1.6472,1.695,1.7427,1.7192,1.7297,1.7991,1.8146,1.8358,1.8707,1.909,1.9556,1.9802,1.9997,2.0537,2.1902,2.2122,2.2138,2.1994,2.2505,2.2844,2.2867,2.341,2.3411,2.2897,2.3598,2.4604,2.515,2.4679,2.4023,2.4031,2.4276,2.4622,2.0917,2.0644,2.0132,1.9548,1.8925,1.7955,1.7588,1.7582,1.726,1.6858,1.6459,1.6357,1.603,1.5656,1.5765,1.5753,1.5662,1.6016,1.6353,1.6479,1.7104,1.7644,1.7988,1.8374,1.8632,1.9097,1.9203,1.9422,1.9759,2.0089,2.0226,2.0406,2.0838,2.0992,2.0773,2.0961,2.1396,2.1965,2.2525,2.31,2.368,2.3929,2.3711,2.2828,2.3005,2.2783,2.1965,2.1948,2.1855,2.1586,2.1276,2.0787,2.03,1.9376,1.8674,0.0,0.0,0.0,0.0,0.0,0.0,0.0,0.0,0.0,0.0,0.0,1.4084,1.4188,1.4763,1.5104,1.5097,1.5104,1.509,1.507,1.5351,1.5598,1.5725,1.6293,1.66,1.644,1.6934,1.7244,1.6944,1.7434,1.7934,1.8519,1.8517,1.8577,1.8932,1.9022,1.9133,1.9597,1.9975,2.0305,2.064,2.0754,2.138,2.272,2.3121,2.306,2.3029,2.3293,2.3543,2.3551,2.3927,2.4204,2.4016,2.4459,2.5316,2.5888,2.5905,2.5365,2.4833,2.5126,2.5477,2.2697,2.2315,2.2074,2.1678,2.1247,1.9429,1.8506,1.8361,1.8032,1.7671,1.7297,1.6943,1.6685,1.6484,1.6709,1.6685,1.649,1.7036,1.7247,1.7365,1.7843,1.8328,1.8571,1.8844,1.9341,1.9809,1.9924,2.0155,2.0723,2.0838,2.1189,2.1668,2.2002,2.2189,2.2095,2.1611,2.1644,2.2411,2.3069,2.3516,2.3838,2.4139,2.3829,2.2798,2.2946,2.2627,2.1848,2.1796,2.1648,2.1325,2.1255,2.1006,2.0529,1.9815,1.9273,0.0,1.822,0.0,0.0,0.0,0.0,0.0,0.0,0.0,0.0,1.4789,1.4916,1.5174,1.5591,1.5899,1.5932,1.5939,1.6046,1.6299,1.6366,1.6486,1.674,1.7027,1.7221,1.7261,1.7729,1.7941,1.7797,1.8368,1.8791,1.8978,1.9496,1.9873,1.9976,1.9765,1.9828,2.0573,2.0874,2.0967,2.1081,2.1292,2.2007,2.3753,2.4186,2.4228,2.4023,2.4196,2.4244,2.4244,2.4545,2.4911,2.5204,2.5501,2.5857,2.6374,2.6529,2.6327,2.5611,2.5763,2.6194,2.3417,2.3355,2.3009,2.2853,2.2769,2.178,2.078,1.9867,1.9287,1.8695,1.8246,1.7684,1.7452,1.7296,1.7123,1.7229,1.7296,1.7229,1.747,1.7922,1.8268,1.8518,1.8818,1.9395,1.9645,1.9815,2.0263,2.0601,2.0716,2.1189,2.1546,2.1668,2.2237,2.2636,2.2895,0.0,0.0,0.0,2.3386,2.372,2.3787,2.3827,2.3494,2.2689,2.2866,0.0,2.1848,2.1986,2.2055,2.1881,2.1684,0.0,0.0,0.0,0.0,0.0,0.0,0.0,0.0,0.0,0.0,0.0,1.747,1.6676,1.5282,1.5219,1.5483,1.5965,1.6126,1.6286,1.652,1.654,1.656,1.662,1.684,1.7007,1.7074,1.7328,1.7595,1.7849,1.7983,1.8114,1.8295,1.8486,1.8884,1.9828,2.0169,2.0291,2.0544,2.0509,2.0537,2.0723,2.1408,2.1678,2.1256,2.1576,2.2541,2.433,2.4891,2.4655,2.4244,2.4555,2.4843,2.4971,2.543,2.5861,2.6064,2.6332,2.6478,2.6943,2.696,2.69,2.6394,2.6661,2.6961,2.4707,0.0,2.4436,2.4213,0.0,2.3388,2.2749,2.2101,2.0614,1.9713,1.9118,1.8516,1.8152,1.8023,1.7824,1.7805,1.7804,1.7932,1.8217,1.8464,1.8981,1.9345,1.9597,1.9999,2.0371,2.0725,2.1071,2.1423,2.1657,2.2015,2.2372,2.2604,2.2952,2.3292,2.3868,2.422,2.4298,2.3844,2.4192,2.4387,2.4548,2.4528,2.4067,2.3341,0.0,0.0,0.0,0.0,0.0,0.0,0.0,0.0,0.0,0.0,0.0,2.0857,2.0506,2.0186,1.9818,1.9556,1.9161,1.867,1.8111,1.7363,1.6155,1.6069,1.6233,1.666,1.6707,1.682,1.7101,1.7141,1.7134,1.7148,1.7275,1.7415,1.7575,1.7722,1.7936,1.8223,1.839,1.8479,1.8472,1.877,1.9266,2.0155,2.0557,2.078,2.073,2.0723,2.0881,2.1292,2.1664,2.2075,2.2068,2.1831,2.2535,2.45,2.5324,2.5381,2.4956,2.5326,2.5561,2.5577,2.596,2.6441,2.6441,2.6692,2.6952,2.7073,2.7081,2.7081,2.6822,2.6952,2.7194,2.591,2.5646,2.5654,2.5473,2.5184,2.4647,2.4346,2.4015,0.0,0.0,0.0,1.9616,1.9223,1.8964,1.8739,1.8597,1.8403,1.8848,1.8979,1.9155,1.9635,2.0111,2.0363,2.0715,2.1194,2.1668,2.1795,2.2154,2.2744,2.2751,2.3139,2.366,2.3787,2.4174,2.4956,2.5553,2.5636,2.543,2.5172,2.5138,2.5353,2.5214,2.4867,2.4105,2.442,2.4146,2.3322,2.3374,2.3211,2.2876,2.2858,2.2667,2.218,2.1803,2.1552,2.1251,2.0865,2.0636,2.0363,2.011,1.9749,1.9353,1.864,1.8003,1.7232,1.7038,1.711,1.7407,1.7331,1.7432,1.7667,1.7582,1.7609,1.7655,1.7662,1.7782,1.807,1.8123,1.8346,1.8635,1.887,1.8911,1.8798,1.9253,1.9788,2.0392,2.1003,2.1276,2.1032,2.1061,2.1415,2.2191,2.2334,2.2498,2.2893,2.2676,2.2833,2.4827,2.5725,2.5905,2.5864,2.5961,2.6197,2.6172,2.6449,2.6692,2.67,2.6943,2.7081,2.7081,2.7133,2.7167,2.7176,2.7227,2.7392,2.605,2.6001,2.6001,2.5968,2.5902,2.5605,2.5062,2.4408,2.2994,2.2372,2.2246,2.1539,2.1123,2.0847,1.9956,1.9713,1.9908,1.9463,1.9496,1.9986,2.0388,2.065,2.065,2.1293,2.1548,2.1668,2.2049,2.2289,2.2632,2.2885,2.338,2.3987,2.4627,2.5381,2.6273,2.6669,2.6996,2.714,2.6275,2.5613,2.5197,2.516,2.4801,2.4056,2.4365,2.4215,2.3791,2.398,2.4042,2.3987,2.3978,2.3781,2.3574,2.3233,2.3,2.2711,2.2451,2.2045,2.1494,2.1192,2.071,2.0059,1.9904,1.9294,1.7999,1.7876,1.7928,1.822,1.8067,1.7864,1.7911,1.7826,1.7722,1.7943,1.7983,1.8096,1.839,1.8638,1.8863,1.9268,1.9555,1.9559,1.9374,1.9977,2.0529,2.101,2.1521,2.1832,2.2143,2.2086,2.2338,2.2875,2.3291,2.3572,2.3754,2.426,2.4692,2.5562,2.5847,2.6011,2.6083,2.6327,2.6571,2.6571,2.6822,2.6952,2.6952,2.7073,2.7107,2.7133,2.7321,2.7518,2.7544,2.7766,2.8028,2.7292,2.7266,2.6949,2.6856,2.6831,2.6365,2.5865,2.534,2.4852,2.4037,2.3108,2.2505,2.2067,2.1705,2.1103,2.0865,2.0745,2.0499,2.0455,2.0718,2.1126,2.1317,2.1589,2.1975,2.2306,2.2422,2.2804,2.317,2.3399,2.3779,2.4229,2.4613,2.5351,2.5918,2.6562,2.7056,2.7409,2.7495,2.6824,2.6478,2.6505,2.6145,2.5873,2.5505,2.5548,2.5459,2.5039,2.5133,2.5032,2.4821,2.4812,2.471,2.4506,2.419,2.3874,2.3565,2.335,2.3048,2.2624,2.2006,2.1473,2.1164,2.088,2.0422,1.9699,1.9247,1.8993,1.8912,1.8826,1.8718,1.8718,1.861,1.8665,1.87,1.8714,1.8837,1.9097,1.9271,1.95,1.9777,1.9946,1.9981,1.9943,2.0479,2.1118,2.1606,2.197,2.2543,2.331,2.352,2.3565,2.3727,2.387,2.4177,2.4475,2.5431,2.5945,2.5913,2.6141,2.6377,2.6457,2.67,2.6822,2.6822,2.7073,2.7081,2.709,2.7244,2.733,2.7398,2.7514,2.7727,2.7955,2.8355,2.8789,2.8194,2.816,2.7869,2.7732,2.7706,2.7093,2.6688,2.6436,2.6222,2.5512,2.4317,2.3569,2.3052,2.2737,2.2257,2.1896,2.1534,2.1413,2.1455,2.1425,2.1772,2.2001,2.2269,2.2623,2.2899,2.3333,2.3598,2.4011,2.4462,2.4719,2.5046,2.5469,2.5994,2.6327,2.6692,2.728,2.7513,2.7624,2.7362,2.7414,2.7534,2.729,2.7015,2.6807,2.6765,2.6527,2.6133,2.6096,2.5958,2.5674,2.5647,2.5496,2.5186,2.4957,2.4606,2.4211,2.3982,2.3665,2.3241,2.2601,2.2172,2.2172,2.1821,2.1534,2.1433,2.0955,2.0377,1.9931,1.9764,1.9669,1.9545,1.9552,1.9491,1.9548,1.9562,1.9695,1.9963,2.0139,2.0338,2.058,2.0615,2.0709,2.068,2.1052,2.1713,2.2307,2.2767,2.3434,2.4244,2.4667,2.4707,2.4593,2.4384,2.4632,2.5218,2.606,2.6469,2.6011,2.6499,2.6743,2.6709,2.6952,2.7073,2.7081,2.7158,2.7218,2.7235,2.7492,2.7698,2.7766,2.7889,2.8044,2.846,2.8802,2.9386,2.8203,2.8194,2.816,2.8134,2.8083,2.7723,2.7429,2.7386,2.6836,2.6545,2.6211,2.5245,2.4688,2.4314,2.3445,2.283,2.2457,2.222,2.2124,2.2103,2.2298,2.2563,2.2563,2.2849,2.3385,2.3903,2.406,2.4591,2.549,2.5529,2.589,2.6446,2.6494,2.6726,2.709,2.7427,2.765,2.802,2.8233,2.8172,2.7921,2.8073,2.793,2.7196,2.7141,2.694,2.6554,2.6536,2.6518,2.6481,2.6454,2.6298,2.5958,2.5691,2.5209,2.4562,2.4202,2.3877,2.3356,2.3036,2.2848,2.2848,2.3037,2.2881,2.245,2.2609,2.2188,2.1292,2.0689,2.0508,2.0252,2.0048,1.9957,1.9962,2.0103,2.0336,2.0587,2.1137,2.1395,2.1417,2.1653,2.1737,2.1252,2.1782,2.2505,2.3352,2.3917,2.4598,2.5247,2.5539,2.5695,2.5781,2.5489,2.5351,2.5806,2.6083,2.6369,2.6466,2.6579,2.6847,2.7107,2.7245,2.7098,2.7435,2.7381,2.7675,2.7638,2.786,2.8126,2.8177,2.8426,2.8648,2.9085,2.9188,2.9466,2.8854,2.8828,2.8622,2.84,2.8186,2.8015,2.7955,2.7912,2.742,2.7136,2.7102,2.6297,2.5635,2.514,2.4522,2.4147,2.3779,2.3409,2.3229,2.2981,2.3113,2.3208,2.3257,2.3272,2.3701,2.4381,2.466,2.4985,2.563,2.6032,2.6582,2.7202,2.7294,2.7467,2.7954,2.8114,2.8365,2.8608,2.8745,2.8664,2.861,2.8507,2.8242,2.7911,2.7664,2.7343,2.6985,2.694,2.683,2.6619,2.6591,2.6518,2.6344,2.6109,2.5811,2.5433,2.4975,2.4542,2.425,2.3913,2.3804,2.3812,2.3726,2.3587,2.3357,2.3279,2.2991,2.2545,2.1919,2.1481,2.1361,2.1257,2.1197,2.1195,2.1338,2.139,2.1509,2.1767,2.1888,2.1881,2.223,2.2283,2.2047,2.2998,2.3921,2.4447,2.4858,2.5407,2.6024,2.6329,2.6644,2.6996,2.6858,2.6486,2.6302,2.6726,2.6864,2.696,2.7039,2.7427,2.7826,2.8157,2.8228,2.8034,2.8199,2.8179,2.8312,2.8624,2.8911,2.8844,2.8931,2.9136,2.9282,2.9307,2.9438,2.9307,2.9265,2.9025,2.8768,2.8494,2.8391,2.8357,2.8306,2.7938,2.7766,2.7741,2.7238,2.6759,2.6241,2.5691,2.5226,2.4857,2.4487,2.4285,2.3988,2.3871,2.3799,2.3833,2.3863,2.429,2.4825,2.526,2.5703,2.6292,2.6713,2.7313,2.7815,2.7849,2.8177,2.8645,2.8783,2.8905,2.9238,2.9331,2.9259,2.9131,2.8865,2.8618,2.8397,2.8095,2.7756,2.7361,2.7233,2.705,2.6774,2.6646,2.6591,2.6582,2.6364,2.6136,2.6017,2.545,2.5128,2.4821,2.4599,2.4487,2.4487,2.4256,2.4144,2.4033,2.3817,2.3697,2.3456,2.2901,2.2433,2.223,2.223,2.223,2.2108,2.2177,2.2368,2.2375,2.2544,2.2866,2.2842,2.3142,2.3126,2.3223,2.442,2.557,2.5427,2.5813,2.6175,2.6662,2.7116,2.7539,2.79,2.7873,2.7495,2.6805,2.722,2.7635,2.7722,2.7825,2.8078,2.8649,2.8905,2.9091,2.8587,2.8815,2.8972,2.8998,2.927,2.9515,2.943,2.9336,2.9404,2.9265,2.929,2.9307,2.9307,2.9307,2.929,2.9248,2.9222,2.8888,2.8751,2.8725,2.834,2.8169,2.8169,2.8117,2.8126,2.7932,2.6669,2.5864,2.5627,2.5282,2.5085,2.4959,2.447,2.4261,2.4568,2.4583,2.4885,2.5588,2.5866,2.6664,2.7455,2.7573,2.7814,2.8193,2.829,2.8346,2.8733,2.9083,2.9288,2.9644,2.9961,2.9929,2.9589,2.9516,2.9131,2.8535,2.8379,2.8168,2.7765,2.7389,2.7169,2.7141,2.6802,2.6609,2.6591,2.6591,2.6354,2.5798,2.5459,2.5119,2.4812,2.4821,2.4821,2.4821,2.471,2.4599,2.4376,2.4264,2.4041,2.3585,2.3472,2.3135,2.2722,2.2632,2.2503,2.2291,2.2774,2.3045,2.3068,2.3761,2.4452,2.4436,2.452,2.4653,2.4844,2.6092,2.6525,2.6432,2.6773,2.734,2.7443,2.7744,2.8011,2.802,2.8029,2.802,2.7908,2.8144,2.8407,2.8576,2.8718,2.8816,2.896,2.9181,2.9199,2.9297,2.9689,2.9867,2.9811,2.9824,2.988,2.9821,2.97,2.9665,2.9526,2.9421,2.9307,2.9307,2.9307,2.9307,2.9307,2.929,2.917,2.9119,2.9085,2.8725,2.8571,2.852,2.8314,2.8194,2.8169,2.7662,2.7285,2.691,2.6409,2.5977,2.5834,2.5331,2.513,2.529,2.5189,2.5626,2.6308,2.6479,2.7065,2.7957,2.8254,2.8589,2.8963,2.9094,2.9412,2.9771,2.9823,3.0077,3.0418,3.0332,3.0121,2.9965,2.9718,2.9415,2.9149,2.8902,2.859,2.8177,2.8031,2.7719,2.7196,2.704,2.6848,2.6619,2.6591,2.6364,2.5798,2.5569,2.5357,2.4923,2.4821,2.4821,2.4821,2.4821,2.471,2.4607,2.4496,2.4273,2.4041,2.3705,2.344,2.3544,2.3363,2.3134,2.3059,2.3425,2.3872,2.4013,2.4343,2.4651,2.4784,2.5,2.5241,2.5873,2.6662,2.7013,2.7107,2.7314,2.7624,2.802,2.8277,2.8388,2.8672,2.9075,2.9369,2.9369,2.9137,2.9246,2.966,2.9993,3.0414,3.0655,3.0659,3.0705,3.0547,3.0665,3.0692,3.0746,3.0516,3.0576,3.0602,3.049,3.0074,2.9813,2.9683,2.943,2.9709,2.9709,2.9709,2.9569,2.943,2.943,2.9438,2.9282,2.9059,2.8956,2.8896,2.8665,2.8545,2.8554,2.8554,2.8418,2.812,2.7416,2.6848,2.6689,2.6198,2.5997,2.6013,2.5919,2.6175,2.6635,2.6918,2.7459,2.8403,2.8675,2.9053,2.943,2.9683,3.0083,3.0446,3.048,3.0601,3.0919,3.0717,3.0543,3.0387,3.0121,2.9819,2.958,2.9314,2.8993,2.8599,2.8462,2.8159,2.7627,2.7334,2.6995,2.6637,2.6591,2.6364,2.5907,2.5798,2.5467,2.5026,2.4812,2.4821,2.4821,2.4821,2.4821,2.4821,2.4599,2.4487,2.4281,2.4165,2.3991,2.3982,2.3977,2.3949,2.3785,2.4133,2.4451,2.4711,2.5062,2.5357,2.5644,2.5752,2.61,2.6551,2.691,2.7142,2.7521,2.7521,2.7891,2.8397,2.8645,2.8819,2.9159,2.9638,3.0074,3.0409,3.0417,3.0408,3.0773,3.0866,3.1454,3.1893,3.2017,3.1898,3.1789,3.1644,3.1515,3.1396,3.1267,3.1285,3.1313,3.0897,3.0473,3.0204,2.9813,2.9691,3.0387,3.0378,3.0369,3.01,2.9822,2.9813,2.9561,2.9438,2.929,2.9387,2.9361,2.9248,2.9188,2.9248,2.9179,2.9248,2.8972,2.8187,2.7694,2.7563,2.6937,2.6711,2.6604,2.6612,2.6745,2.68,2.7443,2.799,2.8667,2.8807,2.9185,2.9691,2.9813,3.0222,3.087,3.0834,3.1102,3.1322,3.1396,3.113,3.0837,3.0843,3.0475,2.9858,2.9702,2.9351,2.8993,2.8627,2.8407,2.826,2.7646,2.7031,2.671,2.6637,2.65,2.6127,2.5798,2.556,2.5229,2.4915,2.4821,2.4821,2.4821,2.4821,2.4821,2.4821,2.4727,2.4589,2.4679,2.4686,2.4276,2.4614,2.473,2.4276,2.473,2.5068,2.5373,2.5973,2.6684,2.6875,2.6866,2.7056,2.7064,2.7185,2.7315,2.753,2.7771,2.814,2.8535,2.881,2.9186,2.9554,3.0092,3.0663,3.1304,3.1787,3.1893,3.1903,3.1922,3.2152,3.2352,3.2495,3.2467,3.2284,3.2157,3.2029,3.191,3.1782,3.1506,3.1525,3.112,3.0741,3.0343,2.9952,2.9691,3.0618,3.0387,3.0378,3.0369,3.023,3.023,3.01,3.01,3.0109,2.997,2.9691,2.9691,2.9561,2.9307,2.9307,2.9307,2.9282,2.8929,2.8504,2.8064,2.7678,2.7198,2.7043,2.7067,2.7193,2.7451,2.7857,2.8395,2.8807,2.9062,2.9438,2.9813,3.0083,3.049,3.0879,3.1129,3.1387,3.1653,3.1782,3.1835,3.1823,3.1678,3.1396,3.1123,3.0372,2.9879,2.9749,2.9131,2.8682,2.8416,2.8159,2.771,2.7141,2.6995,2.6747,2.6163,2.5907,2.556,2.5229,2.4915,2.4821,2.4821,2.4821,2.4821,2.4821,2.4838,2.4949,2.5025,2.4969,2.4951,2.5369,2.5398,2.5259,2.4795,2.5222,2.5659,2.6023,2.6624,2.6935,2.7081,2.7081,2.7081,2.7202,2.7332,2.7694,2.7779,2.8148,2.8397,2.8792,2.9103,2.9527,2.9953,3.0597,3.1266,3.1855,3.2382,3.2585,3.2575,3.2585,3.2594,3.2806,3.2921,3.2921,3.2794,3.254,3.2549,3.2422,3.2166,3.1891,3.1763,3.1387,3.1,3.0482,3.0091,2.9831,3.1334,3.0992,3.0983,3.0885,3.0638,3.0629,3.0499,3.0378,3.0378,3.023,3.0091,3.0091,2.9961,2.97,2.9569,2.943,2.943,2.9307,2.9053,2.8535,2.8122,2.7724,2.7459,2.7326,2.7592,2.7981,2.8263,2.8667,2.893,2.9307,2.97,3.0091,3.0361,3.075,3.1,3.1249,3.1506,3.1791,3.1919,3.2038,3.2237,3.2156,3.1939,3.173,3.1153,3.0513,3.0111,2.9702,2.914,2.8663,2.848,2.8067,2.7471,2.7389,2.7167,2.6836,2.6313,2.5892,2.5652,2.5223,2.4923,2.4821,2.4821,2.4898,2.4975,2.5026,2.5189,2.5506,2.5605,2.5628,2.5932,2.6064,2.5865,2.5753,2.5813,2.6205,2.67,2.6952,2.7081,2.7081,2.7081,2.7081,2.7202,2.7574,2.7935,2.8029,2.8268,2.8745,2.9066,2.9415,2.9869,3.0409,3.1114,3.1846,3.2363,3.2826,3.3243,3.3243,3.3214,3.3194,3.3272,3.3165,3.3165,3.3165,3.3048,3.2912,3.2921,3.2422,3.2029,3.191,3.1653,3.1129,3.0611,3.0361,3.0109,3.2395,3.2056,3.2038,3.1547,3.0961,3.0942,3.0795,3.0499,3.0499,3.0499,3.0369,3.0369,3.0369,3.0239,2.9961,2.9848,2.9726,2.9647,2.9321,2.895,2.8552,2.8161,2.7903,2.7903,2.8052,2.8428,2.8818,2.9049,2.9504,2.969,2.9996,3.044,3.0656,3.1,3.1249,3.1377,3.1644,3.1919,3.2047,3.2166,3.2549,3.2521,3.2359,3.1988,3.1855,3.1256,3.0616,3.0111,2.973,2.8993,2.8627,2.8287,2.7902,2.7801,2.7783,2.7664,2.7033,2.6664,2.6211,2.5707,2.5181,2.5001,2.5018,2.5009,2.5343,2.5412,2.5557,2.5925,2.6208,2.6329,2.6244,2.6344,2.652,2.6562,2.6554,2.67,2.7073,2.7081,2.7081,2.7081,2.7081,2.7073,2.7194,2.7565,2.7797,2.8029,2.8397,2.8901,2.9313,2.9784,3.0257,3.0866,3.1605,3.2218,3.2719,3.301,3.3418,3.3418,3.3418,3.3418,3.3418,3.3418,3.3418,3.3292,3.3292,3.3292,3.3165,3.2667,3.2422,3.2166,3.1782,3.1138,3.075,3.0499,3.01,3.2817,3.245,3.2441,3.2203,3.1742,3.1714,3.1532,3.1156,3.1138,3.1027,3.075,3.075,3.0638,3.0378,3.0387,3.025,3.0197,3.0125,3.004,2.9843,2.9327,2.8919,2.8518,2.8502,2.8903,2.9445,2.9539,2.975,3.0112,3.0238,3.0513,3.0768,3.0885,3.1138,3.1377,3.1644,3.191,3.2294,3.2549,3.2794,3.3038,3.3048,3.3117,3.3,3.2459,3.2085,3.1665,3.0635,2.9777,2.903,2.8902,2.8645,2.8269,2.8223,2.8113,2.7847,2.7473,2.7041,2.6681,2.6347,2.596,2.5643,2.5566,2.5686,2.5763,2.5788,2.5977,2.6268,2.6456,2.6619,2.6739,2.6892,2.6943,2.6943,2.6952,2.6952,2.7073,2.7081,2.7081,2.7081,2.7081,2.7185,2.7418,2.7806,2.8175,2.8406,2.869,2.9057,2.9562,3.0061,3.0535,3.1261,3.1986,3.2574,3.299,3.3262,3.3418,3.3418,3.3418,3.3418,3.3418,3.3418,3.3418,3.3418,3.3418,3.3418,3.3165,3.2794,3.2667,3.2422,3.1653,3.1009,3.049,3.023,2.9831,3.323,3.2854,3.2863,3.2625,3.2276,3.2249,3.2019,3.1689,3.1643,3.1404,3.1165,3.112,3.1099,3.1132,3.0889,3.0839,3.0891,3.0784,3.0494,3.0267,2.9881,2.9459,2.8964,2.9069,2.9489,2.99,3.0045,3.0293,3.0658,3.0746,3.0981,3.1175,3.1231,3.1431,3.1377,3.1782,3.2047,3.2422,3.2794,3.3048,3.3418,3.3418,3.3418,3.3389,3.2913,3.2633,3.1989,3.0917,2.9953,2.925,2.8966,2.8874,2.8682,2.8645,2.8517,2.8278,2.79,2.757,2.7187,2.6849,2.6397,2.605,2.5934,2.6028,2.6122,2.6174,2.6328,2.667,2.6722,2.685,2.7004,2.7081,2.7081,2.7081,2.7081,2.7081,2.7081,2.7081,2.7081,2.7073,2.7185,2.7297,2.7521,2.8037,2.8295,2.8571,2.8937,2.9322,2.98,3.0309,3.0937,3.1687,3.2273,3.2815,3.3146,3.3282,3.3418,3.3418,3.3418,3.3418,3.3418,3.3418,3.3418,3.3418,3.3418,3.3292,3.3038,3.2794,3.2422,3.2038,3.1396,3.0888,3.0499,2.9961,2.9691,3.3606,3.3285,3.3285,3.3046,3.2698,3.2652,3.2432,3.2111,3.2065,3.1873,3.1634,3.1533,3.179,3.2065,3.1688,3.1621,3.1584,3.1313,3.0822,3.0703,3.0459,3.0085,2.9469,2.9738,3.0144,3.0265,3.0429,3.0746,3.1181,3.1393,3.1541,3.17,3.1829,3.1808,3.1681,3.1828,3.2038,3.2422,3.2794,3.3175,3.3292,3.3418,3.3418,3.3408,3.3398,3.2758,3.1922,3.1142,3.0287,2.9159,2.9076,2.903,2.9003,2.8966,2.8948,2.8874,2.8608,2.821,2.7579,2.723,2.6804,2.6265,2.614,2.6182,2.6473,2.6559,2.6679,2.6961,2.7073,2.7047,2.7064,2.7081,2.7081,2.7081,2.7081,2.7081,2.7081,2.7081,2.7073,2.7185,2.7409,2.7521,2.7771,2.814,2.8544,2.8862,2.9258,2.9681,3.0171,3.0692,3.1341,3.2115,3.261,3.3009,3.3165,3.3418,3.3418,3.3418,3.3418,3.3418,3.3418,3.3418,3.3418,3.3418,3.3418,3.3292,3.3048,3.2667,3.2294,3.1782,3.1138,3.0906,3.0535,2.997,2.9561,3.3771,3.3688,3.3679,3.3459,3.312,3.3083,3.2854,3.2469,3.2469,3.2404,3.2331,3.2313,3.2368,3.2469,3.2363,3.2286,3.1948,3.1855,3.1565,3.0907,3.1239,3.0983,3.06,3.0707,3.0873,3.1137,3.1302,3.1573,3.1792,3.1952,3.2067,3.2313,3.2208,3.1964,3.1976,3.2078,3.2294,3.254,3.2921,3.3292,3.3292,3.3418,3.3418,3.3418,3.3418,3.2826,3.1988,3.1683,3.1028,3.0116,2.9635,2.9379,2.9104,2.9021,2.9012,2.8966,2.892,2.8601,2.7988,2.7763,2.7516,2.6867,2.673,2.6859,2.6919,2.6927,2.697,2.7073,2.7081,2.7081,2.7081,2.7081,2.7081,2.7081,2.7081,2.7081,2.7081,2.7081,2.7185,2.7409,2.7521,2.7642,2.8148,2.8397,2.8754,2.9249,2.9644,2.9929,3.042,3.1067,3.1664,3.2412,3.2794,3.3048,3.3292,3.3418,3.3418,3.3418,3.3418,3.3418,3.3418,3.3418,3.3418,3.3418,3.3418,3.3165,3.2921,3.2549,3.2175,3.1653,3.1009,3.0638,3.0257,2.97,2.943,3.3817,3.3817,3.3817,3.3688,3.3514,3.3486,3.3266,3.2945,3.289,3.2771,3.2625,3.2597,3.2707,3.2881,3.2909,3.2702,3.2311,3.1957,3.1634,3.1384,3.1559,3.1418,3.1277,3.1285,3.1427,3.1568,3.1683,3.1973,3.2333,3.248,3.2699,3.2939,3.2618,3.2377,3.2178,3.2422,3.2611,3.2568,3.3038,3.3418,3.3418,3.3418,3.3418,3.3418,3.3418,3.2913,3.2235,3.2081,3.1477,3.0775,3.025,2.9855,2.9369,2.925,2.9186,2.9012,2.8984,2.8627,2.814,2.7891,2.7762,2.7185,2.7081,2.7081,2.7081,2.7081,2.7081,2.7081,2.7081,2.7081,2.7081,2.7081,2.7081,2.7081,2.7081,2.7081,2.7073,2.7185,2.7289,2.7521,2.7762,2.802,2.8406,2.8663,2.8817,2.9174,2.9865,3.0158,3.0659,3.128,3.1884,3.2511,3.2912,3.3165,3.3292,3.3418,3.3418,3.3418,3.3418,3.3418,3.3418,3.3418,3.3418,3.3418,3.3292,3.2921,3.2676,3.2422,3.191,3.1267,3.075,3.0369,2.9979,2.97,2.9438,3.3872,3.3817,3.3817,3.3817,3.3817,3.3798,3.3615,3.334,3.3312,3.3138,3.2845,3.278,3.3065,3.3257,3.3303,3.311,3.2604,3.1965,3.1542,3.1559,3.1568,3.1559,3.1559,3.1559,3.1559,3.17,3.1973,3.2263,3.2701,3.3112,3.32,3.3221,3.3221,3.2854,3.2596,3.2656,3.2857,3.2867,3.3096,3.3418,3.3418,3.3418,3.3418,3.3418,3.3418,3.3038,3.2483,3.2346,3.1978,3.1027,3.0882,3.0461,2.9965,2.9654,2.9489,2.9131,2.9122,2.8837,2.8286,2.802,2.7779,2.7185,2.7073,2.7081,2.7081,2.7081,2.7081,2.7081,2.7081,2.7081,2.7081,2.7081,2.7081,2.7081,2.7081,2.7073,2.7185,2.7409,2.7521,2.7642,2.802,2.8397,2.869,2.8855,2.9037,2.9283,2.9861,3.0415,3.0917,3.1438,3.2025,3.2511,3.2912,3.3165,3.3418,3.3418,3.3418,3.3418,3.3418,3.3418,3.3418,3.3418,3.3418,3.3292,3.3175,3.2794,3.2412,3.2157,3.1644,3.1009,3.0482,3.01,2.9839,2.9569,2.9438,3.411,3.3817,3.3817,3.3817,3.3817,3.3817,3.3771,3.3725,3.3688,3.3679,3.3587,3.3606,3.3587,3.3688,3.3716,3.3354,3.2701,3.1991,3.1559,3.1559,3.1559,3.1559,3.1559,3.17,3.17,3.1965,3.2105,3.2403,3.2701,3.3121,3.3475,3.3504,3.3404,3.3228,3.322,3.3199,3.3205,3.3235,3.3378,3.3486,3.3418,3.3418,3.3418,3.3418,3.3418,3.3048,3.2549,3.2422,3.2001,3.1423,3.1286,3.1002,3.0607,3.0268,2.9929,2.958,2.9479,2.9267,2.8577,2.8211,2.7917,2.753,2.722,2.7098,2.7098,2.7081,2.7081,2.7081,2.7081,2.7081,2.7081,2.7081,2.7081,2.7081,2.7194,2.7185,2.7418,2.765,2.79,2.79,2.8268,2.869,2.8901,2.9194,2.9459,2.9628,3.0171,3.0708,3.1221,3.1751,3.2237,3.2667,3.2921,3.3165,3.3418,3.3418,3.3418,3.3418,3.3418,3.3418,3.3418,3.3418,3.3292,3.3165,3.3048,3.2804,3.2294,3.191,3.1258,3.062,3.0222,2.9822,2.9569,2.9316,2.9316,3.4293,3.411,3.3899,3.3817,3.3817,3.3817,3.3817,3.3817,3.3817,3.3817,3.3817,3.3817,3.3817,3.3817,3.3817,3.34,3.2701,3.1991,3.1559,3.1559,3.1559,3.1559,3.1559,3.17,3.1973,3.2254,3.2544,3.2832,3.299,3.3409,3.3678,3.3771,3.3596,3.3578,3.3764,3.3803,3.3576,3.3662,3.3739,3.3633,3.3447,3.3428,3.3418,3.3418,3.3292,3.3048,3.2549,3.2422,3.2029,3.1497,3.1368,3.1267,3.1084,3.0873,3.0525,3.0039,2.9901,2.9705,2.9157,2.8867,2.8526,2.8114,2.7721,2.7355,2.7295,2.7218,2.7107,2.7081,2.7081,2.7081,2.7081,2.7081,2.7081,2.7073,2.7202,2.7427,2.7539,2.8029,2.8202,2.8349,2.869,2.8919,2.9221,2.9562,2.976,3.0116,3.0616,3.0974,3.1341,3.1901,3.2294,3.2676,3.2921,3.3292,3.3418,3.3418,3.3418,3.3418,3.3418,3.3418,3.3292,3.3292,3.3165,3.3038,3.2794,3.2497,3.2194,3.169,3.1036,3.0369,2.9961,2.97,2.9438,2.9185,2.9087,3.4477,3.4367,3.3982,3.3817,3.3817,3.3817,3.3817,3.3817,3.3955,3.3955,3.3817,3.3955,3.3955,3.3817,3.3539,3.3121,3.2561,3.1841,3.1559,3.1559,3.1559,3.1559,3.17,3.1982,3.2114,3.2403,3.2841,3.3269,3.3269,3.3539,3.3817,3.3807,3.3798,3.3955,3.4078,3.4152,3.4098,3.4178,3.407,3.3965,3.3652,3.3467,3.3418,3.3418,3.3418,3.3048,3.2422,3.2422,3.2038,3.1635,3.1377,3.1368,3.1368,3.1368,3.1075,3.0552,3.0378,3.0153,2.9795,2.9386,2.8941,2.8666,2.8118,2.7758,2.7638,2.745,2.7184,2.7107,2.7081,2.7081,2.7081,2.7081,2.7194,2.7211,2.7488,2.7782,2.8094,2.8407,2.8904,2.8998,2.9112,2.9305,2.9525,2.9956,3.0296,3.0345,3.0837,3.1047,3.1488,3.1772,3.2294,3.2676,3.2931,3.3292,3.3418,3.3418,3.3418,3.3418,3.3418,3.3301,3.3175,3.3048,3.296,3.281,3.2492,3.2171,3.1829,3.1331,3.0629,3.0091,2.9831,2.9438,2.9193,2.9015,2.8834,3.4743,3.4376,3.3982,3.3817,3.3817,3.3817,3.3817,3.3955,3.4232,3.4094,3.3817,3.4094,3.4094,3.3678,3.3121,3.2693,3.2123,3.1841,3.1559,3.1559,3.1559,3.1559,3.17,3.1965,3.2403,3.2693,3.313,3.3269,3.3409,3.3678,3.3817,3.3817,3.3817,3.4048,3.4623,3.4524,3.4672,3.5023,3.4805,3.4394,3.3984,3.3633,3.3486,3.3418,3.3292,3.3048,3.254,3.2422,3.2038,3.1506,3.1377,3.1377,3.1377,3.1377,3.1359,3.1157,3.0919,3.058,3.0226,2.9717,2.935,2.9098,2.8546,2.826,2.7963,2.7698,2.7372,2.709,2.7081,2.7124,2.7133,2.7098,2.7202,2.7592,2.7896,2.8368,2.8683,2.9008,2.9379,2.9619,2.98,2.9709,2.9764,3.0259,3.0708,3.0864,3.102,3.1222,3.1479,3.1891,3.2284,3.2667,3.2931,3.3165,3.3418,3.3418,3.3292,3.3292,3.3155,3.3194,3.3183,3.2995,3.2725,3.2561,3.2246,3.1854,3.138,3.0853,3.0153,2.9787,2.953,2.9198,2.8947,2.8818,2.8784,3.5346,3.4706,3.4082,3.3955,3.4094,3.4103,3.4232,3.437,3.4637,3.4508,3.4232,3.437,3.4094,3.3539,3.299,3.2553,3.2114,3.17,3.1568,3.1559,3.1559,3.17,3.1982,3.2263,3.2701,3.3008,3.3409,3.3539,3.3687,3.3696,3.3817,3.3817,3.3817,3.4232,3.4921,3.4751,3.4931,3.5045,3.4922,3.4502,3.4131,3.3887,3.3672,3.3437,3.3428,3.3048,3.2549,3.2422,3.2029,3.1506,3.1377,3.1377,3.1377,3.1377,3.1368,3.1359,3.1231,3.1047,3.0783,3.0229,2.9938,2.9648,2.9015,2.8426,2.8194,2.7869,2.7595,2.7398,2.7176,2.7184,2.7347,2.7372,2.7755,2.8026,2.8412,2.8853,2.9322,2.9659,3.0007,3.0268,3.0369,3.0277,3.0222,3.0506,3.0901,3.1093,3.1176,3.1277,3.1497,3.1772,3.2284,3.2785,3.2921,3.3175,3.3292,3.3418,3.3038,3.3029,3.2746,3.2842,3.2991,3.2867,3.2628,3.2402,3.202,3.1558,3.0981,3.0539,3.0122,2.9696,2.9278,2.9127,2.8859,2.873,2.863,3.5726,3.5092,3.438,3.4232,3.4518,3.4508,3.4656,3.4921,3.5059,3.4784,3.437,3.4241,3.3687,3.313,3.2701,3.2272,3.1965,3.17,3.1568,3.1559,3.1559,3.1841,3.2166,3.2614,3.3011,3.3423,3.3921,3.407,3.4156,3.4037,3.3954,3.3964,3.3955,3.437,3.4921,3.5011,3.5287,3.5451,3.5156,3.4785,3.4482,3.417,3.3906,3.3662,3.3369,3.3038,3.2549,3.2422,3.2029,3.1506,3.1377,3.1377,3.1377,3.1377,3.1377,3.1377,3.1313,3.1313,3.1148,3.0771,3.0499,3.0151,2.9622,2.8759,2.8408,2.804,2.7809,2.7775,2.7586,2.7586,2.7681,2.7758,2.8092,2.8532,2.9109,2.9538,2.986,3.0238,3.0616,3.0754,3.0855,3.0882,3.0846,3.0882,3.1075,3.1295,3.1377,3.1377,3.1515,3.1653,3.2038,3.254,3.2823,3.2969,3.3252,3.3233,3.295,3.2871,3.2597,3.253,3.2777,3.2852,3.2587,3.2238,3.1908,3.1357,3.0981,3.0548,3.0089,2.9546,2.9199,2.9195,2.8995,2.8826,2.8809,3.5565,3.5387,3.4963,3.4774,3.4931,3.4912,3.4921,3.5059,3.5333,3.5068,3.438,3.3687,3.3269,3.2701,3.2403,3.1982,3.17,3.1568,3.1568,3.1559,3.1568,3.1867,3.2394,3.287,3.35,3.4015,3.4454,3.4779,3.4816,3.46,3.4464,3.4426,3.4269,3.4803,3.5205,3.547,3.5587,3.581,3.5508,3.5312,3.4971,3.456,3.4072,3.3935,3.3643,3.3048,3.2422,3.2422,3.2166,3.1506,3.1377,3.1377,3.1377,3.1377,3.1377,3.1377,3.1377,3.1377,3.1249,3.1,3.075,3.0222,2.9761,2.9076,2.8768,2.8717,2.8511,2.8177,2.7989,2.8032,2.8109,2.8169,2.8464,2.9033,2.9498,2.9958,3.0438,3.0874,3.113,3.1258,3.1267,3.1194,3.1185,3.1157,3.1148,3.135,3.1377,3.1377,3.1515,3.1653,3.1782,3.2175,3.2606,3.2909,3.3241,3.327,3.3082,3.3096,3.2895,3.2899,3.2982,3.2731,3.2545,3.2132,3.1788,3.1375,3.0813,3.0434,2.9885,2.9418,2.9126,2.9184,2.9085,2.8814,2.8906,3.6244,3.6195,3.578,3.547,3.5333,3.5333,3.5333,3.5616,3.5743,3.5343,3.4646,3.3687,3.313,3.2701,3.2254,3.1973,3.1559,3.1559,3.1559,3.17,3.1841,3.2262,3.2862,3.3358,3.3964,3.4484,3.4837,3.5027,3.4963,3.4996,3.5116,3.4948,3.4677,3.495,3.5343,3.5616,3.5889,3.586,3.584,3.5684,3.5283,3.4824,3.4336,3.4053,3.3652,3.3194,3.2794,3.254,3.2157,3.1772,3.1506,3.1377,3.1377,3.1377,3.1377,3.1377,3.1377,3.1377,3.1377,3.1129,3.062,3.0083,2.9552,2.9239,2.9051,2.8922,2.8759,2.8537,2.8366,2.8349,2.8537,2.8563,2.8887,2.9471,2.9979,3.0316,3.0782,3.1176,3.135,3.1341,3.135,3.1332,3.1332,3.135,3.135,3.1377,3.1377,3.1377,3.1515,3.1515,3.1644,3.1828,3.2132,3.2426,3.2758,3.3049,3.324,3.33,3.3218,3.3121,3.3007,3.2801,3.2521,3.2111,3.1582,3.1005,3.055,3.0219,2.9814,2.9346,2.9155,2.9232,2.9066,2.8954,2.9004,3.6475,3.6445,3.6142,3.5889,3.5616,3.5616,3.5743,3.6025,3.6025,3.5606,3.4784,3.3678,3.299,3.2561,3.2123,3.1841,3.1709,3.1559,3.17,3.1893,3.2138,3.2729,3.3402,3.3983,3.4577,3.5047,3.5357,3.543,3.5458,3.5699,3.5669,3.5435,3.5189,3.5406,3.5606,3.5879,3.6025,3.6025,3.5996,3.5918,3.5547,3.5156,3.4844,3.4443,3.3994,3.3564,3.3104,3.2654,3.2294,3.1901,3.1635,3.1377,3.1377,3.1377,3.1377,3.1377,3.1377,3.1377,3.1377,3.1,3.075,3.0352,2.9683,2.9561,2.9361,2.9198,2.8974,2.8931,2.87,2.8631,2.8931,2.8939,2.9094,2.963,3.0072,3.0522,3.078,3.1111,3.124,3.1368,3.1377,3.1377,3.1377,3.1377,3.1377,3.1377,3.1377,3.1377,3.1377,3.1506,3.1506,3.158,3.1801,3.2096,3.2272,3.2945,3.3473,3.3462,3.3373,3.3163,3.3102,3.2746,3.2267,3.1905,3.1333,3.0693,3.0225,2.9843,2.962,2.9397,2.9218,2.9179,2.9171,2.9067,2.898,3.6055,3.6035,3.6035,3.6025,3.6025,3.6025,3.6025,3.6025,3.5889,3.547,3.4784,3.34,3.271,3.2561,3.1991,3.17,3.1709,3.1709,3.1841,3.2025,3.2578,3.3207,3.3831,3.4622,3.5148,3.5513,3.5825,3.5971,3.6063,3.6191,3.6262,3.6048,3.5845,3.5768,3.5909,3.6025,3.6025,3.6025,3.6025,3.5986,3.5859,3.5508,3.5254,3.501,3.4443,3.3943,3.3502,3.2925,3.2407,3.2047,3.1644,3.1377,3.1377,3.1377,3.1377,3.1377,3.1377,3.1377,3.1377,3.1129,3.0879,3.062,3.0083,2.9822,2.9683,2.9518,2.923,2.9153,2.9136,2.917,2.9265,2.9265,2.9526,2.9665,3.0091,3.0369,3.075,3.1129,3.1258,3.1377,3.1377,3.1377,3.1377,3.1377,3.1377,3.1377,3.1377,3.1377,3.1387,3.1497,3.1543,3.1625,3.1744,3.204,3.2459,3.3189,3.3697,3.3554,3.3467,3.3184,3.286,3.2219,3.1887,3.1568,3.1002,3.0283,2.9863,2.956,2.9345,2.9139,2.9202,2.9122,2.9146,2.9002,2.8851,3.6025,3.6025,3.6025,3.6025,3.6025,3.6025,3.6025,3.5889,3.547,3.5196,3.4637,3.34,3.271,3.243,3.1999,3.1568,3.1709,3.1833,3.2105,3.2158,3.2941,3.3706,3.4324,3.5012,3.5605,3.5971,3.6173,3.6201,3.6164,3.6607,3.6459,3.6209,3.6095,3.6064,3.6055,3.6025,3.6025,3.6025,3.6025,3.6016,3.5967,3.5644,3.541,3.5391,3.4805,3.4394,3.3882,3.3254,3.2687,3.2213,3.1772,3.1377,3.1377,3.1377,3.1377,3.1377,3.1377,3.1377,3.1377,3.1258,3.112,3.087,3.049,3.0083,2.9813,2.9683,2.9561,2.9307,2.9307,2.9307,2.9299,2.929,2.9421,2.9421,2.9709,3.01,3.049,3.0879,3.1129,3.1249,3.1377,3.1405,3.1423,3.1478,3.1488,3.1488,3.1497,3.146,3.1451,3.1717,3.1854,3.1797,3.1774,3.2116,3.2514,3.3169,3.34,3.3294,3.3248,3.3179,3.2561,3.1859,3.1285,3.071,3.0283,2.9855,2.9433,2.9146,2.8874,2.8874,2.8866,2.8715,2.8563,2.8418,2.8418,3.6025,3.6025,3.6025,3.6025,3.6025,3.6025,3.5889,3.5753,3.5196,3.4784,3.4508,3.326,3.271,3.2421,3.1991,3.17,3.1841,3.1973,3.2395,3.2597,3.3375,3.4036,3.4721,3.5285,3.5659,3.61,3.621,3.621,3.6497,3.7107,3.7074,3.6578,3.6199,3.6006,3.6025,3.6025,3.6025,3.6025,3.6025,3.6025,3.5957,3.5791,3.5635,3.5517,3.5176,3.4756,3.4264,3.3604,3.2867,3.2307,3.1901,3.1377,3.1377,3.1377,3.1377,3.1377,3.1377,3.1377,3.1377,3.1377,3.1249,3.1129,3.075,3.0482,3.0083,2.9944,2.9691,2.9561,2.9438,2.9307,2.9307,2.9307,2.9307,2.9438,2.9569,2.9961,3.0222,3.0482,3.0879,3.1129,3.1414,3.1451,3.1579,3.145,3.1504,3.1634,3.1625,3.1616,3.1625,3.19,3.2184,3.2153,3.2023,3.2384,3.2629,3.292,3.3102,3.2909,3.2811,3.2737,3.2158,3.1277,3.071,2.9997,2.9568,2.9282,2.9002,2.8722,2.8442,2.8297,2.8289,2.813,2.7977,2.7977,2.7985,3.6025,3.6025,3.6025,3.6025,3.6025,3.6025,3.5753,3.5489,3.5059,3.4646,3.437,3.326,3.271,3.257,3.1991,3.1841,3.2114,3.2246,3.2684,3.3229,3.3675,3.4348,3.4892,3.543,3.5825,3.6081,3.6358,3.6516,3.6793,3.701,3.7172,3.7003,3.6307,3.6123,3.6025,3.6025,3.6025,3.6025,3.6025,3.6025,3.5976,3.5986,3.5908,3.5791,3.5557,3.5176,3.4654,3.3883,3.3081,3.2511,3.18,3.1515,3.1377,3.1377,3.1377,3.1377,3.1377,3.1377,3.1377,3.1377,3.1377,3.1249,3.1129,3.1,3.0741,3.0343,2.9952,2.9691,2.9561,2.9438,2.9307,2.9307,2.9307,2.943,2.9561,2.9813,2.9944,3.0213,3.062,3.1027,3.1202,3.1459,3.1937,3.2001,3.2019,3.187,3.2047,3.1997,3.2016,3.2194,3.2469,3.268,3.2575,3.2684,3.2773,3.2788,3.2583,3.2358,3.2141,3.1867,3.1285,3.0701,3.0124,2.9552,2.8987,2.8707,2.8426,2.8137,2.7992,2.7848,2.771,2.7703,2.755,2.755,2.7558,3.6025,3.6025,3.6025,3.6025,3.6025,3.5743,3.5616,3.547,3.5059,3.4646,3.438,3.3269,3.285,3.299,3.2263,3.2263,3.2553,3.2841,3.2981,3.3405,3.3902,3.4472,3.5018,3.5394,3.5815,3.622,3.6497,3.6655,3.6801,3.6957,3.7114,3.7057,3.6426,3.6113,3.6025,3.6025,3.6025,3.6025,3.6025,3.6025,3.6025,3.6025,3.6025,3.5947,3.5889,3.5527,3.5014,3.4322,3.3507,3.2914,3.2188,3.1662,3.1377,3.1377,3.1377,3.1377,3.1377,3.1377,3.1377,3.1377,3.1387,3.1387,3.1249,3.1129,3.087,3.0602,3.0343,2.9952,2.9691,2.9561,2.9307,2.9307,2.9307,2.943,2.943,2.9561,2.9683,2.9952,3.0369,3.079,3.1087,3.1774,3.2235,3.2799,3.2666,3.2478,3.2344,3.2293,3.2222,3.2384,3.2529,3.2748,3.2957,3.2918,3.2539,3.2524,3.2158,3.1789,3.1551,3.1135,3.0559,2.9981,2.9393,2.8971,2.8555,2.813,2.784,2.7703,2.7703,2.7427,2.7289,2.7274,2.7267,2.7282,2.7282,3.6025,3.6025,3.6025,3.6025,3.5889,3.5616,3.5479,3.5196,3.4921,3.4508,3.4094,3.3269,3.313,3.313,3.2701,3.2561,3.2981,3.3121,3.3269,3.3602,3.3924,3.4385,3.4788,3.5201,3.5714,3.6174,3.658,3.696,3.7019,3.7038,3.7125,3.6973,3.6309,3.6113,3.6025,3.6025,3.6025,3.6025,3.6025,3.6025,3.6025,3.6025,3.6025,3.6025,3.6025,3.5781,3.541,3.4687,3.3867,3.3065,3.2401,3.1791,3.1561,3.1506,3.1625,3.168,3.1854,3.179,3.1726,3.1653,3.1543,3.1423,3.1387,3.1249,3.1129,3.087,3.0482,3.0222,2.9952,2.9683,2.943,2.9307,2.9307,2.9307,2.9299,2.943,2.9561,2.9691,3.0223,3.0671,3.1264,3.1837,3.2529,3.309,3.3145,3.2494,3.2169,3.2214,3.2132,3.2304,3.2492,3.2735,3.3062,3.3112,3.2684,3.2053,3.1499,3.1101,3.0835,3.0425,2.9704,2.9266,2.8971,2.8547,2.813,2.7703,2.7412,2.7412,2.7267,2.7158,2.7115,2.735,2.7313,2.7195,2.7188,3.6025,3.6025,3.6025,3.6025,3.5889,3.5616,3.5196,3.4774,3.4508,3.4232,3.3817,3.34,3.3278,3.3269,3.2981,3.299,3.3269,3.3409,3.3539,3.3807,3.3872,3.4128,3.4495,3.4807,3.548,3.6024,3.6548,3.7042,3.7586,3.7332,3.6963,3.665,3.624,3.6025,3.6025,3.6025,3.6025,3.6025,3.6025,3.6025,3.6025,3.6025,3.6025,3.6025,3.5976,3.583,3.5266,3.4696,3.3858,3.3056,3.2438,3.18,3.1718,3.1735,3.19,3.2102,3.2276,3.2239,3.2074,3.1955,3.1753,3.1579,3.1405,3.1387,3.1249,3.1129,3.087,3.0361,3.01,2.9691,2.9438,2.9307,2.9307,2.9307,2.9307,2.9299,2.943,2.9673,3.0188,3.0565,3.1102,3.1661,3.2373,3.2791,3.2627,3.2152,3.2014,3.2032,3.1902,3.1938,3.2199,3.2447,3.2553,3.2491,3.1999,3.1234,3.0801,3.0392,3.0132,2.9712,2.9138,2.8699,2.8411,2.7985,2.7703,2.742,2.7129,2.7136,2.718,2.7298,2.7269,2.7444,2.7408,2.7313,2.7291,3.6025,3.6025,3.6025,3.5889,3.5606,3.5196,3.4784,3.4508,3.4094,3.3955,3.3817,3.3539,3.3409,3.3539,3.326,3.3409,3.3539,3.3687,3.3678,3.3817,3.3817,3.3982,3.4462,3.4824,3.5253,3.5781,3.6417,3.6962,3.7265,3.7129,3.6787,3.6621,3.624,3.6025,3.6025,3.6025,3.6025,3.6025,3.6025,3.6025,3.6025,3.6025,3.6025,3.6025,3.5986,3.5801,3.5391,3.4819,3.3998,3.3186,3.2649,3.2106,3.1845,3.1964,3.2166,3.2404,3.2597,3.2597,3.2469,3.2267,3.2029,3.1799,3.1616,3.1451,3.1377,3.1258,3.1009,3.0638,3.0239,2.9839,2.9438,2.9438,2.9307,2.9307,2.9316,2.9316,2.9325,2.9748,3.0157,3.0545,3.0934,3.1539,3.2122,3.2219,3.2079,3.194,3.1835,3.1563,3.1256,3.1115,3.1362,3.1666,3.1876,3.1636,3.1152,3.0693,3.0116,2.9687,2.9425,2.9002,2.857,2.813,2.784,2.7695,2.7412,2.7158,2.718,2.7005,2.7078,2.7291,2.751,2.7715,2.8004,2.796,2.7773,3.6025,3.6025,3.5889,3.5616,3.5479,3.4921,3.4508,3.437,3.3955,3.3817,3.3817,3.3678,3.3678,3.3817,3.3539,3.3539,3.3817,3.3817,3.3817,3.3817,3.3835,3.4066,3.4399,3.4874,3.537,3.5878,3.6511,3.7115,3.7002,3.6836,3.6641,3.6416,3.6113,3.6025,3.6025,3.6025,3.6025,3.6025,3.6025,3.6025,3.6025,3.6025,3.6025,3.6025,3.5967,3.5762,3.5391,3.4951,3.425,3.3316,3.2649,3.218,3.2049,3.2184,3.2487,3.2808,3.301,3.3055,3.2863,3.2634,3.2349,3.2093,3.1873,3.1726,3.1451,3.1331,3.1145,3.0754,3.0387,3.01,2.9569,2.9307,2.9307,2.9307,2.935,2.9376,2.9607,2.9941,3.041,3.0789,3.1133,3.126,3.1606,3.129,3.1158,3.1059,3.1127,3.0985,3.0718,3.0299,3.0433,3.0718,3.0768,3.0776,3.0165,2.9855,2.956,2.9138,2.8882,2.8457,2.8038,2.7718,2.7267,2.7348,2.7393,2.7247,2.7108,2.7174,2.7371,2.7627,2.7825,2.8015,2.8139,2.8278,2.8133,3.6025,3.5889,3.5616,3.5479,3.5343,3.4646,3.437,3.4232,3.3955,3.3817,3.3817,3.3817,3.3817,3.3817,3.3817,3.3817,3.3817,3.3817,3.3817,3.3955,3.3955,3.4288,3.4538,3.4984,3.5525,3.5946,3.6557,3.6628,3.6582,3.6484,3.6348,3.6084,3.6025,3.6025,3.6025,3.6025,3.6025,3.6025,3.6025,3.6025,3.6025,3.6025,3.6025,3.6025,3.5986,3.5762,3.5332,3.4932,3.4362,3.3398,3.252,3.2199,3.2187,3.2395,3.2835,3.3175,3.3486,3.3468,3.334,3.3147,3.2762,3.2414,3.2194,3.1974,3.1726,3.1577,3.1389,3.0942,3.0704,3.0171,2.9638,2.9342,2.9342,2.9342,2.9393,2.9496,2.9855,3.0206,3.0575,3.0951,3.1111,3.1375,3.096,3.0643,3.0367,3.0275,3.0299,3.0157,3.0006,2.9577,2.9433,2.9568,2.9593,2.9449,2.9154,2.9146,2.8851,2.8625,2.8213,2.7938,2.7707,2.757,2.7475,2.7239,2.7269,2.7356,2.743,2.7517,2.7737,2.7805,2.7922,2.7936,2.7992,2.8129,2.8125,3.5889,3.5606,3.5479,3.5205,3.4646,3.438,3.4241,3.3955,3.3807,3.3817,3.3752,3.3798,3.3817,3.3807,3.3817,3.3817,3.3955,3.3817,3.4094,3.4232,3.4232,3.4508,3.4822,3.5211,3.5595,3.5976,3.6348,3.6221,3.6269,3.6221,3.6133,3.6035,3.6025,3.6025,3.6025,3.6025,3.6025,3.6025,3.6025,3.6025,3.6025,3.6025,3.6025,3.6025,3.6016,3.5508,3.5039,3.4775,3.3979,3.3139,3.2416,3.2218,3.2344,3.257,3.2964,3.3441,3.3771,3.3734,3.3587,3.3413,3.3028,3.2881,3.268,3.245,3.2313,3.2322,3.1942,3.1345,3.091,3.0338,2.9863,2.9487,2.9453,2.9453,2.9479,2.9701,2.9984,3.0174,3.0506,3.089,3.1248,3.1093,3.0843,3.0233,2.948,2.9528,2.9441,2.9433,2.9002,2.8715,2.8426,2.8426,2.8578,2.8434,2.8289,2.8434,2.8297,2.7931,2.7774,2.7792,2.7829,2.7894,2.7752,2.7576,2.7642,2.7609,2.7682,2.7711,2.7741,2.7776,2.7841,2.7831,2.7905,2.772,2.7783]}]]